GFSCGP_con_mlcape_000.txt.gz
CAPE
0 0 0 0 0 0 18 6 0 13 31 48 8 3 78 25 107 352 501 451 425 342 833 904 1151 1554 1340 1396 1606 1979 2257 2346 2349 2313 1965 1752 1918 2137 2156 2202 1791 1762 1961 1755
0 0 0 0 0 0 0 1 1 7 23 56 47 46 49 30 32 184 417 470 346 436 392 415 550 570 757 1723 2119 2022 2525 2649 2656 2369 2527 2371 2047 1974 1786 1689 1788 1624 1401 1468
0 0 0 0 0 0 0 0 0 6 23 4 66 79 26 61 72 80 133 316 333 289 341 548 699 769 971 1231 1711 1891 2372 2090 2444 2731 2553 1735 1772 942 802 1017 1157 978 373 189
0 0 0 0 0 0 0 0 0 0 6 5 0 0 22 9 11 89 62 104 195 196 267 499 660 909 997 1381 1747 1981 2341 2646 2715 1709 657 442 28 0 412 198 257 23 14 192
0 0 0 0 0 0 0 0 0 0 0 0 0 0 55 42 2 24 53 68 88 144 176 215 388 599 777 1351 1644 2377 2874 2177 1409 653 77 58 6 0 0 0 0 11 8 123
0 0 0 0 0 0 0 0 0 0 0 0 0 15 81 79 189 4 16 77 78 120 178 143 202 388 611 1112 1379 2397 2409 1315 735 397 193 52 0 2 0 72 41 89 19 3
0 0 0 0 0 0 0 0 0 0 0 0 0 3 14 39 29 121 18 9 70 161 270 279 182 359 595 1055 1421 2259 1783 1294 774 258 97 0 0 0 71 199 162 3 0 7
0 0 0 0 0 0 0 0 0 0 0 1 1 1 11 9 79 161 155 339 84 67 370 456 511 443 925 1196 1628 1580 1572 1220 863 325 106 67 74 95 176 394 209 2 0 35
0 0 0 0 0 0 0 0 0 0 0 0 0 0 0 0 0 0 16 0 200 85 108 447 737 965 1216 1293 1552 1474 1464 1403 919 340 576 576 395 220 126 188 152 61 211 96
0 0 0 0 0 0 0 0 0 0 0 0 1 0 0 13 0 0 0 0 17 246 269 273 567 1184 1643 1534 1595 1323 1295 1526 671 551 708 605 204 174 295 246 149 175 155 182
0 0 0 0 0 0 0 0 0 0 0 0 0 4 3 3 0 0 0 0 0 16 383 630 716 1389 1960 1514 1499 945 1038 1289 670 381 500 151 0 0 132 135 105 100 222 249
0 0 0 0 0 0 0 0 1 0 2 0 0 0 0 0 0 0 0 0 0 41 140 984 940 1580 2095 1594 1342 781 590 783 638 486 467 276 115 26 20 60 93 84 95 92
0 0 0 0 0 0 0 1 0 0 0 0 10 14 0 0 0 0 0 0 44 53 896 1387 1185 1247 1966 1769 1422 666 382 430 447 434 310 194 175 205 251 255 270 181 136 84
0 0 0 0 0 0 0 0 0 0 11 2 3 67 1 0 5 0 0 4 12 225 294 1562 1351 1268 1685 1770 1284 699 289 165 224 258 356 331 339 385 399 377 474 236 340 411
0 0 0 0 0 1 4 0 0 0 0 0 8 3 19 0 0 0 0 0 0 40 469 1364 1379 1492 1656 1666 1058 782 304 197 112 126 178 224 296 429 557 566 440 375 369 488
0 0 0 0 0 0 0 0 25 0 0 0 0 0 2 20 0 0 0 0 0 0 0 422 1507 1353 1892 1722 1117 632 315 382 152 345 332 317 385 458 536 714 787 597 623 515
14 0 0 0 0 0 0 1 2 21 18 0 5 72 107 7 0 0 0 0 0 0 0 2 808 1475 2114 1722 1147 531 507 399 262 458 432 420 455 498 642 732 648 549 439 423
27 31 1 0 10 46 0 36 30 39 29 1 56 10 0 6 0 0 0 0 0 0 1 22 367 1423 1794 1620 1109 1020 788 415 681 720 747 714 725 757 881 877 676 605 577 559
7 206 36 30 0 23 70 126 136 29 48 93 119 92 75 1 0 53 21 0 2 30 253 337 115 828 1815 1538 1219 1231 737 645 829 839 842 953 918 952 1023 1029 806 721 695 433
0 4 6 38 120 15 65 167 87 45 0 52 43 93 33 20 0 288 180 101 92 138 362 519 598 1014 1933 1674 1600 1243 679 869 817 829 1041 1145 1128 1202 1187 1095 873 825 720 465
0 17 35 73 41 0 54 87 20 0 0 62 58 10 5 5 11 48 148 87 126 239 495 1010 1079 1370 2038 1760 1501 877 564 841 952 1032 1146 1137 1292 1336 1229 1136 936 889 538 50
72 134 24 0 14 1 182 242 37 269 18 83 122 91 70 23 13 14 0 247 166 262 490 961 1385 1858 1880 1601 1303 604 645 921 1342 1202 1119 1242 1328 1169 986 892 685 729 576 655
136 91 1 237 250 148 282 333 107 92 85 4 8 19 13 21 8 0 0 15 400 419 541 934 1315 1628 1536 1240 798 1189 1341 1572 1660 1554 1455 1296 1113 899 1011 672 499 1046 798 582
276 50 188 4 0 0 5 14 19 30 10 0 0 0 1 19 46 87 81 277 686 799 886 937 1273 1524 1030 1623 1770 2154 2228 2205 2102 2156 2065 1733 1356 1299 1057 732 857 723 608 385
69 5 1 67 5 9 2 0 0 2 0 0 0 0 4 57 134 327 342 872 1210 1225 1076 1190 1308 1065 609 331 194 193 806 1663 1965 2396 2038 1646 1471 1000 746 126 53 226 0 0
59 69 97 57 0 29 0 0 0 0 0 0 0 0 1 65 214 783 1275 1307 1307 1207 1162 644 309 207 0 0 385 444 15 1233 1478 1290 1125 953 734 300 329 142 0 0 0 0

GFSCGP_con_mlcape_003.txt.gz
CAPE
0 0 0 0 0 0 0 0 2 0 0 0 6 228 346 350 386 360 675 708 784 791 1016 862 840 772 847 980 1000 1290 1308 1838 1698 1861 1658 1925 1440 1306 1486 1583 1550 1487 1400 1379
0 0 0 0 0 0 0 10 1 33 2 8 0 75 87 112 230 304 495 486 687 639 1069 1098 998 717 1059 1082 1397 1578 1633 2000 2189 2187 2012 2096 1987 1892 1780 1699 1697 1245 882 1037
0 0 0 0 0 0 0 0 35 55 49 40 16 11 26 26 40 188 424 406 455 398 786 1262 1296 1119 1248 1500 1579 1744 1870 2096 2239 1616 2076 1680 984 1187 692 1038 1222 443 181 29
0 0 0 0 0 0 0 0 0 49 52 25 76 40 0 0 0 57 307 358 278 449 391 525 640 749 1354 1647 1806 2066 2162 1712 2128 1846 2005 1070 328 0 305 313 150 0 72 37
0 0 0 0 0 0 0 0 0 0 16 21 49 18 26 12 0 32 124 303 255 290 266 329 399 499 981 1515 1599 1469 2055 1858 1955 214 62 0 0 0 16 51 0 0 0 33
0 0 0 0 0 0 0 0 0 0 0 0 0 0 33 7 35 36 61 62 139 177 303 363 458 657 1129 1221 1653 1688 2054 1706 588 49 0 0 0 0 0 0 0 4 2 24
0 0 0 0 0 0 0 0 0 0 0 0 0 0 6 40 40 10 4 18 38 93 211 327 436 714 1219 1214 1752 2142 1836 993 359 0 12 0 0 0 0 0 11 12 0 34
0 0 0 0 0 0 0 0 0 0 0 0 0 0 0 81 88 20 25 13 43 70 64 168 270 472 974 1181 1763 2059 1675 1149 145 157 37 0 0 0 27 331 14 0 0 0
0 0 0 0 0 0 0 0 0 0 0 1 1 0 1 18 36 27 105 54 17 39 60 49 102 296 807 1014 1666 1842 1664 999 329 116 5 10 70 2 83 18 0 0 107 0
0 0 0 0 0 0 0 0 0 0 0 0 1 18 6 6 12 64 92 42 37 5 95 104 79 288 816 952 1503 1723 1543 972 327 484 237 392 375 178 20 37 0 0 0 0
0 0 0 0 0 0 0 0 0 0 0 0 0 0 33 0 0 0 0 0 32 85 61 299 245 381 901 1090 1466 1602 1407 1070 356 551 376 440 431 88 76 101 12 9 71 175
0 0 0 0 0 0 0 0 0 0 0 0 6 8 0 0 0 0 0 0 0 0 134 242 517 733 1076 1204 1476 1472 1364 1058 353 548 463 237 1 7 18 30 16 12 0 0
0 0 0 0 0 0 0 0 0 0 0 0 0 2 0 0 0 0 0 0 1 5 51 256 569 985 1335 1341 1379 1352 1268 1044 528 304 471 170 79 35 24 33 41 51 36 12
0 0 0 0 0 0 0 0 0 0 0 0 0 7 0 5 0 0 3 1 5 4 154 301 891 1371 1635 1531 1373 1125 950 781 462 352 295 236 140 77 97 109 141 179 126 48
0 0 0 0 0 0 1 0 0 0 0 0 2 55 1 4 15 18 0 0 5 165 493 777 729 1758 1882 1750 1267 873 598 529 376 313 293 235 181 206 276 276 243 372 130 168
0 0 0 0 0 0 0 0 0 0 0 0 0 1 4 13 16 0 0 0 0 0 1 932 1188 1175 1941 1939 1341 873 354 262 228 208 219 365 328 310 282 265 236 297 225 197
13 1 0 0 0 0 0 0 0 0 4 0 0 3 38 34 13 0 0 0 0 0 0 0 353 1430 1446 1738 1280 758 193 263 206 154 227 278 269 254 288 359 411 582 586 572
18 22 0 0 1 0 0 0 8 61 89 68 46 43 54 10 0 0 0 0 0 0 2 0 0 722 1580 1434 1050 516 175 104 146 141 291 363 366 411 388 447 552 607 605 393
127 88 120 0 0 0 4 3 169 105 66 54 126 100 0 0 10 45 0 0 0 32 150 175 232 1280 1731 1414 981 599 314 214 258 174 211 440 412 388 453 625 784 883 790 567
81 91 119 98 42 3 5 178 152 88 108 105 72 66 73 0 32 52 8 88 149 161 312 354 503 1476 1575 1391 887 697 611 546 451 264 516 627 656 673 816 996 1096 998 857 729
96 77 40 25 3 0 90 166 33 17 2 58 6 22 7 0 0 53 48 83 100 143 313 418 604 1768 1829 1413 1264 935 726 738 595 667 700 903 938 990 1072 1223 1265 1026 841 455
17 116 42 40 49 6 162 303 322 340 150 122 123 102 6 3 0 0 0 0 1 149 313 414 988 1546 2025 1737 1452 1060 959 771 681 725 942 1222 1222 1337 1407 1189 977 685 532 215
75 86 217 328 211 1 0 6 35 29 1 1 0 0 0 2 0 0 0 0 0 266 298 703 1386 1800 2383 2136 1397 920 188 211 238 860 1424 1507 1628 1551 1143 799 523 322 80 101
119 26 385 124 60 0 0 0 0 0 0 21 28 19 12 25 85 94 86 127 163 640 587 1411 1628 1521 1296 909 388 29 2 0 0 5 0 66 995 853 719 371 284 249 80 0
34 43 90 354 200 0 0 0 0 0 0 2 3 2 1 3 54 369 727 1058 1055 1236 1152 1344 1422 1167 879 544 186 0 0 0 0 0 2 0 454 781 248 36 94 128 0 0
73 0 0 0 11 18 0 0 0 0 0 0 0 0 4 9 463 1166 1449 1244 993 912 955 850 740 826 447 203 64 7 0 0 15 102 182 676 658 268 7 0 0 0 0 0

GFSCGP_con_mlcape_006.txt.gz
CAPE
0 0 0 0 0 0 0 0 0 0 0 3 2 140 199 302 315 350 409 344 347 269 245 253 280 287 393 418 531 575 694 1256 1713 1638 1511 1630 1631 1508 1262 1091 1267 1386 1113 1084
0 0 0 0 0 0 0 0 0 3 0 0 68 115 185 340 442 503 577 592 523 595 315 266 295 363 412 492 570 760 866 1410 1561 1526 1527 1404 1288 1217 1285 1415 1599 1102 804 892
0 0 0 0 0 0 0 0 0 9 13 3 83 104 214 278 388 427 453 681 735 804 646 471 446 503 634 724 804 986 1279 1427 1563 1632 1655 1707 1520 1165 1046 952 1191 573 293 72
0 0 0 0 0 0 0 0 0 16 39 10 48 23 57 122 122 152 227 507 583 648 777 783 759 515 732 1023 1015 1369 1521 1665 1775 1898 1581 1305 424 241 125 510 530 36 0 0
0 0 0 0 0 0 0 0 0 20 52 37 24 23 20 8 9 64 118 332 400 528 762 873 890 602 793 1158 1322 1389 1484 1642 1732 1597 1420 1194 111 0 101 133 0 0 0 0
0 0 0 0 0 0 0 0 0 11 19 34 21 18 11 20 45 18 20 274 318 349 682 912 984 721 1092 1230 1445 1620 1467 1448 1468 1278 564 76 0 0 0 0 0 0 0 0
0 0 0 0 0 0 0 0 0 0 0 0 0 35 0 4 22 18 5 143 288 278 395 642 709 691 1212 1320 1444 1593 1543 1302 993 256 0 0 0 0 0 0 0 0 0 0
0 0 0 0 0 0 0 0 0 0 0 0 0 0 0 0 4 17 5 94 192 212 262 403 301 266 721 1169 1301 1424 1391 1331 831 49 0 0 0 0 0 0 0 0 0 0
0 0 0 0 0 0 0 0 0 0 0 0 0 0 0 0 3 12 1 17 105 178 216 268 289 317 607 1009 1213 1397 1183 1219 669 235 0 0 0 0 0 8 0 0 0 0
0 0 0 0 0 0 0 0 0 0 0 0 0 0 0 21 27 36 4 1 4 55 166 210 294 368 719 898 1300 1470 1156 1144 754 200 0 0 0 0 9 2 0 0 0 0
0 0 0 0 0 0 0 0 0 0 0 0 0 0 0 26 30 50 47 33 5 24 49 156 268 341 713 967 1300 1509 1320 1244 899 159 0 0 62 56 10 0 0 0 0 6
0 0 0 0 0 0 0 0 0 0 0 0 0 0 0 6 14 26 56 63 22 0 40 96 133 212 535 869 1315 1445 1475 1340 1058 189 0 40 248 230 100 47 14 0 17 12
0 0 0 0 0 0 0 0 0 0 0 0 0 0 0 0 0 2 6 10 0 0 0 31 79 130 358 732 1181 1401 1523 1424 1070 395 173 134 265 270 42 28 34 14 9 3
0 0 0 0 0 0 0 0 0 0 0 0 0 0 0 0 0 0 0 0 0 0 0 36 122 153 339 683 1129 1358 1455 1424 1046 464 217 178 150 2 16 31 38 13 9 5
0 0 0 0 0 0 0 0 0 0 0 0 0 0 0 0 0 0 0 1 0 1 12 6 162 417 525 738 1127 1363 1435 1291 955 511 323 272 86 56 14 15 12 2 12 43
0 0 0 0 0 0 0 0 0 0 0 0 0 0 0 0 0 1 2 8 0 15 44 156 185 569 814 957 1118 1232 1281 1197 687 446 327 217 175 147 56 84 53 47 33 157
0 0 0 0 0 0 0 0 0 0 0 0 0 0 0 3 18 3 0 0 0 0 0 3 595 871 1154 1325 1251 1078 1054 892 786 533 289 180 182 121 174 187 186 134 58 155
0 0 0 0 0 0 0 0 6 17 13 5 0 0 0 3 41 3 0 0 0 0 0 0 0 280 1090 1601 1433 884 573 694 636 378 280 290 260 169 262 280 234 219 247 346
78 0 3 3 1 0 6 28 37 26 20 38 24 16 22 15 7 3 0 0 0 0 0 0 27 131 349 1436 1441 879 527 549 484 295 274 299 398 364 346 367 251 335 454 551
63 46 25 3 0 1 68 89 86 90 71 37 78 3 12 18 26 14 0 0 0 52 27 9 84 290 687 1187 1172 965 693 439 371 262 294 311 341 347 377 381 368 529 631 592
113 112 44 21 3 0 107 170 50 100 91 29 0 27 60 69 95 52 41 99 106 83 54 104 178 262 581 1098 1039 982 556 573 399 301 184 191 481 447 450 495 689 721 662 305
35 159 35 27 67 58 12 174 159 72 24 26 6 0 0 0 0 0 0 0 0 2 140 336 302 595 1150 1185 1078 948 549 211 143 43 32 32 41 327 757 833 993 464 323 218
12 2 5 81 1 0 0 2 0 0 1 0 0 0 6 0 3 5 0 0 0 0 0 212 296 624 1390 1266 888 623 80 86 30 0 11 0 0 0 0 348 664 443 118 49
0 39 5 0 0 0 0 0 0 0 0 0 0 0 0 0 1 60 55 195 421 530 259 515 938 860 1081 737 297 80 0 0 0 0 0 0 0 0 53 331 374 261 155 31
75 85 86 60 1 0 0 0 0 0 0 0 0 0 0 0 258 655 417 818 759 743 1000 1050 1219 1063 666 231 17 0 0 0 0 0 0 0 0 2 17 15 54 102 0 0
37 201 138 119 11 0 0 0 0 0 0 0 0 0 0 0 46 765 507 1061 915 906 948 902 642 537 110 2 0 0 0 0 0 0 0 0 0 54 31 23 0 0 0 0

GFSCGP_con_mlcape_009.txt.gz
CAPE
0 0 0 0 0 0 0 0 7 14 0 18 51 48 101 236 171 134 174 188 161 180 215 248 465 450 380 346 681 802 917 1036 1115 1231 1409 1496 1538 1626 1515 1318 1301 1291 1180 1058
0 0 0 0 0 0 0 0 0 0 0 38 62 39 66 109 98 95 104 148 171 186 187 210 306 414 373 301 470 598 734 879 1206 1373 1396 1406 1391 1344 1131 1061 1246 1302 1026 747
0 0 0 0 0 0 0 0 0 0 0 41 55 56 158 112 118 120 149 166 144 146 163 166 196 236 286 263 299 371 530 679 1088 1465 1415 1405 1279 1220 1023 1220 1314 851 649 507
0 0 0 0 0 0 0 0 0 0 0 0 45 0 96 171 190 236 289 298 306 225 167 168 200 235 270 240 292 450 558 746 1144 1393 1415 1213 848 476 202 433 836 423 76 0
0 0 0 0 0 0 0 0 0 0 0 4 23 4 24 123 163 209 298 303 434 398 229 221 226 292 293 284 441 583 751 1072 1351 1443 1567 1285 890 246 37 167 482 40 0 0
0 0 0 0 0 0 0 0 0 0 0 2 5 5 0 16 84 110 181 204 396 412 495 402 291 293 398 468 642 816 856 1229 1435 1451 1558 1112 769 97 0 96 50 0 0 0
0 0 0 0 0 0 0 0 0 0 0 0 0 6 0 2 42 51 66 90 212 349 629 617 576 514 514 501 835 1017 1005 1255 1246 1299 1216 780 471 0 0 0 0 0 0 0
0 0 0 0 0 0 0 0 0 0 0 0 0 0 0 7 22 40 49 45 118 188 492 685 744 691 610 572 861 1125 1240 1273 1071 1064 805 364 1 0 0 0 0 0 0 0
0 0 0 0 0 0 0 0 0 0 0 0 0 0 0 0 0 9 11 6 66 138 288 635 808 731 742 731 872 1034 1353 1421 953 691 432 0 0 0 0 0 0 0 0 0
0 0 0 0 0 0 0 0 0 0 0 0 0 0 0 0 0 0 4 4 20 82 184 488 759 677 821 925 959 1147 1348 1448 1001 496 266 0 0 0 0 0 2 2 0 0
0 0 0 0 0 0 0 0 0 0 0 0 0 0 0 0 0 0 0 3 10 33 105 265 499 559 584 955 1152 1161 1335 1381 1026 597 325 25 0 0 0 0 11 11 0 0
0 0 0 0 0 0 0 0 0 0 0 0 0 0 0 0 0 0 5 15 4 11 90 196 312 426 430 614 910 1087 1345 1177 925 655 473 105 0 0 0 0 0 0 0 0
0 0 0 0 0 0 0 0 0 0 0 0 0 0 0 0 0 6 2 2 0 3 38 131 246 326 394 547 772 998 1399 1198 915 617 558 132 0 7 13 7 0 0 0 0
0 0 0 0 0 0 0 0 0 0 0 0 0 0 0 0 0 0 14 13 11 0 0 7 81 259 357 426 764 1047 1387 1377 1059 702 654 312 2 0 92 100 54 16 8 3
0 0 0 0 0 0 0 0 0 0 0 0 0 0 0 0 0 0 0 1 0 0 0 0 2 42 158 289 606 994 1336 1454 1181 880 747 530 60 21 188 201 91 40 37 28
0 0 0 0 0 0 0 0 0 0 0 0 0 0 0 0 0 0 0 0 0 0 0 0 3 4 76 211 461 816 1205 1455 1199 976 951 248 47 4 143 122 25 6 34 61
0 0 0 0 0 0 0 0 0 0 0 0 0 0 0 0 0 0 0 0 0 0 0 0 1 69 194 291 480 713 1072 1338 1163 1025 645 272 230 27 77 1 9 11 8 60
13 0 0 0 0 0 0 0 0 0 1 0 0 0 0 0 0 0 0 0 0 0 6 64 42 75 239 497 698 794 1069 1193 1094 883 456 226 141 171 81 39 118 114 127 79
0 0 0 0 0 0 4 20 21 14 17 8 0 0 0 0 0 0 0 0 0 0 0 0 0 0 42 425 805 954 1016 1045 983 882 412 354 159 164 75 169 220 261 260 297
7 0 0 0 0 0 6 35 25 6 19 0 0 0 0 0 0 2 0 0 0 0 0 0 0 0 67 114 783 914 923 920 937 743 502 327 300 279 212 267 292 335 380 407
92 81 24 3 21 81 1 0 0 52 15 0 0 0 0 5 1 0 0 0 13 25 42 18 14 16 59 289 556 789 838 822 507 315 252 304 293 308 319 278 237 199 284 303
1 171 114 101 57 80 1 82 94 15 0 0 0 0 0 0 0 0 0 0 0 3 0 0 74 103 542 454 683 693 717 393 250 191 80 23 30 26 40 39 0 0 7 60
0 84 119 40 18 0 0 0 0 0 0 0 0 0 4 41 61 82 78 81 31 13 2 14 34 55 289 734 781 699 280 159 108 79 20 0 0 0 0 0 0 0 0 60
1 21 15 40 1 0 0 0 0 0 0 0 0 0 0 0 0 0 0 0 299 294 108 129 32 387 575 545 547 329 2 0 17 0 0 0 0 0 0 1 0 0 21 60
5 69 81 71 2 0 0 0 0 0 0 0 0 0 0 0 0 3 6 19 8 8 81 448 381 465 224 11 2 0 0 2 5 0 0 0 0 1 0 0 0 19 0 0
39 206 124 51 35 3 0 0 0 0 0 0 0 0 0 0 0 0 11 628 675 635 532 575 454 305 30 0 2 0 0 0 6 0 0 0 0 0 0 0 0 0 0 0

GFSCGP_con_mlcape_012.txt.gz
CAPE
0 0 0 0 0 0 0 6 16 23 33 33 55 88 109 193 172 159 156 170 278 341 428 432 401 527 525 586 815 870 980 1187 1237 1088 1198 1245 1228 1372 1427 1329 1299 1249 946 905
0 0 0 0 0 0 0 1 1 13 0 58 66 94 106 200 150 129 113 114 125 170 151 173 282 402 317 505 758 767 1009 1077 1092 1106 1029 1164 1321 1351 1372 1211 1130 1072 1125 985
0 0 0 0 0 0 0 0 0 0 0 26 57 50 66 149 185 141 102 65 55 69 72 90 144 303 346 376 510 588 761 811 955 936 1016 1166 1098 944 786 897 1069 1067 894 663
0 0 0 0 0 0 0 0 0 0 2 0 45 0 41 73 83 115 114 77 68 92 102 96 135 201 339 316 331 332 460 567 780 918 1128 1261 1227 813 448 587 811 863 526 308
0 0 0 0 0 0 0 0 0 0 0 2 26 1 0 74 42 65 118 104 103 83 102 119 122 139 185 258 326 237 279 367 606 803 1053 1273 1135 796 228 98 398 515 77 0
0 0 0 0 0 0 0 0 0 0 0 0 0 0 0 0 47 62 142 153 154 131 113 108 91 92 127 192 245 232 249 350 576 718 1040 1220 1160 579 284 59 74 328 0 0
0 0 0 0 0 0 0 0 0 0 0 0 0 0 0 0 30 65 96 151 187 196 209 170 116 120 163 208 254 279 283 367 607 856 1168 1236 1139 635 270 24 48 93 0 0
0 0 0 0 0 0 0 0 0 0 0 0 0 0 0 0 1 55 83 104 127 175 285 314 264 210 225 279 321 342 395 412 585 930 1132 1117 1127 486 269 0 26 0 0 0
0 0 0 0 0 0 0 0 0 0 0 0 0 0 0 0 0 0 10 57 87 111 217 387 350 314 336 362 458 415 497 617 637 851 991 733 760 464 69 0 0 0 0 0
0 0 0 0 0 0 0 0 0 0 0 0 0 0 0 0 0 0 0 1 26 65 133 341 481 469 502 511 548 615 600 620 716 840 814 583 524 238 0 0 0 0 0 0
0 0 0 0 0 0 0 0 0 0 0 0 0 0 0 0 0 0 0 0 0 8 73 201 529 641 688 646 593 726 684 825 891 828 683 465 351 6 0 0 0 0 0 0
0 0 0 0 0 0 0 0 0 0 0 0 0 0 0 0 0 0 0 0 0 0 44 111 425 655 748 710 705 845 879 915 947 893 570 393 255 12 0 0 0 0 0 0
0 0 0 0 0 0 0 0 0 0 0 0 0 0 0 0 0 0 0 0 0 0 11 68 228 480 703 718 871 1039 1094 1035 1138 970 490 357 225 56 2 0 0 0 1 0
0 0 0 0 0 0 0 0 0 0 0 0 0 0 0 0 0 0 0 0 0 6 17 54 97 251 427 531 689 998 1200 1226 1188 880 584 466 346 226 44 0 1 0 0 0
0 0 0 0 0 0 0 0 0 0 0 0 0 0 0 0 0 0 0 0 0 0 0 24 78 159 285 386 468 625 883 1166 1199 863 621 585 388 68 34 6 1 5 3 6
0 0 0 0 0 0 0 0 0 0 0 0 0 0 0 0 0 0 0 0 0 0 5 7 27 92 165 261 361 510 724 939 1206 947 750 482 159 46 7 0 1 54 80 34
0 0 0 0 0 0 0 0 0 0 0 0 0 0 0 0 0 0 0 0 2 17 11 12 11 20 28 67 182 351 536 848 1127 1042 806 418 115 65 0 6 0 84 94 0
0 0 0 0 0 0 0 0 0 0 0 0 0 0 0 0 0 0 0 0 0 0 0 16 9 0 3 48 117 238 432 710 994 1049 921 476 182 86 3 3 0 0 13 0
0 0 0 0 0 0 0 0 0 0 0 0 0 0 0 0 0 0 0 0 0 0 1 46 58 0 0 9 200 341 528 794 960 984 847 607 327 185 86 71 0 3 32 24
0 0 0 0 0 0 0 0 0 3 11 1 0 0 0 0 0 0 0 0 0 0 0 8 0 0 0 5 258 320 421 767 900 849 702 563 464 402 276 38 22 18 27 51
0 0 0 0 3 5 0 0 0 39 2 0 0 0 0 0 0 0 0 0 0 0 0 0 4 1 46 200 339 376 437 593 754 594 433 397 352 312 221 58 78 80 80 94
0 0 2 64 68 120 0 27 46 2 0 0 0 0 0 0 5 10 0 10 3 0 0 6 0 0 15 206 423 475 671 479 450 359 282 222 149 91 10 4 0 2 2 5
0 0 13 0 5 0 0 0 0 0 8 5 3 0 0 0 0 0 0 1 0 0 1 50 66 114 152 277 445 450 288 248 242 125 42 22 14 21 25 2 0 0 0 0
79 37 32 2 0 0 0 0 0 0 0 0 0 0 0 0 0 0 0 10 29 11 19 22 8 7 24 158 170 236 184 212 125 11 2 0 4 0 0 0 0 0 0 0
98 115 40 6 1 0 0 0 0 0 0 0 0 0 0 0 0 0 0 136 346 349 288 168 114 178 272 158 126 139 188 183 100 41 4 12 5 0 0 0 0 0 0 0
3 141 41 1 1 14 0 0 0 0 0 0 0 0 0 0 0 0 0 0 198 332 327 251 192 287 185 256 291 200 147 109 10 0 0 0 0 0 0 0 0 0 0 0

GFSCGP_con_mlcape_015.txt.gz
CAPE
0 0 0 0 0 0 0 1 35 50 44 38 59 54 158 263 325 360 561 692 599 591 724 889 1014 1076 1137 1210 1216 1258 1401 1445 1651 1628 1593 1500 1438 1804 1569 1062 1231 1431 1312 1438
0 0 0 0 0 0 0 0 35 19 42 48 44 49 88 226 230 267 329 511 608 599 754 895 921 838 937 1083 1056 1221 1334 1413 1537 1751 1741 1656 1785 1839 1814 1835 1989 1833 1703 1570
0 0 0 0 0 0 0 0 16 12 21 40 51 9 21 114 266 239 230 258 302 354 463 546 642 725 799 883 1028 1129 1224 1319 1502 1701 1785 1666 1575 1509 1563 1659 1570 1629 1662 1630
0 0 0 0 0 0 0 0 35 39 27 0 35 2 30 86 118 226 234 221 205 202 268 289 326 538 743 730 840 963 1175 1260 1437 1641 1511 1407 1338 1509 1560 1203 1349 1674 1499 1327
0 0 0 0 0 0 0 0 0 26 46 9 9 1 0 14 42 76 185 268 207 164 174 183 232 350 543 616 663 782 1051 1142 1290 1470 1461 1479 1558 1681 1597 857 1053 1558 1076 953
0 0 0 0 0 0 0 0 0 0 5 0 0 0 0 0 29 65 127 201 206 163 162 189 208 224 370 527 564 666 778 847 959 1185 1392 1441 1487 1668 1290 680 443 933 742 376
0 0 0 0 0 0 0 0 0 0 0 0 0 0 0 0 9 30 73 109 139 144 135 156 236 254 368 446 565 609 701 762 788 993 1201 1342 1410 1706 1356 717 489 389 400 309
0 0 0 0 0 0 0 0 0 0 0 0 0 0 0 0 14 33 86 110 126 132 149 188 285 307 383 439 538 604 637 754 769 803 974 1261 1500 1732 1450 898 539 257 361 226
0 0 0 0 0 0 0 0 0 0 0 0 0 0 0 0 0 0 13 62 91 159 219 228 371 378 470 508 539 627 687 750 783 852 1074 1287 1525 1609 1321 858 592 205 283 86
0 0 0 0 0 0 0 0 0 0 0 0 0 0 0 0 0 0 0 8 59 140 262 394 543 524 554 678 719 759 805 810 804 932 1131 1249 1415 1292 1306 784 329 34 165 50
0 0 0 0 0 0 0 0 0 0 0 0 0 0 0 0 0 0 0 0 12 98 146 314 674 671 630 731 817 867 924 969 997 873 1054 1187 1234 1133 744 547 217 17 26 34
0 0 0 0 0 0 0 0 0 0 0 0 0 0 0 0 0 0 0 0 0 7 70 353 705 820 776 838 866 915 1027 1098 1115 1028 1075 1166 869 621 659 343 7 2 4 0
0 0 0 0 0 0 0 0 0 0 0 0 0 0 0 0 0 0 0 0 0 0 25 274 585 855 931 949 998 1036 1161 1230 1343 1376 1269 1092 690 551 389 492 22 65 19 53
0 0 0 0 0 0 0 0 0 0 0 0 0 0 0 0 0 0 0 0 0 1 26 175 367 708 909 1020 1152 1180 1271 1386 1445 1500 1563 1163 663 559 525 14 4 0 17 3
0 0 0 0 0 0 0 0 0 0 0 0 0 0 0 0 0 0 0 0 1 17 41 116 203 381 734 1031 1153 1279 1394 1525 1517 1650 1713 1280 834 474 149 60 0 0 0 0
0 0 0 0 0 0 0 0 0 0 0 0 0 0 0 0 0 0 0 4 1 31 45 130 208 332 504 721 882 1068 1277 1521 1692 1735 1685 1345 876 405 188 49 0 0 0 0
30 1 0 0 0 0 0 0 0 0 0 0 0 0 0 0 0 0 0 0 2 83 99 121 224 375 506 531 727 757 961 1221 1535 1684 1654 1277 839 415 290 101 0 0 0 0
14 10 0 0 0 0 0 0 0 0 0 0 0 0 0 0 0 0 0 0 24 105 181 208 174 224 279 329 453 666 890 1069 1311 1579 1546 1221 702 572 320 182 4 0 0 0
24 0 24 0 7 0 0 0 0 0 0 0 0 0 0 0 0 0 0 0 1 7 52 58 125 146 151 149 263 434 611 875 1195 1479 1491 1075 726 680 425 276 25 0 0 1
1 2 12 1 0 0 0 0 0 0 0 0 0 0 0 0 0 11 0 0 0 0 98 157 135 139 128 146 279 413 507 810 1015 1288 1367 1077 849 739 560 256 71 55 37 43
50 46 29 129 22 0 0 0 32 0 0 0 0 0 0 0 5 0 0 15 59 81 116 125 181 206 303 361 447 445 595 670 1157 1310 1356 1093 849 669 348 229 167 197 117 32
129 79 6 5 54 45 0 26 103 23 0 0 0 0 4 30 67 46 71 65 88 86 123 132 73 103 258 329 402 370 575 793 960 1003 1011 864 815 620 390 289 239 213 112 156
111 121 31 0 10 0 0 0 0 78 63 50 45 30 25 23 28 43 38 35 81 176 154 268 129 181 271 376 597 432 409 618 727 817 750 727 704 681 607 620 560 349 273 113
148 104 2 1 1 0 0 0 0 0 0 0 0 1 0 13 89 267 267 291 293 292 221 250 175 159 262 429 544 461 484 600 715 714 671 671 655 559 471 358 261 102 12 0
79 85 8 0 14 0 0 0 0 0 0 0 0 0 0 0 0 17 247 362 430 395 281 249 155 82 144 344 451 510 520 521 627 609 506 575 618 429 22 0 1 0 0 0
1 43 56 4 23 45 8 0 0 0 0 0 0 0 0 0 0 0 0 0 7 96 284 345 386 305 319 416 381 407 352 289 384 298 199 138 5 0 0 0 0 0 0 0

GFSCGP_con_mlcape_018.txt.gz
CAPE
0 0 0 0 0 0 0 1 7 11 130 171 100 31 279 521 460 394 427 453 284 179 237 620 859 889 924 1266 1452 1518 1553 1620 1935 1922 1576 1366 1184 1276 1600 1483 1439 1645 1774 1608
0 0 0 0 0 0 0 0 16 68 151 136 119 108 93 225 480 366 353 452 518 262 300 623 879 979 998 1235 1492 1729 1827 1945 2201 1908 1616 1496 1319 1230 1419 1732 1625 1944 1748 1722
0 0 0 0 0 0 0 0 1 48 130 146 86 116 123 77 229 401 358 249 516 405 354 446 608 862 994 1161 1499 1678 1991 2118 2323 2090 1993 2076 2037 1894 1669 1271 1302 1372 1869 1854
0 0 0 0 0 0 0 0 0 49 85 47 90 22 19 34 73 267 463 306 225 471 532 514 567 692 939 1036 1313 1709 2001 2253 2391 2465 1888 1898 1448 900 596 683 472 602 1466 1190
0 0 0 0 0 0 0 0 0 34 52 81 99 48 30 59 95 170 443 443 145 115 212 428 453 444 711 906 1100 1421 1953 2270 2300 2332 2251 1921 1897 1013 908 881 800 840 1142 1119
0 0 0 0 0 0 0 0 0 3 64 71 68 62 4 15 82 80 171 403 276 69 72 84 120 239 495 739 941 1124 1655 2250 2420 2341 2429 2190 1746 1513 943 1113 680 535 725 1051
0 0 0 0 0 0 0 0 0 7 14 28 49 25 0 0 3 26 18 190 372 99 55 69 84 93 309 583 762 954 1497 2129 2367 2257 2131 2313 2239 2111 1917 1824 717 158 335 212
0 0 0 0 0 0 0 0 0 5 5 9 11 0 0 10 3 0 18 58 228 306 78 66 94 184 314 583 872 1138 1456 1932 2216 2082 2056 2257 2369 2190 1958 1971 558 220 46 104
0 0 0 0 0 0 0 0 0 9 13 8 0 0 0 1 1 0 7 50 127 379 267 100 179 302 496 756 1126 1438 1717 1951 2074 1921 2095 2175 2377 2264 1594 1639 1750 540 288 127
0 0 0 0 0 0 0 0 0 0 5 5 0 1 0 0 0 0 0 27 94 198 373 272 172 400 612 839 1132 1452 1851 2016 1987 1865 1954 1939 2025 2246 2076 2220 1861 775 680 337
0 0 0 0 0 0 0 0 0 0 0 1 2 0 0 0 0 0 0 13 62 117 297 464 434 393 792 944 1130 1488 1711 1926 2023 1948 1935 1917 1795 1934 2256 2268 2007 1346 897 625
0 0 0 0 0 0 0 0 0 0 0 0 0 0 0 0 0 0 0 0 0 36 118 424 641 715 757 1027 1143 1443 1596 1759 1924 1922 2108 2013 1911 1872 1871 2291 1766 1065 678 517
0 0 0 0 0 0 0 0 0 0 0 1 0 0 0 0 0 0 0 0 2 139 128 384 604 875 1056 1148 1401 1406 1650 1709 1800 1977 2060 1986 1919 1912 1836 2013 1395 822 328 177
0 0 0 0 0 0 0 0 0 0 0 0 0 4 0 0 0 0 0 0 4 116 273 418 626 942 1301 1378 1680 1792 1606 1655 1790 1892 2062 2196 2156 2034 1624 1839 929 412 33 0
0 0 0 0 0 0 0 0 0 0 0 0 0 0 0 0 0 0 0 0 1 246 335 497 760 1038 1512 1630 1807 1937 1864 1853 1799 1949 2093 2246 2347 2214 1705 1441 820 401 42 0
0 0 0 0 0 0 0 0 0 0 0 0 0 0 0 0 0 0 0 0 0 149 507 562 943 1211 1644 1823 2079 2065 2025 1960 2027 2072 2198 2287 2557 2296 1751 1375 693 269 162 2
0 0 24 1 46 17 0 0 0 0 0 0 0 0 0 0 0 0 0 2 4 62 432 529 693 1227 1619 1909 2111 2162 2140 2087 2180 2285 2318 2445 2614 2173 1626 1173 704 478 226 24
42 25 32 34 116 67 0 0 0 0 0 0 0 0 0 0 0 0 0 18 35 112 333 751 865 1143 1630 1619 1760 1841 1946 2094 2247 2448 2482 2519 2462 2074 1384 1025 740 631 289 8
0 109 60 66 99 71 31 123 24 0 0 0 0 0 0 0 0 0 0 33 94 215 479 989 942 1106 1379 1260 1505 1710 1688 1866 2032 2282 2463 2456 2213 1920 1310 1095 720 544 333 65
0 26 61 115 74 85 439 100 137 164 2 0 0 0 0 0 0 0 152 24 7 169 603 648 702 813 1005 1063 1233 1489 1571 1798 1961 2205 2340 2368 2139 1887 1503 1230 866 562 375 66
36 93 5 184 178 146 194 38 274 105 17 64 55 0 0 0 0 182 188 212 282 466 750 819 911 1042 1121 1034 1274 1386 1620 1757 1920 2106 2322 2396 2050 1906 1471 1285 1070 441 102 28
126 111 36 237 193 120 150 226 352 355 359 201 102 126 24 162 129 350 460 499 581 654 786 914 1033 1187 1326 1572 1777 1736 1777 2144 2247 2267 2342 2167 1637 1576 1493 1166 738 486 373 307
190 147 195 193 190 138 97 108 159 404 396 464 383 229 281 301 403 518 613 637 599 576 560 703 863 1057 1439 1717 1549 1031 1519 2029 1970 1858 1749 1363 1290 1208 1139 901 772 757 758 617
640 683 436 280 131 117 101 0 0 7 103 173 361 394 366 346 361 419 462 503 558 607 625 803 862 706 737 1097 1323 1338 1566 1759 1827 1264 1163 1131 1047 848 773 888 925 879 978 820
177 586 518 308 105 79 0 0 0 0 0 0 5 36 225 551 704 792 825 730 722 680 616 609 502 454 596 1086 1142 1261 1336 1521 1620 1461 1322 1235 1093 870 302 5 0 355 73 67
4 133 376 215 102 163 2 0 0 0 0 0 0 0 4 4 13 21 121 334 508 863 871 761 922 1062 1205 1491 1506 1435 1428 1495 1214 1135 1139 1004 673 354 288 191 2 0 0 0

GFSCGP_con_mlcape_021.txt.gz
CAPE
0 0 0 0 0 0 11 53 10 24 9 22 62 106 173 353 326 66 0 12 20 32 230 350 520 433 497 623 981 1087 1215 1461 1384 1504 1661 1484 1391 1226 1082 1257 1406 1863 1913 1730
0 0 0 0 0 0 0 19 40 17 44 5 66 94 210 325 373 296 118 20 17 15 35 228 511 447 609 766 1111 1451 1572 1876 1866 1904 1594 1372 904 609 924 1540 1713 1934 1708 1659
0 0 0 0 0 0 0 2 37 45 95 82 110 54 118 153 342 331 254 102 52 10 16 85 422 594 726 762 1145 1747 2036 2271 2277 2104 1807 1744 1591 1046 1235 541 1010 1598 1404 1495
0 0 0 0 0 0 0 0 9 44 39 48 23 129 87 75 73 232 382 339 119 75 33 43 344 654 719 835 1206 1752 2286 2508 2511 2540 1880 1539 1409 903 453 359 497 501 632 658
0 0 0 0 0 0 0 0 6 28 69 112 67 59 40 22 26 45 221 372 305 99 94 50 156 403 642 820 1106 1537 2370 2772 2670 2675 2068 1750 1442 677 685 540 854 533 968 757
0 0 0 0 0 0 0 0 16 25 40 46 119 60 42 3 44 85 97 231 453 268 139 234 147 244 451 636 900 1184 2225 2890 3106 2949 2812 2452 2219 1101 976 918 920 465 678 615
0 0 0 0 0 0 0 0 9 14 31 18 72 64 25 64 91 66 53 78 209 519 124 114 217 248 407 592 867 1046 1933 2943 3318 2962 2773 2632 2579 2278 1692 1743 991 528 448 562
0 0 0 0 0 0 0 0 0 2 17 20 30 32 56 79 21 70 53 48 72 399 377 105 120 132 201 431 968 1177 1681 2729 3178 3101 3094 3049 2968 2148 1803 1584 1234 392 252 361
0 0 0 0 0 0 0 0 0 6 32 41 30 26 16 22 29 67 25 1 23 218 439 178 138 118 108 367 874 1280 1528 2453 2949 3015 3356 3154 3071 2665 1571 1563 1801 1245 463 161
0 0 0 0 0 0 0 0 0 0 14 33 35 25 20 41 6 9 19 2 7 18 209 320 157 149 146 223 614 1149 1543 2508 2908 2912 3265 3042 3048 3072 2681 2377 2329 1689 882 355
0 0 0 0 0 0 0 0 0 0 1 17 38 35 22 24 12 0 0 0 13 19 118 376 320 246 292 247 370 946 1675 2227 2775 2822 2938 2792 2889 2715 2951 2509 2431 2247 1441 1051
0 0 0 0 0 0 0 0 0 1 0 2 16 31 23 0 10 2 12 25 24 8 37 106 357 388 425 572 489 779 1263 1737 2464 2592 3036 2961 2939 2599 2571 2698 2541 2683 1857 1404
0 0 0 0 0 0 0 0 0 0 0 0 6 0 0 0 10 1 4 0 0 0 9 32 165 441 667 953 963 976 1350 1328 1804 2512 2683 3025 3036 2770 2474 2780 2658 2718 2252 1377
0 0 0 0 0 0 0 0 0 0 0 0 0 9 37 11 4 0 0 0 1 0 52 107 66 266 870 1116 1457 1550 1564 1507 1730 2104 2289 2684 3139 3039 2753 2717 2810 2893 2204 1421
0 0 0 0 0 2 0 0 0 0 0 0 0 10 8 19 18 7 0 0 0 0 2 228 349 264 1311 1507 1873 1876 2072 2049 1911 2343 2535 2791 3180 3124 3016 2552 2715 2808 2013 1471
0 0 0 0 0 0 0 0 0 0 0 0 0 0 0 9 24 14 0 0 0 0 0 132 635 712 1347 1726 2236 2498 2337 2307 2273 2700 2743 2990 3416 3173 3057 2837 2522 2591 2034 1123
0 0 0 0 2 19 10 0 0 0 0 0 0 0 0 0 0 6 4 0 0 0 0 0 637 1059 1569 1843 2334 2476 2696 2611 2608 2789 2918 3154 3469 3422 3277 2967 2677 2462 1760 1168
0 1 5 11 32 52 0 4 0 3 4 4 3 0 0 0 0 0 0 0 0 0 0 0 448 1028 1549 1805 2099 2456 2511 2822 2994 2935 3119 3270 3531 3553 3305 2799 2571 2203 1546 1274
3 8 11 24 28 51 22 152 157 160 9 3 4 2 0 0 0 0 0 0 0 0 12 22 336 944 1474 1923 2366 2721 2718 2770 2976 3072 3232 3318 3383 3581 3143 2567 2297 1868 1541 1284
3 56 90 67 62 84 128 437 343 255 0 5 61 34 3 0 0 0 0 0 0 4 101 165 283 980 1418 2069 2222 2732 2806 2951 3067 3138 3121 3317 3392 3232 2855 2531 2204 1821 1602 1224
0 2 21 93 104 78 569 154 278 84 119 707 546 332 242 102 0 0 52 0 1 108 270 755 1257 1235 2147 2178 2185 2716 2602 2653 2650 2533 2707 2998 2969 2945 2700 2094 1965 1569 1272 1034
0 0 0 41 113 164 485 296 251 769 890 786 822 556 276 304 75 6 460 478 482 469 557 911 1192 1465 1919 2166 2503 2523 2413 2522 2472 2573 2763 2977 2924 2630 2467 2140 1909 1348 1179 804
0 0 12 59 54 653 493 594 484 579 729 809 857 700 574 628 573 592 718 863 1030 1144 1170 1358 1746 1833 1783 2104 2338 2386 2923 2851 2800 2854 2969 2916 2622 2356 2074 1888 1220 931 856 811
66 17 91 549 565 268 242 88 254 294 407 919 925 947 857 1019 1085 1148 1070 1009 1099 1305 1449 1626 1752 1929 2212 2542 3038 3288 3027 3044 2879 2986 2360 1932 1709 1650 1346 1098 989 791 729 920
15 40 235 627 324 84 64 58 55 53 105 550 845 1193 1199 1165 1072 974 870 821 824 951 949 1113 1385 1627 1898 2166 2205 2328 2521 2571 2331 1960 1545 1331 1160 1200 870 228 591 1095 206 578
1 0 28 76 310 239 3 0 0 2 4 41 67 171 159 317 561 601 843 1104 774 588 651 768 1147 1542 1843 2035 2074 2150 2221 2107 1861 1818 1669 1448 1052 958 779 497 38 0 0 0

GFSCGP_con_mlcape_024.txt.gz
CAPE
0 0 0 0 0 0 0 0 0 4 0 0 68 131 0 0 66 0 18 0 30 75 118 261 298 359 450 689 1050 1047 1237 1175 2212 2165 1744 1440 1544 1599 1247 1585 1221 1554 1962 1983
0 0 0 0 0 0 0 0 9 9 13 13 5 212 150 163 167 21 0 0 0 11 70 223 378 433 482 651 893 1375 1234 1909 1400 1667 1726 1615 1312 1718 1250 1170 1191 1556 1936 1720
0 0 0 0 0 0 0 0 0 5 9 6 4 9 17 151 176 140 73 0 0 0 5 220 417 468 545 714 1142 1362 1451 1896 1592 1936 1671 1431 1749 1988 1493 1727 1350 1851 2058 1753
0 0 0 0 0 0 0 0 0 0 11 0 21 35 23 62 268 109 53 60 27 5 0 25 309 637 558 780 1250 1755 1836 1726 2558 1395 2097 1416 1475 1325 461 550 1487 2040 1552 1352
0 0 0 0 0 0 0 0 0 0 0 46 62 5 8 63 264 165 87 48 37 48 13 5 112 398 558 864 1243 1977 2228 2343 2462 2428 2103 2131 1777 641 1117 822 842 1545 1005 808
0 0 0 0 0 0 0 0 0 0 0 0 26 13 25 41 5 10 51 85 206 130 69 20 29 250 590 776 1157 1525 2593 2574 2460 2721 2136 1909 1967 1089 1041 1059 999 692 1062 947
0 0 0 0 0 0 0 0 0 0 0 0 23 54 30 52 16 4 3 18 193 288 143 112 70 208 698 802 1031 1621 2567 2790 2820 2756 3079 1861 2279 1796 1123 1784 1304 770 641 760
0 0 0 0 0 0 0 0 0 0 0 1 0 0 15 41 5 1 8 0 71 188 288 252 285 190 701 781 1021 1460 2451 2813 3181 2706 3292 3096 1975 2879 2114 1586 1822 993 812 914
0 0 0 0 0 0 0 0 0 0 0 1 6 7 4 61 16 1 0 1 27 214 404 357 472 537 544 880 1010 1256 2249 2797 3245 3375 3112 3470 2951 2191 2634 1807 1779 1458 513 1231
0 0 0 0 0 0 0 0 0 0 0 0 0 1 11 49 6 7 3 16 4 156 251 464 282 509 674 914 1144 1440 1745 2749 3422 3507 3470 3324 3446 2735 2407 2264 1875 1246 1669 776
0 0 0 0 0 0 0 0 0 0 0 0 0 2 33 68 109 42 11 1 5 2 223 482 390 343 453 666 1064 1429 1607 2693 3390 3516 3525 3508 3505 3479 2751 2541 2169 2215 1455 1031
0 0 0 0 0 0 0 0 0 0 0 0 0 0 15 17 122 121 16 4 14 0 1 146 532 464 474 457 790 1259 1712 1945 2981 3361 3382 3566 3592 3543 3400 2462 2897 2592 2266 1940
0 0 0 0 0 0 0 0 0 0 0 0 0 0 0 19 0 0 24 1 2 4 35 85 265 490 587 542 674 996 1366 1718 2554 3085 3225 3545 3459 3395 3296 3246 2502 2848 2586 2020
0 0 0 0 0 0 0 0 0 0 0 0 0 0 0 60 3 2 0 1 35 3 7 15 120 626 614 691 721 814 1105 1508 1935 2830 2983 3122 3371 3287 3191 3217 3167 2868 2990 2411
0 0 0 0 0 0 0 0 0 0 0 0 0 0 0 3 66 23 16 2 2 2 93 78 30 47 942 1030 989 995 1174 1447 1799 2414 2858 3139 3440 3480 3410 3054 3257 2974 3281 2866
0 0 0 0 0 0 3 0 0 0 0 0 0 0 0 2 46 27 1 7 0 19 29 264 151 102 345 1538 1450 1288 1370 1530 1655 1914 2680 2960 3310 3703 3580 3314 3106 3270 3168 3107
0 0 0 0 0 0 0 0 0 0 0 0 0 0 0 0 0 1 160 52 84 19 1 7 323 567 685 1324 1986 1760 1662 2014 1873 2329 2571 2842 3136 3579 3708 3618 3193 3252 3111 3063
6 0 0 0 1 8 0 0 0 4 5 0 0 0 0 0 0 0 0 0 3 70 2 23 0 654 1207 1281 2254 2635 2223 2316 2647 2481 3045 3154 3448 3796 3832 3615 3434 3065 3294 3109
1 6 0 0 1 0 0 0 5 11 0 0 0 0 0 0 0 0 0 0 0 0 54 72 19 35 819 1317 2013 2561 3061 2693 2800 2970 3449 3463 3888 4180 3930 3780 3530 3434 3161 2917
0 55 20 0 4 0 0 25 188 180 32 135 232 36 10 66 28 0 0 0 0 0 0 26 0 0 179 1326 2154 2739 2850 3261 3056 3346 3221 3869 4300 4189 4111 3971 3755 3435 2991 2399
1 1 0 9 1 0 192 370 258 262 126 761 710 603 406 233 187 343 230 160 0 42 0 0 311 433 1554 1760 2398 2919 3165 3337 3433 3697 3716 4001 3961 4204 4278 3794 3268 2925 2421 2027
6 8 32 79 56 49 321 219 70 574 843 796 810 736 688 591 422 312 306 248 338 400 143 326 412 1725 2632 2361 2910 3343 3456 3568 3659 3763 3794 3956 4065 3955 3674 3180 2639 2444 2110 1758
0 0 2 51 74 268 512 736 674 781 852 842 723 507 484 412 349 227 912 913 740 1046 1300 880 1271 2855 3145 3342 3511 3511 3666 3587 3511 3445 3608 3739 3697 3284 3087 2645 2215 1999 1702 1186
30 46 1 24 496 766 542 376 492 528 744 1290 1227 1106 1085 746 1223 1354 1321 1252 1370 1819 2071 2481 2491 2733 3039 3416 3502 3570 3221 3212 3306 3615 3597 3180 2690 2415 2179 1749 1462 1289 1128 995
190 128 167 31 733 399 304 259 268 659 865 930 791 1300 1197 1430 1411 1449 1460 1547 1793 2055 2316 2573 2694 2930 3418 3689 3655 3678 3519 3516 3395 2816 2559 2353 1979 1779 1000 393 666 984 426 632
2 49 191 331 285 283 161 173 217 101 169 346 371 503 380 207 226 264 916 1254 1160 1474 1889 2052 2199 2437 2664 2714 2661 2810 3086 2717 2328 1997 1743 1536 1490 987 489 292 88 0 0 0

GFSCGP_con_mlcape_027.txt.gz
CAPE
0 0 0 0 0 0 0 0 0 0 11 0 0 0 0 2 0 0 74 42 74 73 77 168 178 417 449 575 732 632 825 1417 1279 1293 1108 1116 1498 1485 1446 1375 1693 1353 1409 1393
0 0 0 0 0 0 0 0 0 0 3 2 3 1 2 0 0 0 0 28 43 71 47 138 187 257 444 517 691 684 662 1202 1476 1300 1219 1375 1102 1140 1207 1104 1039 1112 1397 1505
0 0 0 0 0 0 0 0 0 0 9 3 15 15 0 0 0 8 6 5 34 52 61 111 168 212 314 458 729 801 807 1170 1563 1618 1494 1277 1154 969 1479 1369 1223 1543 1602 1515
0 0 0 0 0 0 0 0 0 0 0 0 43 15 30 13 0 7 1 0 2 28 61 80 222 251 282 483 711 807 906 1113 1292 1598 1383 1241 978 1277 1361 1344 1097 1043 1373 1465
0 0 0 0 0 0 0 0 0 0 0 1 0 0 19 76 67 57 0 0 0 0 22 87 251 227 370 478 677 968 860 1176 1189 1231 1385 984 986 885 1173 826 1064 1371 1588 965
0 0 0 0 0 0 0 0 0 0 0 0 0 1 0 38 87 88 104 41 0 0 0 23 132 324 338 581 907 1164 1058 999 1500 1154 1229 1585 1288 1314 607 634 906 1391 1228 972
0 0 0 0 0 0 0 0 0 0 0 0 1 1 0 26 29 175 150 58 45 0 0 0 110 378 387 589 922 1336 1284 1228 1439 1623 1332 1343 1851 1444 1179 1174 812 838 606 569
0 0 0 0 0 0 0 0 0 0 0 0 0 0 2 15 25 147 69 8 7 29 0 0 1 204 503 507 941 1714 1670 1529 1752 1717 1587 1493 1609 2112 1252 1223 1071 506 616 545
0 0 0 0 0 0 0 0 0 0 0 0 0 0 0 0 15 30 21 16 2 2 85 9 9 63 383 521 939 1218 2050 1849 1956 2130 1894 1716 1500 1460 2273 1474 1405 848 381 625
0 0 0 0 0 0 0 0 0 0 0 0 0 0 0 3 44 19 29 29 26 1 0 74 17 52 326 531 812 1259 2146 2131 2219 1996 2351 2220 1905 1789 1717 2397 1559 1601 943 964
0 0 0 0 0 0 0 0 0 0 0 0 0 0 0 0 64 47 18 20 14 0 68 84 116 75 355 631 823 1180 1959 2331 2530 2442 2231 2530 2460 2231 1800 1915 2169 1307 1516 990
0 0 0 0 0 0 0 0 0 0 0 0 0 0 0 0 161 111 41 26 2 0 0 34 273 340 427 684 842 1149 2043 2288 2558 2757 2621 2352 2626 2825 2215 1798 1938 1879 1293 1479
0 0 0 0 0 0 0 0 0 0 0 0 0 0 0 0 115 25 1 0 17 1 8 345 286 463 580 839 922 1173 1764 2276 2645 2860 2908 2793 2632 2810 2697 2169 2039 1915 1825 1366
2 0 0 0 0 0 0 0 0 0 0 0 0 0 0 0 29 86 59 67 0 5 1 153 363 314 622 773 1060 1190 1424 2281 2613 2936 2915 2849 2912 2848 2877 2985 2396 2458 2276 1973
0 0 0 0 0 0 0 0 0 0 0 0 0 0 0 0 14 31 69 29 0 7 42 15 385 367 428 626 854 1128 1486 1558 2517 2761 2835 2736 2966 3115 3101 3042 3100 2336 2658 2438
0 0 0 0 0 0 0 0 0 0 0 0 0 0 0 0 75 122 116 43 22 5 3 81 356 486 442 466 669 878 1243 1619 1768 2454 2567 2820 2885 3237 3158 3090 3090 3093 2451 2747
0 0 0 0 0 0 0 0 0 0 0 0 0 0 0 0 0 47 173 75 26 1 120 53 59 544 590 584 595 819 982 1291 1640 1842 2558 2731 2870 2997 3169 3216 3104 3136 2974 2882
0 0 0 0 1 2 0 0 0 0 0 0 0 0 0 0 0 0 0 0 0 0 13 103 166 201 811 887 813 789 999 1199 1468 1685 2038 2566 2752 2909 3274 3386 3259 3118 3159 3028
0 0 0 2 0 0 0 0 0 0 0 1 0 0 0 0 0 0 0 0 0 0 0 6 342 539 415 1279 1346 1081 1067 1391 1393 1735 1990 2500 2807 2999 3336 3517 3481 3239 3184 3141
0 0 0 1 0 0 0 0 0 28 3 124 18 15 0 0 0 0 175 57 37 7 0 0 11 0 719 909 1787 1789 1484 1679 1626 1692 2143 2399 2803 3051 3407 3630 3580 3371 3212 3121
0 0 0 0 0 0 0 1 7 45 90 532 394 325 154 4 162 145 41 13 64 425 194 0 0 0 134 715 1830 2204 2036 1828 2203 2361 2629 3007 3151 3509 3756 3668 3608 3462 3151 2893
35 0 0 9 0 3 75 59 212 651 796 648 571 502 278 292 158 14 5 107 55 709 558 358 0 0 0 304 1545 1942 2453 2480 2540 3360 3279 3733 3992 3996 3923 3767 3477 3058 2938 2782
14 0 0 0 112 316 608 781 959 955 746 737 588 921 304 538 768 1343 1235 1193 1148 1292 1731 2369 2535 2498 2560 1958 1567 2084 3088 3536 3585 3505 3799 4001 4071 4013 3661 3342 2827 2556 2223 1907
0 31 13 63 27 7 0 316 440 1132 1261 1354 1363 1404 1245 1275 1452 1388 1610 2062 2359 2439 2407 2863 2708 3105 3670 3777 3643 3679 3770 3742 3748 3774 3730 3239 3027 2900 2622 2157 2263 1904 1669 1447
1 0 36 66 317 629 669 312 3 17 589 641 622 735 861 1073 1027 1198 1502 1900 2249 2522 2945 3448 3430 3455 3646 3816 3857 3837 3740 3654 3557 3124 2684 2286 1966 1680 1016 597 890 1290 680 996
8 0 65 110 11 60 1 5 335 502 602 295 286 305 265 330 426 701 935 1466 1896 2263 2398 2490 3032 3316 3471 3388 3226 3029 2985 2993 2852 2338 2073 1478 1157 878 608 436 157 0 1 36

GFSCGP_con_mlcape_030.txt.gz
CAPE
0 0 0 0 0 0 0 0 0 0 0 6 15 0 0 271 299 364 376 356 272 161 194 101 457 445 383 221 563 737 770 633 428 442 373 338 289 443 936 963 790 951 1061 1235
0 0 0 0 0 0 0 0 0 0 0 0 9 1 0 20 108 133 201 233 218 160 149 163 221 435 430 313 638 688 759 741 617 739 585 575 508 754 828 1025 1182 1253 1084 1218
0 0 0 0 0 0 0 0 0 0 0 0 10 12 0 0 6 31 73 111 147 79 62 115 148 297 414 275 555 551 656 879 813 928 915 850 749 1027 1183 1098 1094 1029 1171 1232
0 0 0 0 0 0 0 0 0 0 0 0 3 0 0 0 0 0 6 49 88 61 29 40 114 194 289 323 367 411 530 923 982 1072 1061 904 874 798 692 798 1164 908 1066 1237
0 0 0 0 0 0 0 0 0 0 0 0 0 0 0 13 0 0 0 41 55 49 42 8 65 93 222 263 388 457 469 909 1058 1119 1123 964 887 827 481 760 1313 1044 1169 1263
0 0 0 0 0 0 0 0 0 0 0 0 0 0 0 0 1 0 0 0 31 22 21 2 45 57 101 263 417 518 566 816 1023 1152 1166 1087 987 816 489 906 969 1035 1153 1130
0 0 0 0 0 0 0 0 0 0 0 0 0 0 0 0 0 4 0 0 0 0 0 1 12 44 63 204 406 608 640 811 980 1181 1143 1083 999 730 589 587 885 817 930 976
0 0 0 0 0 0 0 0 0 0 0 0 0 0 0 0 0 0 5 0 0 0 0 1 9 38 51 172 453 721 676 764 953 954 1163 1165 1074 808 1000 928 827 727 845 967
0 0 0 0 0 0 0 0 0 0 0 0 0 0 0 0 0 0 27 11 1 0 0 2 27 52 75 227 488 709 754 723 1018 1005 906 1004 1203 1173 1239 1189 930 890 760 580
0 0 0 0 0 0 0 0 0 0 0 0 0 0 0 0 0 3 41 43 16 0 0 0 0 25 120 157 449 829 914 808 895 1170 1178 1166 1044 1104 1456 1480 1291 722 501 470
0 0 0 0 0 0 0 0 0 0 0 0 0 0 0 0 0 0 4 59 82 18 2 0 0 2 95 246 521 1033 1127 1035 1144 1257 1345 1366 1376 1159 1060 1697 1746 1326 712 581
0 0 0 0 0 0 0 0 0 0 0 0 0 0 0 0 0 0 0 42 54 30 15 1 15 2 42 297 450 884 1490 1340 1373 1537 1565 1489 1546 1586 1269 1079 1554 1789 1345 729
0 0 0 0 0 0 0 0 0 0 0 0 0 0 0 0 0 0 11 4 0 3 2 0 22 5 22 203 439 900 1452 1624 1679 1783 1765 1854 1880 1909 1722 1376 1385 1534 1833 1359
0 0 0 0 0 0 0 0 0 0 0 0 0 0 0 0 0 0 0 67 56 17 1 1 2 37 55 274 456 769 1154 1841 1918 2117 1886 1842 2017 2178 2103 1917 1604 1527 1609 1596
0 0 0 0 0 0 0 0 0 0 0 0 0 0 0 0 0 0 0 59 45 47 1 0 0 22 110 372 561 762 1170 1827 2076 2276 2344 2086 2070 2168 2426 2367 2080 1809 1698 1830
0 0 0 0 0 0 0 0 0 0 0 0 0 0 0 0 0 0 0 9 15 22 14 0 0 32 202 443 662 800 1033 1770 2123 2341 2371 2493 2472 2391 2382 2552 2512 2177 2030 1905
0 0 0 0 0 0 0 0 0 0 0 0 0 0 0 0 0 0 0 0 50 17 2 1 5 132 334 486 711 817 1065 1570 2187 2258 2448 2632 2686 2659 2632 2668 2709 2636 2329 2270
0 0 0 0 0 0 0 0 0 0 0 0 0 0 0 0 0 0 0 0 18 8 0 1 109 226 358 520 770 1023 1195 1432 2059 2328 2484 2706 2691 2669 2811 2877 2772 2794 2738 2380
0 0 0 0 0 0 0 0 0 0 0 0 0 0 0 0 0 0 0 0 0 0 0 0 64 412 441 443 517 790 1072 1441 1649 2270 2364 2549 2656 2612 2835 2839 2850 2826 2886 2678
0 0 0 0 0 0 0 0 0 0 0 1 0 0 0 0 0 0 0 0 0 0 0 0 0 224 499 644 495 641 756 1126 1461 1705 2032 2422 2579 2627 2596 2865 2917 2901 2926 2856
9 19 0 0 0 0 2 0 0 0 1 57 1 0 0 0 0 0 0 0 0 0 33 0 0 13 207 638 861 709 757 861 1026 1460 1698 1874 2449 2592 2707 2960 3088 3006 2919 2866
0 31 0 0 0 0 4 7 0 33 491 226 173 67 39 22 31 202 168 34 0 0 48 38 1 0 0 434 1187 979 962 920 1068 1213 1433 1818 2224 2608 2817 3069 3181 3005 2891 2788
2 5 0 0 0 0 0 854 963 820 699 672 390 303 387 417 704 1044 1322 1431 1537 1588 1298 953 109 202 627 40 1085 1024 1133 1201 1324 1465 1530 1935 2328 2617 2993 3136 3096 2843 2441 2288
8 27 5 0 0 21 0 52 765 803 720 613 678 861 929 1089 1510 1667 1864 2000 2045 2311 2733 2809 2171 1522 940 1025 855 1117 1406 1526 1797 1977 2487 2909 2894 3021 3117 3042 2809 2395 1882 1573
11 2 6 0 0 19 4 20 379 504 505 576 472 554 917 1460 1632 1911 2117 2313 2470 2548 2859 3139 3161 3080 2953 3050 2671 2255 2548 2678 2909 3098 3078 3000 2687 2217 1447 902 1137 1310 735 964
6 5 0 57 35 2 2 0 1 4 11 0 105 361 388 837 1163 1372 1667 1981 2215 2376 2578 2708 2824 2946 2971 2844 2447 2581 2917 2922 2738 2267 1997 1536 1023 626 329 439 113 5 0 163

GFSCGP_con_mlcape_033.txt.gz
CAPE
0 0 0 0 0 0 0 0 0 0 0 0 0 0 47 275 287 242 229 322 415 531 620 548 539 498 406 335 269 356 460 527 426 464 591 731 733 568 553 824 837 835 987 1094
0 0 0 0 0 0 0 0 0 0 0 0 0 0 77 220 305 262 217 164 190 171 199 311 420 537 484 353 240 330 525 596 611 474 638 875 740 596 469 548 814 790 943 1022
0 0 0 0 0 0 0 0 0 0 0 0 0 0 33 240 372 384 318 234 166 131 128 68 229 419 485 302 245 414 503 504 624 550 580 698 498 428 383 522 848 977 1055 1124
0 0 0 0 0 0 0 0 0 0 0 0 0 0 0 44 233 297 310 284 239 120 102 92 75 215 314 249 282 355 448 505 488 467 518 419 376 346 319 606 661 777 1055 1080
0 0 0 0 0 0 0 0 0 0 0 0 0 0 0 0 3 62 126 149 139 131 104 85 31 114 190 227 266 282 275 449 545 549 547 532 578 503 388 465 851 969 967 1001
0 0 0 0 0 0 0 0 0 0 0 0 0 0 0 0 0 0 0 55 50 43 67 63 41 45 178 253 178 354 308 519 609 565 622 676 686 640 495 472 554 520 997 1033
0 0 0 0 0 0 0 0 0 0 0 0 0 0 0 0 0 0 0 0 7 6 11 20 19 37 92 228 227 344 337 523 672 666 704 725 724 655 606 571 388 752 939 960
0 0 0 0 0 0 0 0 0 0 0 0 0 0 0 0 0 0 0 0 0 0 0 4 3 1 31 98 182 293 352 458 746 786 752 783 774 705 659 655 440 533 821 851
0 0 0 0 0 0 0 0 0 0 0 0 0 0 0 0 0 0 0 0 0 0 0 2 14 0 10 22 117 265 386 443 699 784 806 773 790 803 747 667 494 486 766 877
0 0 0 0 0 0 0 0 0 0 0 0 0 0 0 0 0 0 0 0 0 0 0 1 1 0 1 17 63 199 402 460 595 761 825 811 801 851 844 773 585 613 802 812
0 0 0 0 0 0 0 0 0 0 0 0 0 0 0 0 0 0 0 0 0 0 0 0 8 2 1 21 30 192 439 520 626 776 814 887 929 1024 1018 942 708 670 839 671
0 0 0 0 0 0 0 0 0 0 0 0 0 0 0 0 0 0 0 0 0 0 0 0 1 3 5 21 44 231 472 575 573 804 823 764 794 897 989 1105 999 830 800 797
0 0 0 0 0 0 0 0 0 0 0 0 0 0 0 0 0 0 0 0 0 0 0 0 0 0 0 22 40 252 549 636 672 755 940 962 944 976 887 957 1149 1080 1095 963
0 0 0 0 0 0 0 0 0 0 0 0 0 0 0 0 0 0 0 0 0 0 0 1 0 0 0 1 92 247 636 811 793 882 991 1041 1064 1048 1099 1050 1007 1124 1189 1334
0 0 0 0 0 0 0 0 0 0 0 0 0 0 0 0 0 0 0 0 0 0 0 0 0 0 0 4 73 227 588 1087 1035 1035 1200 1166 1220 1162 1282 1301 1251 1150 1174 1260
0 0 0 0 0 0 0 0 0 0 0 0 0 0 0 0 0 0 0 0 0 0 0 0 0 0 6 9 62 188 521 1110 1312 1238 1306 1487 1482 1466 1514 1633 1639 1511 1384 1339
0 0 0 0 0 0 0 0 0 0 0 0 0 0 0 0 0 0 0 0 0 0 0 0 0 0 11 22 157 263 447 887 1485 1474 1549 1656 1670 1600 1657 1909 2000 1843 1658 1529
0 0 0 0 0 0 0 0 0 0 0 0 0 0 0 0 0 0 0 0 0 0 0 0 0 0 0 46 191 343 587 875 1422 1574 1756 1968 1904 1789 1814 1905 2015 2111 1983 1762
0 0 0 0 0 0 0 0 0 0 0 0 0 0 0 0 0 0 0 0 0 0 0 0 0 0 0 43 233 514 682 876 1369 1686 1884 2055 2184 2136 2148 2041 2018 2209 2282 2009
0 0 0 0 0 0 0 0 0 0 0 0 0 0 0 0 0 0 0 0 0 0 0 0 0 0 57 254 497 718 799 968 1285 1627 1819 2094 2182 2294 2295 2219 2219 2271 2359 2320
0 0 0 0 0 0 0 0 0 0 0 0 0 0 0 0 0 0 0 0 0 0 0 0 0 0 33 391 593 735 887 946 1065 1394 1781 2051 2314 2322 2281 2389 2475 2476 2455 2438
11 11 0 0 0 0 0 14 39 8 0 0 0 0 0 0 0 0 0 0 0 0 5 0 0 0 36 474 490 611 691 797 1081 1260 1442 1922 2059 2314 2396 2377 2552 2608 2594 2551
0 31 0 4 0 0 0 0 0 23 46 60 0 0 0 0 8 9 21 122 310 470 669 818 249 203 453 7 445 508 511 598 746 921 1155 1249 1617 2045 2338 2436 2563 2664 2584 2549
0 61 12 44 32 0 6 0 5 15 99 153 449 492 357 317 586 562 811 1143 1369 1717 1510 1827 1542 1246 1322 2028 1172 777 925 615 610 678 803 1056 1214 1613 2165 2496 2603 2641 2511 2501
1 66 31 53 0 0 0 0 0 0 15 209 238 463 780 1213 1363 1478 1734 1912 2092 2244 2587 2647 2659 2636 2581 2599 2479 2416 2104 1683 1272 997 894 1030 1283 1593 1865 1224 2010 2754 1899 2073
0 93 13 2 2 0 0 0 0 0 13 40 479 871 757 995 1291 1492 1707 1841 1998 2115 2153 2234 2161 2061 2027 2053 2142 2202 2129 2262 2326 2060 1692 1461 1160 695 483 494 418 59 523 509

GFSCGP_con_mlcape_036.txt.gz
CAPE
0 0 0 0 0 0 0 0 0 0 0 0 0 0 0 131 265 321 407 294 243 252 277 380 441 452 436 474 405 398 340 266 210 190 149 232 409 482 568 432 580 633 703 855
0 0 0 0 0 0 0 0 0 0 0 0 0 0 0 100 110 183 384 376 297 322 324 414 462 383 338 394 340 349 328 308 259 197 273 381 388 343 694 516 587 689 704 880
0 0 0 0 0 0 0 0 0 0 0 0 0 0 0 137 194 239 269 371 374 350 351 392 424 393 339 329 281 268 317 243 338 280 210 298 409 461 611 506 561 676 731 820
0 0 0 0 0 0 0 0 0 0 0 0 0 0 0 6 96 164 128 151 266 260 330 300 372 325 379 333 235 204 254 303 304 361 303 294 386 524 674 615 517 514 787 768
0 0 0 0 0 0 0 0 0 0 0 0 0 0 0 0 10 94 179 184 134 106 116 68 51 286 270 363 256 163 194 277 269 358 435 411 437 419 382 439 318 474 691 903
0 0 0 0 0 0 0 0 0 0 0 0 0 0 0 0 0 21 120 193 201 130 68 55 6 28 168 268 209 138 210 268 288 310 417 440 433 321 293 230 372 371 618 778
0 0 0 0 0 0 0 0 0 0 0 0 0 0 0 0 0 0 0 47 110 172 130 91 39 8 61 115 176 128 205 275 308 296 325 411 424 338 323 351 424 295 437 588
0 0 0 0 0 0 0 0 0 0 0 0 0 0 0 0 0 0 0 7 18 23 60 89 88 14 3 50 95 109 172 209 294 343 328 388 445 443 398 441 450 419 368 368
0 0 0 0 0 0 0 0 0 0 0 0 0 0 0 0 0 0 0 0 0 0 0 11 32 39 2 12 75 74 149 149 221 343 341 408 484 513 473 493 489 465 512 438
0 0 0 0 0 0 0 0 0 0 0 0 0 0 0 0 0 0 0 0 0 0 0 0 0 0 0 0 45 88 121 168 201 377 464 483 512 524 537 533 524 519 558 541
0 0 0 0 0 0 0 0 0 0 0 0 0 0 0 0 0 0 0 0 0 0 0 0 1 7 4 0 11 53 93 166 204 446 567 607 595 621 593 570 552 543 594 591
0 0 0 0 0 0 0 0 0 0 0 0 0 0 0 0 0 0 0 0 0 0 0 0 0 3 2 0 2 16 52 175 247 370 597 665 663 697 619 596 624 612 633 564
0 0 0 0 0 0 0 0 0 0 0 0 0 0 0 0 0 0 0 0 0 0 0 0 0 0 0 0 1 18 44 139 286 391 539 687 729 728 694 675 732 718 690 635
0 0 0 0 0 0 0 0 0 0 0 0 0 0 0 0 0 0 0 0 0 0 0 0 0 0 0 0 0 6 51 147 315 419 583 612 706 739 738 807 875 881 788 695
0 0 0 0 0 0 0 0 0 0 0 0 0 0 0 0 0 0 0 0 0 0 0 0 0 0 0 0 2 20 69 208 403 477 577 696 705 699 706 734 827 968 997 885
0 0 0 0 0 0 0 0 0 0 0 0 0 0 0 0 0 0 0 0 0 0 0 0 0 0 0 0 5 33 111 322 459 517 537 694 900 905 862 867 813 792 921 1057
0 0 0 0 0 0 0 0 0 0 0 0 0 0 0 0 0 0 0 0 0 0 0 0 0 0 0 0 4 95 165 400 578 579 646 767 892 989 1013 1033 1020 939 855 925
0 0 0 0 0 0 0 0 0 0 0 0 0 0 0 0 0 0 0 0 0 0 0 0 0 0 0 0 0 65 183 400 686 763 830 974 1061 1065 1174 1184 1199 1167 1092 1023
0 0 0 0 0 0 0 0 0 0 0 0 0 0 0 0 0 0 0 0 0 0 0 0 0 0 0 0 0 34 203 413 799 965 1055 1159 1309 1269 1278 1355 1424 1469 1470 1356
0 0 0 0 0 0 0 0 0 0 0 0 0 0 0 0 0 0 0 0 0 0 0 0 0 0 0 0 0 13 167 391 673 1112 1195 1372 1406 1415 1379 1441 1541 1683 1731 1717
0 0 0 0 0 0 0 0 4 0 0 0 0 0 0 0 0 0 0 0 0 0 0 0 0 0 0 0 0 0 106 332 595 984 1344 1493 1621 1618 1579 1611 1693 1733 1838 1976
0 0 0 0 0 0 0 0 0 0 0 0 0 0 0 0 0 0 0 0 0 0 0 0 0 0 0 0 55 139 252 445 640 953 1356 1602 1750 1883 2014 2042 2001 1914 1992 2109
0 0 0 0 0 0 0 0 0 0 0 0 0 0 0 0 0 0 0 0 42 402 341 19 11 81 205 1 25 293 419 570 780 938 1160 1641 1850 2027 2230 2334 2353 2319 2349 2316
3 1 30 0 0 0 16 9 0 0 1 0 1 25 0 0 0 4 253 700 1169 1581 1363 1500 1074 1164 1475 1801 927 745 875 741 476 535 812 1111 1406 1937 2170 2282 2345 2461 2498 2487
0 0 0 0 0 8 19 0 0 48 40 23 101 281 575 244 855 1200 1372 1672 1881 2007 2121 2104 2034 1976 1880 1851 1998 2295 2566 1983 1124 884 725 834 1033 778 615 402 815 1465 297 1528
0 0 2 0 0 9 28 0 6 157 121 103 583 837 614 1122 1258 1308 1265 1271 1356 1422 1324 1298 1289 1179 1051 1064 1323 1431 1725 1966 1681 1440 1173 829 590 592 673 708 90 1 18 78

GFSCGP_con_mlcape_042.txt.gz
CAPE
0 0 0 0 0 0 0 0 0 0 0 0 1 33 41 44 356 416 773 725 635 449 249 220 274 233 261 390 477 598 611 729 765 678 478 191 16 0 0 143 623 1465 2052 2030
0 0 0 0 0 0 0 0 0 0 0 0 0 0 0 1 84 238 560 717 688 548 329 281 299 260 289 440 647 892 832 960 1136 827 530 109 7 0 24 472 1228 1979 2039 2225
0 0 0 0 0 0 0 0 0 0 0 0 0 0 0 0 0 48 244 604 651 640 463 329 250 280 241 400 754 1032 1157 1105 1304 996 732 561 193 217 266 772 1394 1816 1906 1974
0 0 0 0 0 0 0 0 0 0 0 0 0 0 0 0 3 51 98 439 671 650 588 439 264 249 319 513 870 1124 1450 1574 1562 1278 580 675 189 74 326 745 866 1135 1734 1709
0 0 0 0 0 0 0 0 0 0 0 0 0 0 0 0 0 26 156 235 621 673 689 587 436 217 219 448 755 1070 1433 1740 1672 1513 929 801 654 49 586 697 985 1330 1439 1803
0 0 0 0 0 0 0 0 0 0 0 0 0 0 0 0 0 0 52 158 495 614 661 766 673 287 349 411 690 1033 1468 1901 1860 1690 1493 1236 926 375 683 1103 1167 1184 1187 1162
0 0 0 0 0 0 0 0 0 0 0 0 0 0 0 0 0 0 0 69 305 646 632 723 777 696 377 435 665 984 1547 1948 1946 1761 1671 1551 1338 1179 1199 1457 1367 1153 840 929
0 0 0 0 0 0 0 0 0 0 0 0 0 0 0 0 0 0 0 0 188 449 588 636 784 868 801 610 736 1028 1479 1852 1927 1824 1839 1917 1913 1282 1299 1503 1323 1230 888 743
0 0 0 0 0 0 0 0 0 0 0 0 0 0 0 0 0 0 0 0 0 175 470 596 738 844 1000 1038 1078 1244 1531 1793 1853 1794 2032 2009 2011 1709 1210 1397 1955 1458 1393 887
0 0 0 0 0 0 0 0 0 0 0 0 0 0 0 0 0 0 0 0 0 1 306 504 572 699 830 1009 1223 1443 1721 1762 1675 1681 1916 1895 1978 2020 1859 1897 1859 1807 1670 1516
0 0 0 0 0 0 0 0 0 0 0 0 0 0 0 0 0 0 0 0 0 4 171 482 641 636 723 852 928 1410 1726 1859 1767 1681 1802 1843 1895 1905 2026 1822 2021 2099 1985 2015
0 0 0 0 0 0 0 0 0 0 0 0 0 0 0 0 0 0 0 0 0 0 4 121 202 425 609 818 903 962 1306 1585 1651 1693 1917 1758 1834 1929 1829 1987 2000 2105 2107 2254
0 0 0 0 0 0 0 0 0 0 0 0 0 0 0 0 0 0 0 0 0 0 0 0 15 55 421 735 1040 865 998 1163 1375 1616 1663 1805 1821 1804 1781 1962 2045 2105 2131 2236
0 0 0 0 0 0 0 0 0 0 0 0 0 0 0 0 0 0 0 0 0 0 0 0 0 36 95 475 948 1325 950 924 1140 1309 1503 1747 1972 1786 1937 2044 2151 2205 2290 2368
0 0 0 0 0 0 0 0 0 0 0 0 0 0 0 0 0 0 0 0 0 0 0 0 0 0 4 182 852 1337 1096 1008 956 1379 1511 1706 1957 2163 2213 2153 2238 2348 2388 2421
0 0 0 0 0 0 0 0 0 0 0 0 0 0 0 0 0 0 0 0 0 0 0 0 0 13 156 482 849 1000 1198 1063 1096 1410 1536 1751 2046 2284 2265 2303 2284 2415 2404 2504
0 0 0 0 0 0 0 0 0 0 0 0 0 0 0 0 0 0 0 0 0 0 0 0 0 0 29 68 515 835 1170 1124 1163 1352 1635 1839 2046 2255 2369 2387 2389 2523 2565 2561
0 0 0 0 0 0 0 0 0 0 0 0 0 0 0 0 0 0 0 0 0 0 0 0 0 0 8 74 3 689 898 1281 1319 1499 1584 1950 2051 2160 2391 2462 2365 2515 2642 2584
0 0 0 0 0 0 0 0 0 0 0 0 0 0 0 0 0 0 0 0 0 0 0 0 0 0 0 0 0 208 952 1019 1349 1600 1601 1868 2098 2226 2357 2457 2447 2498 2473 2498
0 0 0 0 0 0 0 0 0 0 0 0 0 0 0 0 0 0 0 0 0 0 0 0 0 0 0 0 0 48 901 1135 1311 1545 1674 1951 2149 2320 2389 2536 2514 2463 2419 2375
0 0 0 0 0 0 0 0 2 0 3 0 0 0 0 0 0 11 3 0 0 0 0 0 0 0 0 6 122 128 690 1019 1265 1665 1845 2038 2212 2519 2428 2563 2571 2522 2433 2340
11 0 0 0 0 0 0 0 0 0 0 0 0 0 0 0 0 0 0 5 45 0 0 0 0 0 0 483 271 361 673 998 1738 1717 1813 2105 2466 2359 2282 2567 2615 2579 2643 2527
0 0 0 0 0 0 0 0 0 0 0 0 0 0 0 0 0 0 0 57 261 228 0 0 73 0 614 815 591 720 1167 1564 1699 1901 2058 2357 2627 2644 2344 2725 2713 2628 2687 2379
1 2 7 2 0 0 0 0 0 0 0 0 0 0 0 0 0 0 0 135 804 193 727 1211 813 1088 1559 1612 1543 1140 1803 1996 2021 1891 2269 2655 2921 2913 2754 2741 2812 2680 2562 2568
2 19 10 1 0 0 0 0 0 0 0 0 0 0 0 0 0 0 0 653 1064 589 1677 1628 2019 2094 2584 2350 2385 2142 1835 2154 2138 2473 2701 2859 2933 2876 3090 2922 2196 2797 2674 1853
0 0 0 0 0 3 0 0 1 0 0 0 0 0 0 0 0 0 74 1216 1636 1948 2078 2541 2756 2431 2466 2185 2264 3171 2885 2196 2293 2431 2470 2494 2659 2871 2821 2504 1470 24 332 862

GFSCGP_con_mlcape_045.txt.gz
CAPE
0 0 0 0 0 0 0 0 0 8 12 2 59 31 67 252 400 323 725 830 714 399 246 254 237 165 183 281 418 714 788 920 863 727 642 348 124 110 10 0 240 735 1264 1675
0 0 0 0 0 0 0 0 0 0 6 17 45 91 96 76 222 328 431 793 712 625 333 178 202 166 194 290 537 888 1089 1449 1222 860 683 233 125 0 0 0 404 873 1504 2155
0 0 0 0 0 0 0 0 0 0 0 32 3 39 37 48 92 234 198 722 666 753 624 260 197 183 139 218 561 861 1259 1433 1410 980 782 617 280 84 0 15 307 1158 1777 2058
0 0 0 0 0 0 0 0 0 0 0 4 0 17 7 4 37 18 77 405 708 716 787 526 250 216 159 157 428 960 1559 1662 1753 1604 821 582 225 14 0 97 282 1090 1707 1889
0 0 0 0 0 0 0 0 0 0 0 0 0 0 25 9 1 23 24 56 437 623 748 665 430 170 138 68 218 680 1713 1942 1668 1775 1239 866 688 103 95 176 583 1048 1876 1814
0 0 0 0 0 0 0 0 0 0 0 0 0 0 5 6 18 38 57 58 95 568 650 690 606 238 121 56 117 523 1825 2296 2214 2247 1831 1521 958 568 69 442 752 916 1002 1601
0 0 0 0 0 0 0 0 0 0 0 0 0 0 0 0 4 13 8 71 79 388 643 722 628 487 215 143 368 570 1686 2448 2663 2503 2175 1595 1734 1333 981 1113 981 1024 742 727
0 0 0 0 0 0 0 0 0 0 0 0 0 0 0 0 0 4 14 19 70 207 576 723 753 670 366 319 474 785 1613 2396 2774 2626 2583 2480 2146 1437 1043 1061 1209 1025 895 646
0 0 0 0 0 0 0 0 0 0 0 0 0 0 0 0 0 0 0 0 34 110 420 683 873 797 621 471 733 924 1512 2391 2862 2780 2874 2857 2717 2167 1407 1168 1631 1572 1554 870
0 0 0 0 0 0 0 0 0 0 0 0 0 0 0 0 0 0 0 0 0 73 343 586 782 946 841 709 766 1197 1504 2435 2705 2731 2955 3025 3061 2910 2271 1988 2075 1895 1804 1957
0 0 0 0 0 0 0 0 0 0 0 0 0 0 0 0 0 0 0 0 0 0 162 358 606 819 1054 950 886 1208 1672 2026 2863 2859 2815 2988 3047 3048 3041 2492 2431 2321 2648 2760
0 0 0 0 0 0 0 0 0 0 0 0 0 0 0 0 0 0 0 0 0 0 14 163 421 729 860 1141 1138 1301 1546 1798 2520 2701 2741 2945 3005 3072 2960 2933 2624 2779 2642 2807
0 0 0 0 0 0 0 0 0 0 0 0 0 0 0 0 0 0 0 0 0 0 2 58 282 580 728 943 1345 1471 1701 1730 1954 2456 2532 2776 2912 3050 2889 2907 3053 2941 2973 3004
0 0 0 0 0 0 0 0 0 0 0 0 0 0 0 0 0 0 0 0 0 0 4 58 184 409 595 799 1265 1591 1409 1468 1853 2183 2357 2549 3017 2894 2946 2909 3113 3030 3158 3116
0 0 0 0 1 0 0 0 0 0 0 0 0 0 0 0 0 0 0 0 0 0 0 0 1 42 169 593 1242 1758 1451 1538 1415 2050 2340 2489 2836 3225 3194 2994 2901 3163 3157 3244
0 0 0 0 0 0 0 0 0 0 0 0 0 0 0 0 0 0 0 0 0 0 0 0 0 0 28 166 1124 1519 1998 1586 1752 1918 2149 2485 2756 3120 3320 3261 3111 3226 3240 3304
0 0 1 0 0 0 0 0 0 0 0 0 0 0 0 0 0 0 0 0 0 0 0 0 0 0 43 215 340 948 1624 2077 1854 1801 2364 2391 2743 2922 3289 3464 3399 3243 3339 3442
0 0 0 0 0 0 0 0 0 0 0 0 0 0 0 0 0 0 0 0 0 0 0 0 0 0 0 27 173 592 827 1878 2091 2188 1954 2687 2713 3007 3245 3451 3502 3547 3564 3535
0 0 0 0 0 0 0 0 0 0 0 0 0 0 0 0 0 0 0 0 0 0 0 0 0 0 0 0 0 0 561 1177 2142 2274 2393 2169 2926 3038 3406 3500 3645 3627 3576 3618
0 0 0 0 0 0 0 0 0 0 0 0 0 0 0 0 0 0 0 0 0 4 0 0 0 0 0 0 0 0 43 1099 1809 2216 2516 2675 2926 3217 3311 3551 3675 3702 3632 3565
0 0 0 0 0 0 0 0 0 0 56 9 3 0 0 0 49 112 46 8 3 22 125 56 2 0 0 0 0 6 18 349 1416 2044 2449 2955 3093 3367 3478 3583 3717 3705 3592 3136
5 0 0 0 0 0 0 0 0 3 4 0 0 0 0 0 0 0 0 3 15 25 241 294 190 7 0 1 113 344 517 774 1903 2151 2422 2874 3251 3242 3268 3749 3770 3757 3638 3495
0 1 0 0 0 0 0 0 0 0 0 0 0 0 0 0 0 0 0 0 40 75 603 776 290 225 528 303 652 1276 1373 2196 2232 2650 2760 2975 3351 3407 3205 3578 3856 3637 3630 3073
2 0 0 0 0 0 0 0 0 0 0 0 0 0 0 0 0 0 0 0 0 35 739 943 603 1262 784 1327 1685 1989 2065 2740 2796 2897 3022 3287 3451 3610 3336 3336 3324 3215 3049 3151
0 0 1 0 0 0 0 0 0 0 0 0 0 0 0 0 0 0 0 0 0 16 1023 1007 1723 1542 1541 2159 2468 2441 2338 2680 2578 2642 2729 3003 3147 3258 3334 2853 2180 3026 2435 1926
6 12 9 0 0 0 0 0 0 0 0 0 0 0 0 0 0 0 0 0 0 300 1546 1643 2046 3047 3303 2816 3220 3473 2749 2783 2773 2659 2645 2714 2842 3270 3250 2540 1431 69 183 375

GFSCGP_con_mlcape_048.txt.gz
CAPE
0 0 0 0 0 0 0 2 0 0 3 16 0 40 19 3 3 40 353 625 278 237 261 397 339 340 460 492 617 468 701 781 1068 1145 1067 1129 614 463 327 189 74 1632 1469 1516
0 0 0 0 0 0 0 0 0 0 2 12 6 42 137 6 20 11 361 184 572 284 198 388 364 374 378 518 653 876 797 912 1349 1191 1161 900 721 441 248 175 185 820 1107 1559
0 0 0 0 0 0 0 0 0 0 0 18 13 1 91 146 177 0 0 502 609 504 303 313 382 354 314 538 743 976 941 1549 1289 1136 1038 954 538 407 311 103 111 625 957 2018
0 0 0 0 0 0 0 0 0 0 3 2 32 10 12 39 54 102 165 590 546 610 468 305 337 273 259 479 766 1119 1228 1395 1655 1235 1017 839 430 283 110 91 196 712 1156 1876
0 0 0 0 0 0 0 0 0 0 0 0 3 31 31 32 24 33 192 140 601 512 649 426 313 243 280 404 885 1135 1495 1434 1900 1250 1420 729 622 236 223 61 312 421 1781 1832
0 0 0 0 0 0 0 0 0 0 0 0 0 7 0 4 3 16 30 35 496 540 688 731 431 322 283 391 715 1045 1518 1580 1763 1895 987 1741 742 665 217 258 384 1014 1875 1964
0 0 0 0 0 0 0 0 0 0 0 0 0 0 0 16 37 2 22 8 54 639 705 871 695 494 350 415 496 840 1652 1936 1915 2106 1972 985 2061 833 898 912 242 1039 1250 1828
0 0 0 0 0 0 0 0 0 0 0 0 0 0 0 0 14 30 39 28 34 158 726 880 877 683 455 396 446 708 1469 1946 2311 1919 2274 1929 1468 2371 841 842 1477 724 1259 1234
0 0 0 0 0 0 0 0 0 0 0 0 0 0 0 0 0 0 20 74 94 81 678 867 997 873 557 438 474 533 1293 2084 2441 2355 2467 2608 1896 1762 2129 815 1169 2031 1029 1282
0 0 0 0 0 0 0 0 0 0 0 0 0 0 0 0 0 0 0 6 22 150 341 777 960 1010 778 481 467 640 1212 2170 2672 2811 2655 2784 2727 1760 1640 1952 898 1075 1850 1491
0 0 0 0 0 0 0 0 0 0 0 0 0 0 0 0 0 0 0 0 0 111 278 612 877 1067 1008 677 553 788 1100 2205 2746 2873 2978 2809 2875 2779 2113 1571 1936 1317 1574 1596
0 0 0 0 0 0 0 0 0 0 0 0 0 0 0 0 0 0 0 0 0 0 334 478 823 1109 1225 1054 793 802 1098 1523 2643 3090 3102 3110 3141 3220 2947 2215 1964 2246 2276 2371
0 0 0 0 0 0 0 0 0 0 0 0 0 0 0 0 0 0 0 0 0 0 165 510 644 1126 1324 1357 1135 1055 1275 1382 1950 3003 3204 3212 3263 3326 3350 3198 2558 2533 2391 2655
0 0 0 0 0 0 0 0 0 0 0 0 0 0 0 0 0 0 0 0 0 0 0 467 618 731 1420 1443 1448 1474 1346 1506 1874 2472 3213 3274 3316 3418 3500 3473 3352 2860 2866 2634
0 0 0 0 0 2 0 0 0 0 0 0 0 0 0 0 0 0 0 0 0 0 27 212 484 739 1136 1615 1658 1698 1751 1794 1861 2115 2615 3106 3163 3382 3440 3539 3532 3541 3188 3140
0 0 0 0 0 0 0 0 0 0 0 0 0 0 0 0 0 0 0 0 0 0 0 8 8 34 521 1322 1813 1846 1957 2143 2057 2290 2440 2926 3051 3191 3452 3427 3487 3447 3579 3411
0 0 0 0 0 0 0 0 0 0 0 0 0 0 0 0 0 0 0 0 0 0 0 0 0 0 43 229 1590 2039 1957 2039 2219 1984 2638 2844 3061 3202 3364 3607 3547 3479 3556 3641
0 0 0 0 0 0 0 0 0 0 0 0 0 0 0 0 0 0 0 0 0 0 0 0 0 0 0 31 200 1566 2416 2295 1941 2174 2332 2854 3133 3215 3458 3636 3742 3685 3563 3668
0 0 0 0 0 0 0 0 0 0 0 4 0 0 0 0 0 0 0 0 0 0 0 0 0 0 0 0 11 520 813 1950 2552 2339 2202 2446 3057 3234 3394 3657 3781 3893 3816 3745
0 0 0 0 0 0 0 0 0 0 0 1 0 0 0 0 0 10 69 17 59 152 181 225 134 47 21 0 1 631 896 1811 2041 2183 2247 2703 2623 3244 3424 3596 3785 3977 4008 3853
0 0 0 0 0 0 0 0 0 0 55 28 9 7 0 16 179 188 88 0 45 124 178 273 308 247 92 77 29 35 453 1536 1918 2220 2765 2678 2970 2734 3542 3734 3877 4002 4049 4021
0 0 0 0 0 0 0 0 0 14 0 0 0 0 0 0 0 0 0 0 0 75 186 375 742 564 558 353 15 2 53 98 1887 1954 2822 3104 3244 3014 3352 3727 3967 4132 4159 4062
0 0 0 0 0 0 0 0 0 0 0 0 0 0 0 0 0 0 0 0 0 0 14 117 987 1464 760 477 1309 792 477 1289 1730 2370 2562 3013 3313 3588 3329 3833 3934 4131 4190 4078
0 0 0 0 0 0 0 0 0 0 0 0 0 0 0 0 0 0 0 0 0 0 0 3 511 1559 1385 1819 1414 1196 1916 2255 2316 2710 3063 3250 3467 3803 3758 3728 4090 4074 4005 4032
0 0 0 0 0 0 0 0 0 0 0 0 0 0 0 0 0 0 0 0 0 0 0 31 1173 1953 2588 3484 3208 3180 3163 2811 2801 3689 3615 3677 3772 3803 3998 3025 3064 3913 2986 2724
0 2 1 0 0 0 0 0 0 0 0 0 0 0 0 0 0 0 0 0 0 0 0 3 1461 1238 2097 3676 3229 3290 3597 3508 3566 3550 3741 3448 3412 3815 3759 2426 1334 13 167 218

GFSCGP_con_mlcape_051.txt.gz
CAPE
0 0 0 0 0 0 0 0 0 0 0 0 40 148 72 94 0 2 159 91 315 266 632 626 502 551 194 81 108 102 362 542 490 539 357 607 220 550 232 50 827 801 1008 1403
0 0 0 0 0 0 0 0 0 0 0 0 8 74 151 122 105 110 232 250 106 300 224 431 483 336 157 157 41 226 287 662 530 678 405 674 767 480 253 25 115 1121 1206 1214
0 0 0 0 0 0 0 0 0 0 0 0 7 87 82 70 58 39 199 0 27 164 211 249 168 215 164 189 162 55 226 540 620 690 612 478 843 425 270 52 0 965 922 804
0 0 0 0 0 0 0 0 0 0 0 0 0 15 83 19 95 42 88 12 21 74 158 262 147 234 247 262 318 79 375 644 708 854 766 550 307 393 371 46 25 46 733 762
0 0 0 0 0 0 0 0 0 0 0 0 1 0 22 128 102 51 34 60 0 139 189 208 213 282 321 358 409 312 282 700 1010 761 770 661 438 249 77 251 1 40 291 366
0 0 0 0 0 0 0 0 0 0 0 0 0 3 0 64 115 166 28 0 4 254 254 203 338 285 264 469 533 614 411 686 853 961 764 440 587 296 283 14 43 78 555 690
0 0 0 0 0 0 0 0 0 0 0 0 0 0 0 17 56 103 86 55 244 405 250 253 366 253 235 367 550 777 670 618 1118 818 673 1095 525 438 80 127 58 67 682 1088
0 0 0 0 0 0 0 0 0 0 0 0 0 0 0 0 2 64 140 215 483 509 421 323 345 264 205 216 580 850 915 773 902 1196 904 591 1337 680 410 434 294 117 843 1113
0 0 0 0 0 0 0 0 0 0 0 0 0 0 0 0 0 0 5 53 549 520 590 477 334 309 165 243 448 797 1086 944 938 1094 1210 894 546 1572 955 270 611 1112 442 1066
0 0 0 0 0 0 0 0 0 0 0 0 0 0 0 0 0 0 0 0 48 583 693 668 443 357 241 213 343 547 1099 1128 1152 1119 1383 1427 900 510 1666 1182 387 380 1140 900
0 0 0 0 5 0 0 0 0 0 0 0 0 0 0 0 0 0 0 0 1 509 732 776 666 513 382 239 336 458 841 1334 1525 1607 1337 1611 1620 1220 702 1823 1203 445 492 989
0 0 0 0 0 0 0 0 0 0 0 0 0 0 0 0 0 0 0 0 2 137 787 852 875 721 574 378 372 439 704 1221 1490 1716 1800 1639 1998 2142 1528 974 1576 1230 283 697
0 0 0 0 0 0 0 0 0 0 0 0 0 0 0 0 0 0 0 0 0 38 833 894 990 891 765 519 419 457 536 1112 1529 1987 2066 2182 2135 2318 2285 1673 1106 1418 1142 538
6 0 0 0 0 0 0 0 0 0 0 0 0 0 0 0 0 0 0 0 0 0 611 886 1064 979 937 693 492 479 561 885 1771 2024 2249 2353 2466 2486 2515 2594 2110 1399 1529 1347
0 0 0 0 0 0 0 0 0 0 0 0 0 0 0 0 0 0 0 0 0 0 262 691 968 1100 1099 939 657 551 631 817 1232 2165 2392 2445 2630 2740 2765 2734 2924 2632 1914 2080
0 0 0 0 0 0 0 0 0 0 0 0 0 0 0 0 0 0 0 0 10 0 82 537 728 1072 1183 1197 989 831 768 866 1039 1270 2356 2642 2845 2908 2922 2977 2948 3106 3026 2405
0 0 0 0 0 0 0 0 0 0 0 0 0 0 0 0 0 0 0 0 0 0 0 3 68 905 1286 1352 1412 1220 1042 1088 1270 1445 1491 2352 2873 2959 2997 3096 3170 3124 3148 3234
0 0 0 0 0 0 0 1 7 0 0 0 0 0 0 1 9 0 0 0 0 0 0 0 0 0 234 1607 1567 1473 1558 1598 1378 1483 1785 1852 2470 2906 2992 3074 3188 3219 3235 3259
0 0 0 0 0 0 0 0 1 3 0 21 64 3 26 27 4 39 0 0 20 42 66 103 78 27 0 0 500 2009 1773 1924 2098 1940 2086 2161 2481 2701 2995 2969 3095 3219 3248 3249
0 0 0 0 0 0 0 0 0 0 1 0 158 208 21 15 0 65 71 55 83 135 149 241 412 186 80 125 0 875 2081 2026 2151 2300 2479 2541 2667 2875 2911 3093 3167 3421 3375 3311
0 0 0 0 0 0 0 0 0 0 0 0 0 0 0 0 0 0 0 0 27 95 133 211 432 886 1203 365 84 0 785 2358 2396 2110 1987 2242 2672 2870 3064 3178 3370 3468 3609 3604
1 0 0 0 0 0 0 0 0 0 0 0 0 0 0 0 0 0 0 0 0 0 2 38 252 490 811 1138 695 121 56 37 205 2235 2579 2353 2318 2567 3103 3297 3470 3641 3684 3749
0 0 0 0 0 0 0 0 0 0 0 0 0 0 0 0 0 0 0 0 0 0 0 0 188 861 1508 2051 2176 1209 932 1654 1464 981 1895 2669 2544 2586 2498 3076 3525 3651 3760 3811
0 0 0 0 0 0 1 0 0 0 0 0 0 0 0 0 0 0 0 0 0 0 0 0 0 302 1310 1669 3671 3144 2574 1981 1773 1830 1628 2895 3004 3064 2874 3039 3363 3790 3959 3996
0 0 0 0 0 0 0 0 0 0 0 0 0 0 0 0 0 0 0 0 0 0 0 0 0 0 657 1280 1939 3296 3087 3128 3111 2672 2167 2711 3498 3296 3282 1888 2197 3540 2591 3180
0 0 1 0 0 0 0 0 0 0 0 0 0 0 0 0 0 0 0 0 0 0 0 0 0 0 1 733 1339 2593 2494 2073 2768 3568 2624 4103 3794 3544 3005 1988 1134 100 434 626

GFSCGP_con_mlcape_054.txt.gz
CAPE
0 0 0 0 0 0 0 0 0 0 0 2 96 88 137 408 520 661 651 595 393 265 249 164 190 184 164 138 214 63 42 155 206 221 170 30 117 176 283 156 327 402 425 603
0 0 0 0 0 0 0 0 0 0 0 0 88 106 129 231 277 534 490 399 462 525 362 192 108 171 123 112 245 116 58 34 121 86 113 68 23 89 201 174 186 453 511 815
0 0 0 0 0 0 0 0 0 0 0 0 65 111 32 20 0 109 257 213 323 297 438 317 210 191 214 86 138 105 124 108 197 233 147 100 64 0 188 211 0 508 648 995
0 0 0 0 0 0 0 0 0 0 0 0 0 45 59 59 29 0 27 193 194 206 162 390 340 324 309 111 73 49 232 231 262 390 208 141 5 0 192 153 1 163 836 955
0 0 0 0 0 0 0 0 0 0 0 0 0 4 68 63 34 5 55 180 89 127 101 115 418 427 324 115 47 94 241 294 334 488 361 236 161 202 350 179 18 0 615 803
0 0 0 0 0 0 0 0 0 0 0 0 0 0 2 13 7 7 62 90 115 5 28 92 208 336 251 102 71 90 273 320 387 491 451 320 227 121 262 205 64 0 15 408
0 0 0 0 0 0 0 0 0 0 0 0 0 0 0 0 17 14 16 44 109 15 7 57 64 109 77 147 183 51 258 363 392 424 451 414 344 196 22 61 38 53 1 131
0 0 0 0 0 0 0 0 0 0 0 0 0 0 0 0 0 27 44 72 89 40 33 66 135 90 140 160 246 184 165 343 455 390 386 485 406 360 196 128 75 0 20 187
0 0 0 0 0 0 0 0 0 0 0 0 0 0 0 0 0 5 24 54 63 54 57 76 194 139 128 220 297 355 256 263 536 524 519 543 501 402 287 240 17 23 64 186
0 0 0 0 0 0 0 0 0 0 0 0 0 0 0 0 0 0 11 35 63 97 66 140 250 228 179 259 349 450 461 352 444 680 563 501 657 825 515 271 188 171 110 384
0 0 0 0 0 0 0 0 0 0 0 0 0 0 0 0 0 0 0 16 152 272 213 442 310 295 177 173 384 552 630 543 555 695 857 684 508 415 998 972 257 133 291 677
0 2 0 0 0 0 0 0 0 0 0 0 0 0 0 0 0 0 0 0 53 466 567 625 379 305 234 208 279 575 767 737 684 693 775 904 959 798 390 658 1363 796 332 230
1 2 0 0 0 0 0 0 0 0 0 0 0 0 0 0 0 0 0 0 77 484 711 622 397 296 279 207 256 506 761 876 856 862 832 930 1126 1114 925 529 436 1211 1074 580
2 2 1 0 0 0 0 0 0 0 0 0 0 0 0 0 0 0 0 0 0 592 669 668 491 364 349 265 243 372 529 975 1034 1121 1122 954 1040 1315 1347 1176 855 588 877 1000
0 0 0 0 0 0 0 0 0 0 0 0 0 0 0 0 0 0 0 0 0 429 684 758 670 539 520 377 262 338 458 793 1133 1226 1290 1305 1237 1378 1692 1696 1549 1258 891 859
0 0 0 0 0 0 0 0 0 0 0 0 0 0 0 0 0 0 0 0 7 385 793 872 856 751 684 539 374 327 385 671 1076 1277 1370 1424 1703 1645 1689 1803 1939 1883 1623 1219
0 0 0 0 0 0 0 0 0 0 0 0 0 0 0 0 0 0 0 0 0 343 728 858 904 847 814 671 493 376 417 441 1090 1324 1447 1743 1773 1921 1869 2008 2141 2256 2210 2075
0 0 0 0 0 0 0 0 0 0 0 0 0 0 0 13 8 9 10 11 0 74 144 387 738 910 890 782 581 437 409 555 668 1318 1567 1771 2077 2042 2263 2384 2382 2412 2590 2598
0 0 0 0 0 0 0 0 0 0 0 0 0 7 82 72 12 82 48 53 91 86 57 73 236 516 819 989 943 660 585 651 751 825 964 1715 2113 2282 2427 2580 2706 2740 2818 2833
0 0 0 0 0 0 0 0 0 0 0 0 0 0 119 12 23 1 0 0 0 56 219 437 528 511 373 81 1093 1294 1102 974 986 1019 1149 1144 1539 2201 2398 2496 2626 2839 2925 2928
0 0 0 0 0 0 0 0 0 0 0 0 0 0 0 0 0 0 0 0 0 0 141 485 795 1126 1513 951 109 1156 1773 1753 1683 1462 1220 1523 1588 1715 2185 2455 2650 2722 2923 2997
0 0 0 0 0 0 0 0 0 0 0 0 0 0 0 0 0 0 0 0 0 0 0 58 699 1195 1651 2601 1081 845 559 556 1127 2126 2058 2114 2150 2086 2249 2417 2624 2823 2899 3077
0 0 0 0 0 0 0 0 0 0 0 0 0 0 0 0 0 0 0 0 0 0 0 0 15 625 1058 1672 2765 2498 2674 2585 1982 1373 2040 2400 2402 2628 2780 2752 2754 2922 3071 3167
0 0 0 0 0 0 0 0 0 0 0 0 0 0 0 0 0 0 0 0 0 0 0 0 0 0 0 311 1380 2180 2772 2459 2567 2414 1669 1678 2308 2568 2594 2874 2899 2931 3097 3220
0 0 2 0 0 0 0 0 0 0 0 0 0 0 0 0 0 0 0 0 0 0 0 0 0 0 0 0 100 1187 2559 2122 1593 1699 2300 2846 2185 1867 2464 2247 2282 2944 2905 2955
3 2 4 0 0 0 0 0 0 0 0 0 0 0 0 0 0 0 0 0 0 0 0 0 0 0 0 0 0 229 1218 1837 1572 1255 1413 2486 2835 2706 2488 1729 1275 130 696 1061

GFSCGP_con_mlcape_057.txt.gz
CAPE
0 0 0 0 0 0 0 0 0 0 0 0 5 52 191 398 421 333 210 119 67 123 222 201 165 237 207 149 103 0 0 0 84 261 319 306 245 322 291 259 652 479 704 1001
0 0 0 0 0 0 0 0 0 0 0 0 1 44 165 459 366 370 338 246 188 113 116 160 173 135 136 92 87 0 0 0 42 220 379 215 47 108 210 233 210 395 444 720
0 0 0 0 0 0 0 0 0 0 0 0 18 27 95 358 564 555 436 305 273 168 123 101 127 169 118 56 21 45 22 0 8 172 230 165 78 53 102 134 149 246 481 612
0 0 0 0 0 0 0 0 0 0 0 0 3 0 42 76 224 246 424 451 483 282 161 137 117 131 175 58 47 31 0 0 0 21 110 88 20 0 6 26 67 118 514 591
0 0 0 0 0 0 0 0 0 0 0 0 4 42 0 3 31 111 121 277 404 394 371 253 141 121 160 134 28 48 0 0 0 22 12 3 0 0 0 0 27 49 304 582
0 0 0 0 0 0 0 0 0 0 0 0 0 0 0 0 0 21 41 72 154 268 288 313 269 143 144 158 42 26 9 15 0 15 20 5 17 8 0 0 0 36 12 306
0 0 0 0 0 0 0 0 0 0 0 0 0 0 0 0 0 0 0 67 56 123 189 153 288 287 232 221 118 29 31 58 33 71 53 20 32 13 0 0 0 0 0 35
0 0 0 0 0 0 0 0 0 0 0 0 0 0 0 0 0 0 0 48 61 70 130 103 157 348 332 309 199 67 38 82 94 108 91 81 62 24 0 0 0 15 0 11
0 0 0 0 0 0 0 0 0 0 0 0 0 0 0 0 0 0 0 24 47 66 76 16 80 175 366 329 228 97 100 133 145 139 129 151 132 86 19 2 0 0 4 73
0 0 0 0 0 0 0 0 0 0 0 0 0 0 0 0 0 0 0 0 39 58 72 52 9 87 147 230 192 106 63 208 227 184 156 179 166 132 123 27 12 0 0 6
0 1 0 0 0 0 0 0 0 0 0 0 0 0 0 0 0 0 0 0 9 46 51 39 28 58 103 145 203 216 79 137 217 262 188 196 212 180 200 172 149 104 56 12
0 1 0 0 0 0 0 0 0 0 0 0 0 0 0 0 0 0 0 0 8 44 64 34 19 69 135 139 225 278 213 111 135 268 296 269 289 358 424 337 198 133 113 196
1 1 0 0 0 0 0 0 0 0 0 0 0 0 0 0 0 0 0 0 0 11 64 57 19 82 138 134 238 300 336 269 167 169 379 393 348 312 335 604 766 429 239 166
6 2 0 0 0 0 0 0 0 0 0 0 0 0 0 0 0 0 0 0 0 0 17 71 58 128 180 192 162 292 398 424 361 308 357 520 639 602 475 321 359 779 870 640
2 0 0 0 0 0 0 0 0 0 0 0 0 0 0 0 0 0 0 0 0 0 0 107 187 270 230 238 129 219 365 525 558 502 489 515 665 847 844 761 574 423 534 772
0 0 0 0 0 0 0 0 0 0 0 0 0 0 0 0 0 0 0 0 0 0 0 179 376 382 334 294 202 126 317 487 668 665 627 601 637 818 936 986 981 917 657 574
1 0 0 0 0 0 0 0 0 0 0 0 0 0 0 0 0 1 0 0 0 0 41 225 460 469 422 364 240 169 254 394 705 755 785 901 951 903 993 1170 1296 1277 1125 1053
1 0 0 0 0 0 0 0 0 0 0 0 0 0 9 15 31 6 8 0 0 22 145 287 572 574 467 390 285 182 175 335 670 885 1002 1159 1257 1273 1273 1354 1469 1595 1644 1492
1 0 0 0 0 0 0 0 0 0 0 0 0 0 70 133 106 77 0 19 38 198 301 355 589 625 517 486 356 245 222 309 626 874 1083 1301 1415 1449 1700 1660 1634 1741 1885 2059
0 0 0 0 0 0 0 0 0 0 0 0 0 0 0 0 3 0 0 1 33 203 496 628 554 518 589 560 492 377 366 426 536 905 1127 1335 1571 1667 1755 1796 1881 1961 2214 2193
0 0 0 0 2 0 0 0 0 0 0 0 0 0 0 0 0 0 0 0 0 29 433 1190 1224 1134 800 580 673 662 559 638 584 584 796 1255 1619 1753 1999 2051 2179 2353 2447 2572
0 0 0 1 0 0 0 0 0 0 0 0 0 0 0 0 0 0 0 0 0 0 50 219 782 1168 1555 1433 1002 1001 966 771 942 830 846 938 1015 1477 1906 2082 2312 2449 2571 2652
0 0 0 0 0 0 0 0 0 0 0 0 0 0 0 0 0 0 0 0 0 0 0 0 2 142 803 1892 2315 2181 2326 1958 1655 1796 1741 1521 1401 1398 1437 1778 2116 2385 2552 2589
0 1 0 0 0 0 0 0 0 0 0 0 0 0 0 0 0 0 0 0 0 0 0 0 0 0 0 281 1503 2162 1900 1664 1726 1896 2301 2135 2343 2352 2280 2158 2201 2327 2505 2597
2 1 1 0 0 0 0 0 0 0 0 0 0 0 0 0 0 0 0 0 0 0 0 0 0 0 0 0 32 451 1089 1342 1382 1260 1335 1526 2440 2468 2071 2367 2394 2697 2774 2718
2 0 0 1 1 0 0 0 0 0 0 0 0 0 0 0 0 0 0 0 0 0 0 0 0 0 0 0 0 0 21 371 1091 802 899 1281 1674 2401 2553 1893 1225 263 762 1149

GFSCGP_con_mlcape_060.txt.gz
CAPE
0 0 0 0 0 0 0 0 0 0 0 0 0 0 183 190 63 14 9 7 1 1 30 73 101 179 226 232 74 0 0 0 0 1 59 121 173 304 75 173 318 410 618 807
0 0 0 0 0 0 0 0 0 0 0 0 0 0 89 213 157 103 26 18 24 10 11 51 88 139 156 167 78 0 0 0 0 11 136 160 138 213 101 36 248 511 594 729
0 0 0 0 0 0 0 0 0 0 0 0 0 0 18 278 304 215 95 26 8 8 38 75 65 97 117 97 137 0 0 0 0 0 35 80 55 75 142 135 78 374 389 499
0 0 0 0 0 0 0 0 0 0 0 0 0 0 0 44 205 248 255 169 92 42 50 99 72 43 88 73 72 0 0 0 0 0 0 100 172 152 39 64 72 90 219 383
0 0 0 0 0 0 0 0 0 0 0 0 0 0 0 0 9 152 308 281 201 164 113 69 81 83 55 23 19 47 0 0 0 0 0 4 153 22 0 0 0 31 143 296
0 0 0 0 0 0 0 0 0 0 0 0 0 0 0 0 0 37 255 323 339 258 192 129 67 10 2 0 0 0 0 6 0 12 14 0 4 10 0 0 0 0 27 160
0 0 0 0 0 0 0 0 0 0 0 0 0 0 0 0 0 0 24 170 211 384 376 202 104 69 46 46 5 14 0 19 1 3 9 0 0 0 0 0 0 0 0 11
0 0 0 0 0 0 0 0 0 0 0 0 0 0 0 0 0 0 0 34 77 137 289 345 316 142 62 54 46 22 41 40 17 0 0 0 0 0 0 0 0 0 0 0
0 0 0 0 0 0 0 0 0 0 0 0 0 0 0 0 0 0 0 2 2 37 89 122 255 278 177 66 60 22 33 48 59 39 0 23 0 0 0 0 0 0 0 0
0 0 0 0 0 0 0 0 0 0 0 0 0 0 0 0 0 0 0 0 0 27 39 65 94 84 200 155 92 51 0 4 60 66 36 66 70 0 0 0 0 0 0 0
0 0 0 0 0 0 0 0 0 0 0 0 0 0 0 0 0 0 0 0 0 13 26 34 47 42 86 178 133 88 38 0 0 42 62 94 142 109 45 3 0 0 0 0
0 0 0 0 0 0 0 0 0 0 0 0 0 0 0 0 0 0 0 0 0 12 40 41 61 14 27 151 188 175 54 44 54 106 101 129 185 171 104 46 26 0 0 0
0 1 0 0 0 0 0 0 0 0 0 0 0 0 0 0 0 0 0 0 0 5 50 56 58 12 3 45 177 169 78 94 144 183 194 192 206 195 151 90 72 35 31 40
0 0 0 0 0 0 0 0 0 0 0 0 0 0 0 0 0 0 0 0 0 0 23 35 41 27 5 14 85 125 126 89 121 196 299 311 284 261 259 206 154 61 57 99
0 0 0 0 0 0 0 0 0 0 0 0 0 0 0 0 0 0 0 0 0 0 0 3 15 34 43 67 108 135 154 146 107 146 285 381 343 293 261 299 372 522 339 152
0 0 0 0 0 0 0 0 0 0 0 0 0 0 0 0 0 0 0 0 0 0 0 0 0 23 66 107 150 206 246 265 222 216 241 340 392 401 378 296 255 285 483 624
0 0 1 0 0 0 0 0 0 0 0 0 0 0 0 0 0 0 0 0 0 0 0 0 0 10 85 151 159 275 344 384 408 379 333 344 410 553 598 594 589 470 320 337
0 0 0 0 0 0 0 0 0 0 0 0 0 0 0 0 0 0 0 0 0 0 0 0 17 36 136 210 215 216 370 455 515 515 519 529 548 585 684 789 822 798 793 648
0 0 0 0 0 0 0 0 0 0 0 0 0 0 0 0 2 5 0 0 0 28 90 39 126 213 244 241 216 187 327 455 573 632 693 735 765 747 753 814 893 971 1070 1046
4 0 0 0 1 7 2 0 0 0 0 0 0 0 0 0 0 0 0 0 0 24 469 188 274 282 239 214 211 222 325 410 623 717 797 922 996 1038 1033 959 983 1173 1314 1350
0 0 0 0 1 2 1 0 0 0 0 0 0 0 0 0 0 0 0 0 0 0 48 591 715 545 316 308 295 333 352 464 495 685 898 1011 1144 1206 1240 1368 1468 1504 1594 1698
0 0 0 0 0 0 0 0 0 0 0 0 0 0 0 0 0 0 0 0 0 0 3 50 466 763 553 328 387 404 479 367 369 578 804 970 1114 1353 1452 1473 1652 1844 1889 1962
0 1 0 0 0 1 0 0 0 0 0 0 0 0 0 0 0 0 0 0 0 0 0 0 40 452 623 1089 893 813 1065 535 494 503 667 848 1187 1435 1621 1722 1827 1974 2177 2228
0 3 0 0 2 3 0 0 0 0 0 0 0 0 0 0 0 0 0 0 0 0 0 0 0 0 49 161 605 1060 1363 1711 1474 1283 1023 889 896 994 1381 1817 1966 2063 2203 2301
0 2 0 0 2 4 4 0 0 0 0 0 0 0 0 0 0 0 0 0 0 0 0 0 0 0 0 0 0 0 401 1078 1177 1357 1851 2403 2246 2028 1909 1651 1649 1983 2185 2208
4 3 0 1 3 2 1 0 0 0 0 0 0 0 0 0 0 0 0 0 0 0 0 0 0 0 0 0 0 0 0 21 570 893 1211 1627 1937 2336 2447 1990 1676 553 813 952

GFSCGP_con_mlcape_063.txt.gz
CAPE
0 0 0 0 0 0 0 0 0 0 0 0 9 24 128 157 175 142 103 76 44 28 40 77 138 287 338 232 239 183 54 43 0 0 17 168 207 498 542 485 638 906 980 1197
0 0 0 0 0 0 0 0 0 0 0 0 0 1 25 144 118 182 117 85 50 37 54 81 107 212 323 447 332 129 50 36 0 2 224 470 601 709 900 589 840 953 1031 1285
0 0 0 0 0 0 0 0 0 0 0 0 0 0 0 193 228 159 116 70 17 47 51 90 116 171 260 369 455 215 38 76 101 2 331 409 498 460 609 443 507 768 1088 1195
0 0 0 0 0 0 0 0 0 0 0 0 0 0 0 92 103 206 169 67 52 6 26 79 91 113 162 274 371 291 227 131 185 36 153 191 319 329 547 654 573 703 975 981
0 0 0 0 0 0 0 0 0 0 0 0 0 0 0 0 58 88 371 305 113 47 49 60 107 113 141 254 287 275 219 213 179 130 37 301 391 536 590 515 563 545 660 863
0 0 0 0 0 0 0 0 0 0 0 0 0 0 0 0 0 65 319 486 403 220 89 132 136 134 113 164 210 226 192 154 138 192 44 60 268 465 340 348 373 463 632 789
0 0 0 0 0 0 0 0 0 0 0 0 0 0 0 0 0 0 84 272 499 425 295 198 179 187 156 106 170 187 265 131 109 147 179 107 168 305 245 363 324 294 320 525
0 0 0 0 0 0 0 0 0 0 0 0 0 0 0 0 0 0 80 194 445 513 476 413 294 241 259 243 191 168 207 235 206 136 177 247 293 297 304 367 312 292 159 219
0 0 0 0 0 0 0 0 0 0 0 0 0 0 0 0 0 0 0 65 185 456 558 551 449 355 251 269 290 139 201 168 207 213 260 292 334 313 323 354 311 249 276 150
0 0 0 0 0 0 0 0 0 0 0 0 0 0 0 0 0 0 0 0 13 172 326 566 639 487 378 283 279 240 189 211 221 169 214 296 315 355 342 360 254 253 314 213
0 0 0 0 0 0 0 0 0 0 0 0 0 0 0 0 0 0 0 0 0 29 114 196 562 710 509 342 315 275 202 256 242 183 175 213 337 366 392 354 357 316 300 322
0 0 0 0 0 0 0 0 0 0 0 0 0 0 0 0 0 0 0 0 0 2 48 143 214 468 650 621 420 328 284 274 277 287 263 261 372 422 403 423 418 406 337 320
0 0 0 0 0 0 0 0 0 0 0 0 0 0 0 0 0 0 0 0 0 0 55 136 144 251 435 676 620 469 410 311 306 332 319 322 348 439 409 487 549 500 404 356
1 0 0 0 0 0 0 0 0 0 0 0 0 0 0 0 0 0 0 0 0 0 13 87 142 168 283 411 664 618 509 341 315 337 371 415 442 463 501 586 653 639 540 433
0 0 0 0 0 0 0 0 0 0 0 0 0 0 0 0 0 0 0 0 0 0 2 57 101 162 106 200 561 700 640 435 374 375 417 493 546 574 603 709 739 712 695 617
0 0 1 0 0 0 0 0 0 0 0 0 0 0 0 0 0 0 0 0 0 0 0 0 4 108 125 77 273 704 694 554 475 508 545 596 656 708 730 740 794 779 697 611
2 0 0 0 0 1 0 0 0 0 0 0 0 0 0 0 0 0 0 0 0 0 1 1 0 59 92 94 202 488 634 625 498 562 629 750 809 805 818 853 930 961 962 933
0 0 1 0 0 0 0 0 0 0 0 0 0 0 0 0 0 0 0 0 0 0 0 18 68 0 119 145 285 515 611 639 529 506 584 755 857 880 927 940 935 895 939 980
0 3 0 1 1 0 55 0 0 0 0 0 0 0 0 17 20 0 0 0 0 0 0 74 467 1 38 162 446 619 718 683 651 593 641 718 857 964 1089 1102 1085 1084 1044 950
0 16 8 3 1 4 23 0 0 0 0 0 0 0 0 1 0 0 0 0 0 0 0 620 267 44 127 291 540 767 740 783 756 792 822 887 915 978 1110 1215 1206 1304 1332 1294
5 5 1 3 8 1 6 4 0 1 0 0 0 0 0 0 0 0 0 0 0 0 140 906 440 309 481 557 655 792 821 839 1003 1101 1108 1095 1091 1101 1140 1220 1364 1495 1563 1637
1 1 0 0 1 0 0 0 0 0 0 0 0 0 0 0 0 0 0 0 0 0 7 431 985 525 582 575 568 692 822 1064 1233 1315 1272 1324 1339 1283 1494 1532 1561 1639 1773 1844
0 0 0 0 0 2 2 6 17 2 2 0 0 0 0 0 0 0 0 0 0 0 0 0 14 74 336 1185 782 723 1033 895 1021 1144 1235 1376 1520 1590 1692 1851 1980 2084 2178 2126
0 3 0 1 2 5 1 9 8 6 3 0 0 0 0 0 0 0 0 0 0 0 0 0 0 0 2 12 152 520 1377 1206 792 979 1212 1481 1603 1718 1926 2119 2178 2208 2376 2511
2 1 0 0 1 3 6 3 5 2 0 0 0 0 0 0 0 0 0 0 0 0 0 0 0 0 0 0 0 0 105 1642 1847 1411 1229 1345 1513 1650 2082 2210 2322 2400 2526 2538
8 2 1 0 3 5 5 4 4 3 3 0 0 0 0 0 0 0 0 0 0 0 0 0 0 0 0 0 0 0 0 1 762 1517 2251 2114 2441 2265 2021 1942 1828 754 1158 1486

GFSCGP_con_mlcape_069.txt.gz
CAPE
0 0 0 0 0 0 0 0 0 0 0 0 0 138 121 403 514 716 737 680 304 493 342 270 140 121 35 1 0 0 24 311 231 254 321 300 223 393 871 524 1163 1491 1435 1208
0 0 0 0 0 0 0 0 0 0 0 0 0 3 266 449 421 630 720 758 561 472 435 305 180 130 58 7 1 32 106 461 284 136 113 257 274 338 468 435 988 1249 1340 1483
0 0 0 0 0 0 0 0 0 0 0 0 0 34 130 366 464 512 742 825 722 343 551 351 268 193 128 41 31 258 374 530 446 96 98 136 446 744 515 872 965 1313 1346 1492
0 0 0 0 0 0 0 0 0 0 0 0 0 0 73 79 480 338 486 705 744 612 367 517 416 349 238 116 52 303 519 657 645 357 0 148 312 299 408 552 439 856 1271 1276
0 0 0 0 0 0 0 0 0 0 0 0 0 0 10 95 111 459 445 537 669 709 392 430 562 492 363 224 106 115 701 812 610 437 116 204 443 160 302 271 864 882 1301 1250
0 0 0 0 0 0 0 0 0 0 0 0 0 0 0 13 115 116 351 431 591 710 610 410 479 575 471 356 265 119 675 958 939 764 219 591 393 444 69 210 727 583 881 1123
0 0 0 0 0 0 0 0 0 0 0 0 0 0 0 0 9 89 273 391 470 576 717 588 454 494 594 500 466 437 607 1169 1078 1168 452 710 983 576 880 755 549 456 257 327
0 0 0 0 0 0 0 0 0 0 0 0 0 0 0 0 1 6 112 354 418 420 598 710 598 529 614 655 751 778 988 1303 1423 1119 962 520 774 296 511 885 395 253 92 182
0 0 0 0 0 0 0 0 0 0 0 0 0 0 0 0 0 0 11 218 369 417 415 678 705 630 575 679 888 947 1154 1567 1621 1230 1240 1502 967 193 117 574 1092 881 548 384
0 0 0 0 0 0 0 4 0 0 0 0 0 0 0 0 0 0 0 67 204 405 456 484 591 631 646 622 748 1012 1135 1698 1835 1547 1430 1437 1546 1254 416 900 1538 939 1143 821
0 0 0 0 0 0 0 0 0 7 0 0 0 0 0 0 0 0 0 0 69 237 375 498 545 608 705 692 688 796 1132 1553 1645 1553 1637 1386 1351 1381 897 1138 1463 1563 1534 1610
0 0 0 0 0 0 0 0 4 40 8 0 0 4 12 0 0 0 0 0 0 3 203 404 511 680 691 814 820 803 881 1042 1557 1561 1658 1569 1635 1445 1275 520 1345 1757 1957 2081
0 0 0 0 0 0 0 0 0 1 13 15 0 0 12 1 0 0 0 0 0 0 10 175 301 673 841 796 1010 987 908 933 1107 1559 1523 1670 1757 1589 1276 1533 1468 1667 1918 2219
0 4 0 0 0 0 0 0 18 7 16 0 2 15 11 7 3 0 0 0 0 0 1 37 169 292 720 945 1198 1332 1059 925 946 1156 1163 1423 1721 1757 1622 1741 1818 1779 2045 2267
17 4 0 0 0 0 0 0 0 0 6 34 19 8 40 13 20 3 1 8 1 5 0 9 58 64 333 1164 1466 1581 1217 1275 1022 1172 1216 1396 1879 1976 1968 1741 1892 1962 2166 2263
46 26 7 14 3 0 0 0 0 0 0 0 0 0 0 0 0 3 13 22 23 29 6 0 0 13 112 297 1502 1857 1504 1534 1374 1360 1394 1472 1910 2117 2176 1781 1907 2086 2184 2311
31 31 15 20 4 0 0 0 0 0 0 0 0 0 0 0 0 0 30 72 10 0 0 12 50 107 188 253 925 1600 1827 1633 1704 1723 1708 1758 2109 2258 2197 1967 1986 2182 2316 2508
39 45 47 19 23 14 0 0 0 0 0 0 0 0 0 0 0 0 0 7 49 29 52 73 82 62 100 292 444 1159 1660 1762 1938 1689 2238 2033 2386 2446 2521 2399 2313 2407 2491 2469
43 56 41 23 15 7 2 1 59 7 0 0 0 0 0 0 0 0 0 0 6 0 64 174 209 163 162 186 224 850 1380 2039 1907 2180 2205 2245 2360 2580 2822 2733 2597 2730 2679 2645
20 51 45 19 18 14 8 92 0 1 0 0 0 0 0 0 0 0 9 114 55 143 240 303 486 663 627 487 519 518 1282 2036 2100 2363 2243 2433 2481 2689 2876 2890 2923 2940 2887 2770
43 10 15 18 36 35 15 30 0 0 0 0 33 85 40 35 1 102 18 0 0 0 201 606 952 1675 1614 1013 710 651 1060 1469 2323 2017 2279 2615 2580 2799 2923 3091 3138 3054 2864 2372
19 16 30 6 19 16 118 49 0 2 0 0 7 7 132 200 114 1 0 0 0 0 220 743 1452 2212 2331 1449 1559 1269 1399 1516 2306 2148 2344 2586 2697 2571 2578 3067 3209 3212 3052 2945
1 4 8 16 23 65 53 25 1 6 0 0 1 2 0 0 0 0 0 0 0 0 0 92 345 506 554 1623 1045 830 2085 1906 2470 2376 2465 2548 2744 2780 2538 2959 3213 2995 3156 2448
0 0 0 1 0 0 0 0 0 2 5 0 1 0 0 1 0 1 0 0 0 0 0 0 0 0 0 0 261 1769 2018 2110 2344 2325 2597 2674 2717 2783 2776 2813 2934 2604 2459 2518
0 2 0 0 0 0 6 9 8 0 0 0 23 9 9 3 0 0 1 0 3 1 2 2 1 0 0 0 0 27 262 1675 2288 2477 2464 2672 2526 2556 2610 2572 2548 2546 2434 2279
7 0 0 0 4 2 5 5 3 17 12 5 12 5 2 1 0 0 0 0 1 5 7 6 13 3 0 0 0 0 0 208 2085 2415 2510 2622 2556 2650 2571 2488 2328 1332 1629 1443

GFSCGP_con_mlcape_072.txt.gz
CAPE
0 0 0 0 0 0 0 0 0 0 0 0 8 137 45 0 0 2 472 332 380 325 218 268 192 205 0 0 25 183 56 448 381 795 689 465 608 521 1061 715 1188 1743 1368 1489
0 0 0 0 0 0 0 0 0 0 0 0 0 26 69 4 0 30 12 329 247 361 281 273 173 217 37 0 2 39 139 638 279 921 662 508 779 253 599 1051 1735 1240 1091 1425
0 0 0 0 0 0 0 0 0 0 0 0 0 14 105 7 3 56 0 454 139 411 284 299 157 183 124 7 39 9 290 868 352 399 356 495 553 409 783 1065 1096 1040 1401 1367
0 0 0 0 0 0 0 0 0 0 0 0 0 0 76 321 49 21 286 462 306 289 344 356 164 237 151 96 120 105 361 983 344 322 144 220 377 616 342 855 1205 1078 1561 1395
0 0 0 0 0 0 0 0 0 0 0 0 0 0 0 40 72 7 1 392 352 177 432 356 282 191 197 161 182 391 356 938 498 212 546 180 347 521 1032 493 1094 1477 1367 1658
0 0 0 0 0 0 0 0 0 0 0 0 0 0 0 11 280 21 0 30 329 290 207 493 428 298 283 222 137 492 544 739 744 188 537 342 188 689 500 263 1088 1611 1277 1291
0 0 0 0 0 0 0 0 0 0 0 0 0 0 0 0 147 110 0 96 377 499 406 321 461 489 385 317 228 271 751 647 830 715 210 985 179 378 833 574 1032 662 1200 975
0 0 0 0 0 0 0 0 0 0 0 0 0 0 0 0 0 215 20 142 23 269 522 390 523 602 603 547 381 260 849 830 858 1057 126 519 984 286 694 1318 392 1024 369 839
0 0 0 0 0 0 0 0 0 0 0 0 0 0 0 0 0 0 110 12 0 0 704 532 601 653 865 720 639 506 681 1058 1071 914 1020 162 1073 1205 606 951 1049 565 695 775
0 0 0 0 0 0 0 0 0 0 0 0 0 0 0 0 0 0 0 24 4 19 108 665 595 700 858 872 936 846 853 1093 1310 932 1319 786 548 844 785 449 1140 1003 937 362
0 0 0 0 1 0 0 0 0 0 3 0 0 0 0 0 0 0 0 0 60 86 40 591 707 744 797 954 996 1095 1117 1239 1472 1558 1208 1170 809 595 359 617 325 1224 1049 2013
0 0 0 0 0 0 1 1 0 17 0 6 0 0 3 0 0 0 0 0 2 74 122 20 85 850 898 966 1040 1198 1197 1620 1731 1772 1608 1251 1471 1063 731 121 772 1720 1207 1239
0 0 0 0 0 0 0 0 0 0 1 26 5 0 0 2 0 0 0 0 0 47 156 46 0 13 861 965 1029 1161 1265 1254 1884 2088 1954 1758 1438 1615 1351 516 879 1265 1689 2087
0 0 0 0 0 0 0 0 0 0 0 0 0 1 0 1 8 29 12 1 0 0 36 144 115 415 511 969 1017 1141 1175 1335 1371 1961 1931 1940 1880 1651 1543 1549 525 1604 1522 1573
2 5 0 0 0 0 0 0 0 0 2 0 0 0 1 0 0 7 26 45 8 6 4 2 57 606 301 1180 1198 1278 1356 1170 1375 1518 1957 1973 2055 1945 1857 1742 1510 622 1772 2105
107 9 34 8 0 0 0 0 0 0 0 1 0 0 0 0 0 0 0 37 239 177 116 129 138 124 674 724 1412 1416 1530 1393 1293 1414 1749 1943 2069 2042 2034 1859 1714 1656 1257 1868
63 83 58 10 21 1 0 0 0 0 0 0 0 0 0 0 0 0 0 0 2 158 99 62 58 104 86 699 1098 1769 1729 1647 1459 1497 1687 1799 1954 2128 2014 2044 1930 2139 1957 1964
78 135 2 15 13 14 0 0 0 0 0 0 0 0 0 0 0 0 0 0 0 51 70 29 31 50 47 77 815 2104 2006 1776 1909 1676 1851 1795 1894 1996 2252 2191 2148 2080 2216 2109
13 71 56 0 18 0 8 5 19 14 0 0 0 0 0 0 0 0 0 0 0 3 48 57 66 110 303 361 245 365 2287 2035 1824 2201 1906 1975 1898 2087 2343 2337 2399 2239 2273 2353
4 15 36 10 3 3 0 19 0 0 0 1 0 0 0 1 6 0 9 132 172 135 61 87 154 171 324 536 598 437 1154 2417 2093 1906 2222 2374 2139 2345 2505 2576 2539 2414 2363 2409
17 45 38 26 15 2 8 2 0 0 4 71 16 0 0 0 0 164 208 35 7 33 11 102 273 610 918 1873 1879 1421 577 1910 2526 2108 2326 2133 2815 2470 2764 2867 2846 2708 2688 2648
9 27 28 47 32 5 104 69 23 46 19 8 0 0 0 0 0 47 34 22 0 0 0 110 560 738 645 424 745 2250 791 1124 2147 2642 2197 2736 2717 2840 2972 2995 3177 3146 3015 3008
3 2 0 8 26 28 5 0 0 0 0 0 0 0 0 0 2 0 0 0 0 0 0 0 0 39 0 0 149 1403 1943 1723 2149 2857 2547 2847 2892 2979 2923 3025 3293 3311 3303 3258
0 1 0 1 0 0 0 0 0 0 2 0 0 0 0 0 0 0 0 0 0 0 0 0 0 0 0 0 0 8 207 991 2293 2790 2565 2888 3089 2976 2893 3093 3215 3347 3272 3267
0 1 0 0 1 0 0 2 3 0 0 0 0 0 0 4 0 1 0 0 0 0 0 2 1 0 0 0 0 0 3 736 3245 3013 2815 3003 3007 2939 3111 2767 3157 3228 3147 3132
3 0 0 0 2 2 1 4 6 9 3 4 0 0 0 1 0 0 6 2 5 8 2 2 4 1 0 0 0 0 0 46 1363 3052 3050 3015 2905 2993 3032 2756 2741 2056 2758 2338

GFSCGP_con_mlcape_075.txt.gz
CAPE
0 0 0 0 0 0 0 0 0 0 0 0 0 121 429 298 216 117 2 46 244 159 202 103 4 0 0 15 0 13 0 351 371 323 0 235 488 247 741 1060 1284 1182 1335 992
0 0 0 0 0 0 0 0 0 0 0 0 0 32 233 136 41 28 15 86 312 217 242 161 20 0 0 0 0 0 41 282 528 393 56 203 554 331 455 644 977 1567 1056 1086
0 0 0 0 0 0 0 0 0 0 0 0 0 79 69 64 16 23 185 313 86 274 255 184 98 0 0 0 0 0 74 86 522 251 196 281 611 25 698 685 1113 970 1363 1161
0 0 0 0 0 0 0 0 0 0 0 0 0 0 54 49 43 21 183 152 166 23 194 273 124 1 0 0 0 36 130 108 216 319 53 189 357 73 381 739 1195 1105 1051 1347
0 0 0 0 0 0 0 0 0 0 0 0 0 0 0 78 77 51 65 51 4 17 30 171 156 92 0 0 0 0 253 190 41 355 0 43 142 225 458 877 827 472 1061 1402
0 0 0 0 0 0 0 0 0 0 0 0 0 0 0 11 25 52 13 0 0 2 5 264 209 116 9 0 0 0 209 107 57 1 152 0 11 105 549 310 914 825 1115 1292
0 0 0 0 0 0 0 0 0 0 0 0 0 0 0 0 50 91 94 0 0 1 118 364 223 176 144 24 0 0 57 166 94 13 125 115 0 14 487 548 792 828 828 886
0 0 0 0 0 0 0 0 0 0 0 0 0 0 0 0 87 205 209 0 0 184 235 357 322 196 208 145 107 16 5 197 202 0 0 219 44 0 192 1023 873 947 867 723
0 0 0 0 0 0 0 0 0 0 0 0 0 0 0 0 0 105 86 24 5 237 345 362 356 239 232 265 188 257 58 101 352 135 0 60 350 0 44 257 1142 511 596 824
0 0 0 0 0 0 0 0 0 0 0 0 0 0 0 0 0 0 25 49 248 366 250 270 334 354 234 341 277 194 412 160 355 362 83 1 252 199 1 92 591 987 575 667
0 0 0 0 0 0 0 0 0 0 0 0 0 0 0 0 0 0 0 38 178 365 188 246 349 384 415 414 419 257 591 463 429 360 415 5 10 561 507 232 303 851 667 1202
0 0 0 0 0 0 0 0 0 0 0 0 0 0 0 0 0 0 0 187 325 234 99 67 57 43 393 489 600 450 462 635 592 411 572 430 0 148 390 511 110 406 699 760
0 0 0 0 0 0 0 0 0 0 0 0 0 0 0 0 0 0 0 39 382 263 140 29 3 3 117 301 728 660 528 653 782 764 445 746 547 5 160 145 269 61 419 579
0 0 0 0 0 0 0 0 0 0 0 0 0 0 0 0 0 0 0 26 136 462 314 180 74 3 32 109 812 827 672 838 929 960 855 683 741 699 75 33 18 371 299 660
0 0 0 0 0 0 0 0 0 0 0 0 0 0 0 0 0 0 0 2 2 310 209 134 90 86 84 88 284 459 824 837 1226 1260 1286 1117 934 834 1053 509 325 3 675 699
0 0 0 0 0 0 0 0 0 0 0 0 0 0 0 0 0 0 0 0 0 0 169 224 182 21 18 70 387 251 217 993 1157 1682 1665 1591 1477 1157 1018 1187 1096 462 227 1059
3 0 0 0 2 10 0 0 0 0 0 0 0 0 0 0 0 0 0 0 0 0 4 63 33 241 239 168 65 34 2 372 1192 1259 1846 1821 1705 1690 1425 1272 1210 1214 617 635
0 13 4 0 0 0 0 0 0 0 0 0 0 0 0 0 0 0 0 0 0 20 82 101 205 120 167 149 80 92 287 678 1078 1198 1476 1775 1800 1747 1747 1609 1431 1334 1165 702
0 16 3 0 3 0 0 4 0 0 0 1 0 0 0 0 0 0 0 0 0 0 0 3 50 110 198 522 187 11 53 245 1045 1318 1318 1736 1872 1878 1881 1722 1623 1488 1456 1423
0 0 0 0 0 0 8 0 0 0 0 0 0 0 0 0 0 0 0 2 0 0 0 0 116 448 359 133 284 860 146 94 539 1535 1568 1618 1704 1869 1965 1809 1754 1643 1511 1597
0 0 0 11 8 0 17 41 19 0 0 0 0 0 0 0 0 0 0 0 0 7 1 0 0 27 28 16 57 200 624 354 677 1802 1844 1843 1727 1762 1843 1996 1805 1848 1809 1701
4 0 0 3 1 1 0 7 1 0 0 0 0 0 0 0 0 0 0 0 0 0 0 0 0 0 0 0 4 26 120 49 401 2180 2102 2095 1955 1838 1983 2047 2123 1996 2021 1932
0 0 0 0 0 0 0 0 0 0 0 0 0 0 0 0 0 0 0 0 0 0 0 0 0 0 0 0 0 1 5 0 129 527 2436 2193 2361 2158 2199 2233 2290 2256 2208 2100
0 0 0 0 0 0 0 0 1 0 1 0 0 0 0 0 0 0 0 0 0 0 0 0 0 0 0 0 0 0 0 0 49 671 2230 2218 2329 2660 2389 2613 2524 2507 2505 2400
0 0 0 0 0 0 0 1 0 1 0 1 1 0 0 0 0 0 0 4 6 11 0 0 0 0 0 0 0 0 0 0 60 462 2494 2720 2526 2598 2710 2775 2720 2772 2710 2716
0 0 0 0 1 3 1 2 1 1 1 0 0 0 0 0 0 0 0 17 22 0 0 0 0 0 0 0 0 0 0 0 0 306 2307 2730 2912 2810 2806 2670 2532 1913 2572 2664

GFSCGP_con_mlcape_078.txt.gz
CAPE
0 0 0 0 0 0 0 0 0 0 0 0 0 168 141 62 257 338 191 137 71 84 68 11 6 5 102 94 102 174 319 28 371 120 150 393 267 435 816 721 1087 979 841 765
0 0 0 0 0 0 0 0 0 0 0 0 0 51 234 62 97 87 57 80 108 97 118 21 1 0 51 48 20 0 117 16 145 54 12 271 363 365 581 729 1035 1050 862 804
0 0 0 0 0 0 0 0 0 0 0 0 19 192 315 137 4 0 0 45 118 105 94 126 0 0 24 40 20 0 63 32 0 52 0 156 339 281 554 886 1025 1127 1094 870
0 0 0 0 0 0 0 0 0 0 0 0 0 0 250 220 61 48 12 42 130 183 150 169 4 0 12 43 24 40 82 167 133 15 0 82 411 94 438 502 618 1146 1022 989
0 0 0 0 0 0 0 0 0 0 0 0 0 0 0 55 41 0 17 123 109 220 202 205 66 0 0 0 35 70 39 191 233 4 34 17 156 202 69 522 672 796 1064 1002
0 0 0 0 0 0 0 0 0 0 0 0 0 0 0 10 67 16 0 281 221 229 226 171 156 8 0 0 16 67 34 83 269 129 0 0 60 213 131 367 730 822 1011 1057
0 0 0 0 0 0 0 0 0 0 0 0 0 0 0 0 22 65 32 406 209 281 177 186 185 99 0 0 0 128 84 42 123 236 32 0 13 58 214 472 669 622 658 1097
0 0 0 0 0 0 0 0 0 0 0 0 0 0 0 0 0 45 81 256 121 38 79 167 226 209 17 0 0 93 152 68 56 160 185 0 0 9 117 452 700 742 546 770
0 0 0 0 0 0 0 0 0 0 0 0 0 0 0 0 0 7 86 66 71 0 2 128 252 245 78 21 0 9 160 99 82 57 0 85 0 0 9 361 893 771 593 568
0 0 0 0 0 0 0 0 0 0 0 0 0 0 0 0 0 4 148 113 46 35 5 104 327 296 196 69 13 6 33 136 110 63 17 0 19 119 0 36 540 920 640 509
0 0 0 0 0 0 0 0 0 0 0 0 0 0 0 0 0 0 0 0 7 30 54 273 421 357 228 158 96 31 1 72 225 164 34 0 0 147 159 3 96 795 815 568
0 0 0 0 0 0 0 0 0 0 0 0 0 0 0 0 0 0 0 0 0 53 70 301 483 392 282 265 211 161 103 18 168 271 183 0 0 1 254 154 16 164 936 775
0 0 0 0 0 0 0 0 0 0 0 0 0 0 0 0 0 0 0 74 22 50 196 484 537 439 364 341 272 231 262 236 81 289 294 221 1 0 37 279 172 45 463 870
0 0 0 0 0 0 0 0 0 0 0 0 0 0 0 0 0 0 0 0 231 87 128 122 108 84 64 255 240 270 235 428 348 286 318 359 242 3 0 94 209 317 137 524
0 0 0 0 0 0 0 0 0 0 0 0 0 0 0 0 0 0 0 0 0 4 4 44 31 39 3 0 0 173 393 404 595 532 410 408 488 336 0 0 89 22 294 225
0 0 0 0 0 0 0 0 0 0 0 0 0 0 0 0 0 0 0 0 0 24 33 148 67 89 71 9 0 9 288 558 699 776 672 425 570 661 473 34 0 0 0 229
0 0 0 0 0 0 0 0 0 0 0 0 0 0 0 0 0 0 0 0 0 0 0 0 0 0 5 71 10 155 167 235 862 941 891 929 585 733 740 743 254 106 13 0
0 0 0 0 0 0 0 0 0 0 0 0 0 0 0 0 0 0 0 0 0 0 0 0 0 150 203 107 64 21 77 215 583 791 1248 1183 1247 974 889 874 1007 729 504 166
0 0 0 0 0 0 0 0 9 5 5 0 0 0 0 0 0 0 0 0 2 0 0 0 57 0 5 28 290 424 214 173 110 653 998 1642 1524 1492 1291 1139 1113 1147 1076 722
0 0 0 0 0 0 0 0 0 0 0 0 0 0 0 0 0 0 0 0 0 0 0 0 1 0 0 0 0 52 307 139 225 492 636 1063 1805 1693 1646 1582 1434 1305 1224 1143
0 0 0 0 4 0 1 0 1 1 0 0 0 0 0 0 0 0 0 0 0 0 0 0 0 0 0 0 0 0 0 54 0 12 132 371 1228 1774 1736 1709 1678 1563 1434 1298
0 0 0 0 5 0 0 0 0 0 0 0 0 0 0 0 0 0 0 0 0 0 0 0 0 0 0 0 0 0 0 0 0 0 54 309 1515 1713 1869 1770 1754 1677 1574 1436
0 0 0 0 0 0 0 0 1 0 0 0 1 0 0 0 0 0 0 0 0 0 0 0 0 0 0 0 0 0 0 0 0 0 59 395 1635 1759 1793 1849 1837 1721 1673 1602
0 0 0 0 0 0 0 1 0 0 1 0 0 0 1 0 0 0 0 0 0 0 0 0 0 0 0 0 0 0 0 0 0 0 22 113 1412 1819 1710 1793 1826 1816 1696 1709
0 0 0 0 0 0 0 0 1 2 1 1 2 2 1 1 0 1 0 0 0 0 0 0 0 0 0 0 0 0 0 0 0 0 1 103 1606 2166 2102 1905 1903 1966 1882 1790
0 0 0 0 0 0 0 0 3 1 2 6 5 0 1 2 0 0 0 0 3 0 0 0 0 0 0 0 0 0 0 0 0 1 0 1 340 2252 2433 2166 2228 1424 1846 1789

GFSCGP_con_mlcape_084.txt.gz
CAPE
0 0 0 0 0 0 0 0 0 0 0 0 0 0 0 71 377 362 185 130 85 23 1 23 0 0 2 9 2 0 0 45 135 171 211 192 203 131 423 514 516 288 637 588
0 0 0 0 0 0 0 0 0 0 0 0 0 0 0 211 187 356 306 174 96 89 36 6 0 6 0 1 0 7 4 16 104 217 225 229 153 105 359 537 622 689 684 342
0 0 0 0 0 0 0 0 0 0 0 2 0 0 0 149 281 356 384 222 146 117 28 31 2 0 0 0 41 42 25 8 99 180 125 174 177 109 356 549 599 810 750 661
0 0 0 0 0 0 0 0 0 0 0 0 0 0 0 66 285 393 281 260 168 122 35 16 3 0 32 27 72 108 86 32 142 89 133 232 224 153 185 458 558 672 757 725
0 0 0 0 0 0 0 0 0 0 0 0 0 0 0 0 44 217 289 201 137 96 123 5 1 22 46 20 34 93 125 84 156 153 105 141 144 181 180 374 521 617 779 928
0 0 0 0 0 0 0 0 0 0 0 0 0 0 0 0 0 0 130 287 146 102 103 73 0 0 14 8 15 69 146 107 76 98 30 62 100 90 155 241 386 553 716 787
0 0 0 0 0 0 0 0 0 0 0 0 0 0 0 0 0 0 0 66 145 122 60 83 36 0 0 0 11 34 83 140 109 59 31 0 9 117 101 57 196 370 487 605
0 0 0 0 0 0 0 0 0 0 0 0 0 0 0 0 0 0 0 5 25 71 40 27 118 1 0 0 0 22 18 87 118 70 0 0 0 1 121 94 46 101 402 581
0 0 0 0 0 0 0 0 0 0 0 0 0 0 0 0 0 0 0 0 4 19 52 26 45 57 0 0 8 9 2 28 92 74 0 0 0 0 0 78 140 148 215 496
0 0 0 0 0 0 0 0 0 0 0 0 0 0 0 0 0 0 0 0 0 0 44 105 114 105 0 0 0 7 18 15 50 70 24 1 0 0 0 0 37 167 254 357
0 0 0 0 0 0 0 0 0 0 0 0 0 0 0 0 0 0 0 0 0 25 0 26 185 132 25 0 0 0 0 0 14 83 66 34 3 0 0 0 0 36 190 305
0 0 0 0 0 0 0 0 0 0 0 0 0 0 0 0 0 0 0 0 0 77 30 0 0 138 67 0 0 16 3 0 12 33 84 60 10 0 0 0 0 0 70 238
0 0 0 0 0 0 0 0 0 0 0 0 0 0 0 0 0 0 0 0 0 27 84 42 1 0 134 54 0 0 25 27 1 0 0 36 28 7 0 0 0 0 0 0
0 0 0 0 0 0 0 0 0 0 0 0 0 0 0 0 0 0 0 0 0 0 16 97 95 66 79 89 28 0 0 10 30 0 0 0 0 0 0 0 0 0 0 0
0 0 0 0 0 0 0 0 0 0 0 0 0 0 0 0 0 0 0 0 0 0 1 132 162 149 121 101 36 19 0 0 15 25 21 4 0 0 0 0 0 0 0 0
0 0 0 0 0 0 0 0 0 0 0 0 0 0 0 0 0 0 0 0 0 1 0 4 0 56 73 149 77 22 51 4 0 6 39 42 11 0 0 0 0 0 0 0
0 0 0 0 0 0 0 0 0 0 0 0 0 0 0 0 0 0 0 0 0 0 2 3 2 0 0 3 154 63 10 16 77 18 35 91 98 45 11 0 0 0 0 0
0 0 0 0 0 0 0 0 0 0 0 0 0 0 0 0 0 0 0 0 0 0 0 0 0 0 0 0 0 6 110 59 74 128 241 175 150 119 100 46 0 0 0 0
0 0 0 0 0 0 0 0 0 0 0 0 0 0 0 0 0 0 0 0 0 0 0 0 2 0 0 0 0 0 0 0 3 23 100 269 287 243 219 216 172 23 0 0
0 0 0 0 0 0 0 0 0 0 0 0 0 0 0 0 0 0 0 0 0 0 0 0 0 0 0 0 0 0 0 0 0 0 0 0 0 53 451 398 378 283 108 23
0 0 0 0 0 0 0 0 0 0 0 0 0 0 0 0 0 0 0 0 0 0 0 0 0 0 0 0 0 0 0 0 0 0 0 0 0 0 9 517 523 493 400 331
0 0 0 0 0 0 0 0 0 0 0 0 0 0 0 0 0 0 0 0 0 0 0 0 0 0 0 0 0 0 0 0 0 0 0 0 0 0 0 58 749 710 561 568
0 0 0 0 0 0 0 0 0 0 0 0 0 0 0 0 0 0 0 0 0 0 0 0 0 0 0 0 0 0 0 0 0 0 0 0 0 0 0 0 67 745 892 832
0 0 0 0 0 0 0 0 0 0 0 0 0 1 3 0 1 0 0 0 0 0 0 0 0 0 0 0 0 0 0 0 0 0 0 0 0 0 0 0 46 420 975 1019
0 0 0 0 0 0 0 0 0 0 0 0 2 6 8 7 1 1 2 2 0 0 1 0 0 0 0 0 0 0 0 0 0 0 0 0 0 0 0 0 0 192 1318 1271
0 0 0 0 0 0 0 0 0 0 0 1 1 3 6 8 5 5 4 0 0 0 1 1 0 0 0 0 0 0 0 0 0 0 0 0 0 0 0 0 0 12 555 1078

GFSCGP_con_mlcape_087.txt.gz
CAPE
0 0 0 0 0 0 0 0 0 0 0 0 0 0 0 211 541 464 359 171 62 25 40 104 148 37 0 0 0 0 0 172 335 334 355 507 625 774 844 1237 1138 551 708 782
0 0 0 0 0 0 0 0 0 0 0 0 0 0 7 187 338 567 347 227 131 40 43 113 154 103 67 2 0 25 22 147 325 470 614 739 786 691 1003 1226 1117 1011 960 919
0 0 0 0 0 0 0 0 0 0 0 1 0 0 0 158 379 569 379 312 203 153 79 97 70 82 86 52 1 0 51 132 353 525 564 572 609 675 757 1057 1125 1281 1393 1003
0 0 0 0 0 0 0 0 0 0 0 0 0 0 0 55 293 412 557 426 282 230 209 143 114 75 98 78 5 49 130 179 362 477 472 596 615 607 720 1004 1189 1297 1354 1346
0 0 0 0 0 0 0 0 0 0 0 0 0 0 0 0 16 420 518 547 387 267 271 184 172 99 96 116 82 105 162 247 312 423 543 657 683 696 710 970 1179 1244 1334 1468
0 0 0 0 0 0 0 0 0 0 0 0 0 0 0 0 0 0 179 504 397 313 266 180 129 124 105 129 112 127 196 228 316 391 474 608 602 617 626 749 942 1154 1413 1528
0 0 0 0 0 0 0 0 0 0 0 0 0 0 0 0 0 0 0 149 427 359 285 277 124 75 80 134 115 138 206 187 268 332 430 551 639 668 598 768 840 964 1262 1388
0 0 0 0 0 0 0 0 0 0 0 0 0 0 0 0 0 0 0 73 158 334 375 278 245 95 54 116 139 142 147 177 227 259 402 536 553 600 589 805 768 909 1064 1244
0 0 0 0 0 0 0 0 0 0 0 0 0 0 0 0 0 0 0 0 0 81 185 346 271 189 81 158 177 150 161 194 256 237 324 389 411 352 409 670 739 706 887 1164
0 0 0 0 0 0 0 0 0 0 0 0 0 0 0 0 0 0 0 0 58 53 67 42 232 279 118 117 237 213 182 163 229 302 363 329 346 275 206 412 637 701 704 801
0 0 0 0 0 0 0 0 0 0 0 0 0 0 0 0 0 0 0 0 22 140 151 100 40 203 222 75 137 246 239 195 194 279 440 428 320 275 151 143 277 701 828 835
0 0 0 0 0 0 0 0 0 0 0 0 0 0 0 0 0 0 0 0 0 88 364 292 13 9 367 323 80 221 235 247 239 289 342 392 374 241 173 121 112 330 586 916
0 0 0 0 0 0 0 0 0 0 0 0 0 0 0 0 0 0 0 0 1 2 175 394 373 144 116 403 203 118 207 262 284 282 292 356 409 345 177 195 183 175 311 632
0 0 0 0 0 0 0 0 0 0 0 0 0 0 0 0 0 0 0 0 2 2 2 6 26 98 290 242 310 130 162 159 268 281 272 367 447 400 320 291 240 172 156 236
0 0 0 0 0 0 0 0 0 0 0 0 0 0 0 0 0 0 0 0 0 0 1 3 3 5 1 57 354 189 143 175 263 331 274 319 445 460 478 419 414 282 206 131
0 0 0 0 0 0 0 0 0 0 0 0 0 0 0 0 0 0 0 0 0 0 0 0 5 0 0 1 9 323 285 171 283 308 307 338 317 337 315 341 365 411 353 288
0 0 0 0 0 0 0 0 0 0 0 0 0 0 0 0 0 0 0 0 0 0 0 0 0 8 0 0 2 16 304 388 290 390 404 428 406 324 283 218 193 255 305 356
0 0 0 0 0 0 0 0 0 0 0 0 0 0 0 0 0 0 0 0 0 0 0 0 0 0 5 0 0 0 7 106 222 365 389 357 519 449 348 312 222 184 214 261
0 0 0 0 0 0 0 0 0 0 0 0 0 0 0 0 0 0 0 0 0 0 0 0 0 0 0 4 0 0 0 0 0 39 75 159 463 597 590 529 474 334 213 232
0 0 0 0 0 0 0 0 0 0 0 0 0 0 0 0 0 0 0 0 0 0 0 0 0 0 0 0 1 0 0 0 0 0 0 3 60 149 411 648 668 605 411 247
0 0 0 0 0 0 0 0 0 0 0 0 0 0 0 0 0 0 0 0 0 0 0 0 0 0 0 0 0 0 0 0 0 0 0 0 0 7 29 91 380 558 611 500
0 0 0 0 0 0 0 0 0 0 0 0 0 0 0 0 0 0 0 0 0 0 0 0 0 0 0 0 0 1 0 0 0 0 0 0 0 0 20 62 125 265 561 624
0 0 0 0 0 0 0 0 0 0 0 0 0 0 0 0 0 1 0 0 0 0 0 0 0 0 0 0 0 0 0 0 0 0 0 0 0 0 0 0 46 162 156 583
0 0 0 0 0 0 0 0 0 0 0 0 0 0 0 1 2 0 4 5 1 0 0 0 0 0 0 0 0 0 0 0 0 0 0 0 0 0 0 0 0 41 163 309
0 0 0 0 0 0 0 0 0 0 0 0 0 0 7 7 4 6 6 2 6 4 1 2 4 1 1 0 0 0 3 0 0 0 0 0 0 0 0 0 0 0 9 34
0 0 0 0 0 0 0 0 0 0 0 0 2 4 7 7 8 9 6 5 3 6 1 1 0 0 4 2 0 3 7 0 0 0 0 0 0 0 0 0 0 0 0 0

GFSCGP_con_mlcape_090.txt.gz
CAPE
0 0 0 0 0 0 0 13 0 1 43 25 142 12 518 592 756 667 530 242 32 0 0 27 55 0 0 0 0 132 264 492 619 608 490 682 937 1172 1264 1345 1519 963 1035 1052
0 0 0 0 0 0 0 0 7 0 0 0 0 0 16 450 431 746 695 507 142 52 9 139 214 225 69 0 0 44 213 582 919 793 765 766 965 1110 916 1363 1518 1386 1093 1047
0 0 0 0 0 0 0 0 0 0 0 0 0 0 70 195 349 633 783 611 463 249 28 200 309 331 281 127 0 0 217 420 845 862 1171 1508 1389 1354 982 1418 1310 1485 1365 975
0 0 0 0 0 0 0 0 0 0 0 0 0 12 1 256 305 591 814 775 586 404 225 159 326 383 353 309 14 0 293 476 829 1059 999 1151 835 758 774 1081 1271 1567 1677 1522
0 0 0 0 0 0 0 0 0 0 0 0 0 0 0 3 199 398 634 826 714 556 429 270 343 343 323 352 328 9 303 636 653 990 1210 1189 974 583 952 979 1307 1338 1753 1732
0 0 0 0 0 0 0 0 0 0 0 0 0 0 0 0 0 2 56 704 885 713 650 522 345 309 368 396 420 364 383 729 882 1015 1365 1298 1045 765 622 961 904 967 1424 1530
0 0 0 0 1 0 0 0 0 0 0 0 0 0 0 0 0 45 0 167 762 896 704 719 607 491 425 479 526 526 525 949 1062 1015 1132 1323 1451 1376 1072 1083 577 884 1167 1120
0 0 0 0 0 0 0 0 0 0 0 0 0 0 0 0 0 33 110 202 377 790 800 741 777 589 549 536 601 663 611 971 1159 1124 1185 1326 1486 1252 1035 733 574 889 785 1147
0 0 0 0 0 0 0 0 0 0 0 0 0 0 0 0 0 31 107 230 250 461 781 836 862 801 624 566 643 807 828 968 1221 1101 1226 1391 1562 1454 865 603 828 771 938 1194
0 0 0 0 0 0 0 0 0 0 0 0 0 0 0 0 0 0 14 112 364 466 431 445 683 864 833 679 629 763 901 1081 1246 1158 1127 1216 1396 1526 1417 1089 955 621 625 991
0 0 0 0 0 0 0 0 0 0 0 0 0 0 0 0 0 0 1 86 355 442 696 570 175 326 769 846 684 622 818 1001 1188 1171 1139 1126 1175 1308 1416 1190 976 975 929 1023
0 0 0 0 0 0 0 0 0 0 0 0 0 0 0 0 0 0 2 151 51 89 99 277 675 399 390 640 739 586 671 798 980 1109 1214 1239 1302 1273 1158 1194 834 827 837 1065
0 0 0 0 0 0 0 0 0 0 0 0 0 0 0 0 0 0 0 9 2 3 4 10 12 32 443 728 970 783 553 729 841 987 1053 1193 1296 1300 1180 1103 1124 876 862 887
0 0 0 0 0 0 0 0 0 0 0 0 0 0 0 0 0 0 0 2 0 0 0 2 0 0 1 10 183 871 673 621 723 836 935 1056 1206 1278 1246 1180 1176 1151 1015 982
0 0 0 0 0 0 0 0 0 0 0 0 0 0 1 0 0 0 0 0 0 0 0 0 0 0 0 0 1 78 847 566 683 728 878 953 1108 1190 1197 1230 1181 1188 1170 1072
0 0 0 0 0 0 0 0 0 0 0 0 0 0 0 0 0 0 0 0 0 0 0 0 0 0 0 0 0 0 5 809 705 782 768 907 983 1118 1299 1302 1283 1207 1191 1191
0 0 0 0 0 0 0 0 0 0 0 0 0 0 0 0 0 0 0 0 0 0 0 0 0 0 0 0 0 0 0 18 652 724 861 851 930 1034 1106 1144 1215 1277 1229 1201
0 0 0 0 0 0 0 0 0 0 0 0 0 0 0 0 0 0 0 0 0 0 0 0 0 0 0 0 0 0 0 0 2 164 716 830 801 918 1013 987 1093 1052 1065 1141
0 0 0 0 0 0 0 0 0 0 0 0 0 0 0 0 0 0 0 0 0 0 0 0 0 0 0 0 0 0 0 0 0 0 0 33 492 828 961 888 993 948 914 983
0 0 0 0 0 0 0 0 0 0 0 0 0 0 0 0 0 0 0 0 0 0 0 0 0 0 0 0 0 0 0 0 0 0 0 0 2 6 381 833 1111 1142 1132 975
0 0 0 0 0 0 0 0 0 0 0 0 0 0 0 0 0 0 0 0 0 0 0 0 0 0 0 0 0 0 0 0 0 0 0 0 0 0 14 118 104 512 1084 1181
1 2 0 1 0 0 0 0 0 0 0 0 0 0 0 0 0 0 0 0 0 0 0 0 0 0 0 0 0 0 0 0 0 0 0 0 0 0 0 72 236 431 419 800
0 0 7 0 6 0 0 0 0 0 0 0 0 0 0 0 0 0 0 0 0 0 0 0 0 0 0 0 0 0 0 0 0 0 0 0 0 0 0 1 18 94 126 486
0 0 0 0 0 0 0 0 0 0 0 0 0 0 0 0 0 0 0 0 0 0 0 0 0 0 0 0 0 0 0 0 0 0 0 0 0 0 0 0 0 0 4 9
0 0 0 0 0 0 0 0 0 0 0 0 0 0 0 0 0 0 0 2 1 4 7 10 4 2 5 6 1 0 0 0 1 0 0 0 0 0 0 0 0 0 0 0
0 0 0 0 0 0 0 0 0 0 0 0 0 0 0 1 0 0 2 4 7 11 4 6 3 4 0 1 7 8 6 4 7 0 0 0 0 0 0 0 0 0 0 0

GFSCGP_con_mlcape_093.txt.gz
CAPE
0 0 0 0 0 0 0 91 68 91 102 126 274 419 896 674 599 697 519 225 120 182 52 0 0 0 0 2 131 200 199 664 660 649 379 487 772 1190 1196 1157 1690 1474 1236 1274
0 0 0 0 0 0 0 39 58 92 105 93 216 343 448 903 837 444 776 585 346 200 13 5 4 3 1 0 37 226 362 861 856 607 475 417 884 863 1062 1145 1371 1356 1304 1400
0 0 0 0 0 0 0 36 87 129 0 1 16 94 158 166 510 870 808 644 326 89 6 63 64 21 14 3 0 179 470 896 1082 809 1084 1109 1300 1054 1151 1370 1362 1445 1525 1355
0 0 0 0 0 0 0 2 49 10 0 36 3 72 97 95 206 641 919 947 426 155 45 134 158 187 102 9 0 65 441 726 1184 1172 1062 989 773 731 958 1149 1381 1375 1508 1447
0 0 0 0 0 0 0 0 37 28 0 55 20 7 28 213 242 427 547 787 656 323 302 241 287 285 230 98 0 4 445 631 955 1269 1602 1210 1167 745 1010 1253 1517 1625 1677 1891
0 0 0 0 0 0 5 1 3 16 2 12 11 17 55 105 124 131 401 642 771 583 513 314 318 412 366 172 88 0 463 905 1008 1295 1495 1664 1184 1126 1104 1082 1411 1297 1298 1506
1 0 0 0 0 1 30 8 0 0 0 2 0 0 85 57 33 51 33 546 619 784 626 502 439 519 442 241 231 357 524 1011 1225 1264 1487 1636 1671 1177 1157 1457 1208 1015 1107 1333
0 0 0 0 2 9 12 3 1 0 0 0 1 56 36 46 87 154 199 374 537 675 781 791 640 655 545 476 478 366 1007 1247 1411 1266 1481 1882 1894 1544 986 997 679 869 759 1061
9 7 0 0 0 0 15 2 1 17 4 0 60 25 43 62 116 257 344 719 855 524 880 971 635 814 711 696 773 643 1050 1455 1643 1708 1679 1854 2085 1913 1126 744 799 1277 1213 756
4 2 0 0 0 0 0 3 1 3 14 11 22 2 49 58 88 154 478 724 628 726 825 729 674 920 923 931 898 987 1089 1435 1606 1801 1762 1760 1893 2074 1978 1366 1111 571 629 1181
0 4 0 0 0 0 0 0 4 44 3 42 13 58 12 71 44 194 226 257 290 391 363 627 764 432 726 1097 970 980 1194 1429 1609 1801 1792 1778 1809 1892 2068 1810 1556 1361 933 1117
0 0 0 0 0 0 0 0 26 14 0 0 3 0 18 40 37 292 81 19 32 56 105 142 241 487 816 933 1074 1202 1012 1131 1309 1637 1785 1737 1766 1779 1782 1908 1706 1552 1494 1262
0 0 2 0 0 0 0 0 0 11 15 31 5 0 39 87 13 134 102 58 0 1 9 56 44 31 48 197 539 589 958 975 1182 1273 1552 1654 1753 1824 1749 1816 1873 1614 1612 1464
0 0 1 0 0 0 0 0 0 0 0 26 63 2 62 56 22 45 18 10 3 1 1 2 4 12 3 8 12 73 428 871 933 1212 1336 1591 1769 1892 1899 1925 1952 1805 1727 1727
0 2 0 0 0 0 0 0 0 0 0 16 100 61 36 5 16 19 11 4 0 0 0 0 0 0 1 0 0 0 15 206 953 925 1162 1497 1711 1904 1998 2057 2058 1848 1879 1784
0 11 0 0 0 0 0 0 0 0 0 1 123 1 7 0 0 0 0 0 0 0 0 0 0 0 0 0 0 0 0 0 326 640 852 1084 1165 1746 1886 1955 1991 2021 1965 1995
1 26 6 0 0 0 0 0 0 0 0 0 18 1 0 0 0 0 0 0 0 0 0 0 0 0 0 0 0 0 0 0 12 83 101 353 1005 965 1180 1537 1800 1951 2071 2001
0 0 0 0 0 0 0 0 0 0 0 0 0 0 0 0 0 0 0 0 0 0 0 0 0 0 0 0 0 0 0 0 0 0 0 1 48 395 859 957 1239 1364 1762 1961
0 0 0 0 6 0 0 0 0 0 0 0 0 0 0 0 0 0 0 0 0 0 0 0 0 0 0 0 0 0 0 0 0 0 0 0 0 2 33 548 913 909 1065 1359
0 0 0 0 0 0 0 0 0 0 0 0 0 0 0 0 0 0 0 0 0 0 0 0 0 0 0 0 0 0 0 0 0 0 0 0 0 0 4 9 242 650 1233 1528
0 0 0 0 0 13 0 0 0 0 0 0 0 0 0 0 0 0 0 0 0 0 0 0 0 0 0 0 0 0 0 0 0 0 0 0 0 0 0 0 35 358 732 917
6 6 3 1 5 2 0 0 0 0 0 0 0 0 0 0 0 0 0 0 0 0 0 0 0 0 0 0 0 0 0 0 0 0 0 0 0 0 0 0 0 11 169 364
2 27 34 27 32 2 0 0 0 0 0 0 0 0 0 0 0 0 0 0 0 0 0 0 0 0 0 0 0 0 0 0 0 0 0 0 0 0 0 0 0 0 1 41
0 0 0 0 0 0 0 0 0 0 0 0 0 0 0 0 0 0 0 0 0 0 0 0 1 1 0 0 1 2 0 0 0 0 0 0 0 0 0 0 0 0 0 4
3 5 0 0 3 0 0 0 0 0 0 0 0 0 0 0 0 0 0 0 0 0 1 1 1 2 3 8 8 8 12 4 2 0 0 0 0 0 0 0 0 0 0 0
0 0 0 3 10 0 1 0 0 0 0 0 0 0 0 0 0 0 0 0 0 1 3 1 6 4 3 4 5 11 3 7 8 13 2 0 0 0 0 0 0 0 0 0

GFSCGP_con_mlcape_096.txt.gz
CAPE
0 0 0 0 0 0 0 0 135 37 0 215 63 0 479 662 496 200 60 12 13 15 24 1 9 14 1 124 163 308 793 532 949 832 441 924 659 1027 1178 658 1146 1076 1323 1304
0 0 0 0 0 0 0 0 107 6 4 227 16 75 323 744 693 439 162 68 60 26 31 0 5 4 1 119 161 293 1009 592 992 620 733 855 965 1149 1262 536 1287 1387 1273 1430
0 0 0 0 0 0 0 0 97 3 0 191 299 138 0 778 632 742 552 316 153 60 93 0 1 0 3 39 155 305 967 652 849 841 878 942 453 41 1253 829 1494 1536 1528 1316
0 0 0 0 0 0 0 0 6 99 66 15 50 179 567 850 405 177 695 672 524 290 154 2 4 0 1 0 83 348 877 819 867 1223 679 903 603 120 953 802 1433 1297 1398 1290
0 0 0 0 0 0 0 0 52 46 5 2 11 163 250 245 330 0 5 749 482 130 5 22 17 10 1 0 0 313 601 1116 905 1268 1059 591 543 732 490 1016 546 1173 1528 1608
0 0 0 0 0 0 0 0 0 27 12 0 5 0 107 135 9 66 121 758 393 298 34 78 71 89 37 0 0 238 518 846 1362 873 1266 926 600 255 470 671 377 1117 1488 1569
0 0 0 0 0 0 0 0 1 23 5 0 0 14 72 4 0 59 182 683 196 0 158 62 136 166 183 4 0 174 578 753 1177 993 967 1531 1177 1091 598 606 745 1373 1295 1194
0 1 0 0 0 0 0 9 9 9 0 0 0 154 42 31 111 36 309 451 455 12 79 230 300 411 237 209 0 130 519 803 787 1414 1283 1234 1458 1096 879 759 1018 992 853 942
26 8 0 0 0 14 20 7 27 3 0 3 197 115 9 3 101 236 903 749 490 595 391 77 286 531 173 290 162 152 469 717 847 1067 1549 1853 1653 1683 1231 689 625 739 1152 730
6 3 3 0 0 0 4 22 14 15 4 24 317 79 87 53 461 607 686 705 536 562 574 60 15 159 134 150 166 1064 768 1023 1079 1227 1550 1732 1961 1787 1643 1655 967 588 1223 587
0 0 0 0 0 0 0 0 0 2 14 24 314 161 180 265 518 440 262 123 112 176 187 294 331 80 1 420 689 1045 1380 1697 1793 1853 1920 1599 1887 2070 1845 1981 1347 923 1273 967
0 0 1 0 0 0 0 0 4 12 0 4 92 85 29 295 407 162 25 11 3 1 21 76 52 57 224 281 90 609 534 1408 1796 1914 2122 2019 1983 1880 2061 1847 2052 1692 1286 1403
0 1 21 0 0 0 0 0 0 15 33 55 7 34 80 266 172 68 7 0 0 0 0 4 21 21 53 38 48 1 184 486 465 1675 1943 1762 1999 1897 1771 2125 2076 2185 1891 1817
0 0 0 0 2 0 0 0 0 0 4 10 6 0 192 100 25 34 26 0 0 0 0 0 0 0 0 0 0 0 0 222 670 245 689 1641 1663 1858 2008 1947 2124 2089 2202 1978
0 0 1 0 0 0 0 0 0 0 0 190 103 344 234 146 2 0 0 2 0 0 0 0 0 0 0 0 0 0 0 11 150 205 287 469 661 1475 1768 1977 2189 2107 2086 2206
0 4 8 1 0 0 0 0 0 0 0 183 119 211 25 6 4 1 1 5 0 0 0 0 0 0 0 0 0 0 0 0 0 1 1 56 414 569 1352 1558 1592 1760 2049 2158
0 2 29 0 0 0 0 0 0 0 0 361 132 2 0 0 0 0 0 0 0 0 0 0 0 0 0 0 0 0 0 0 0 0 0 0 88 274 144 931 1167 1299 1464 1751
24 19 13 33 9 0 0 0 0 0 0 124 166 42 0 0 0 0 0 0 0 0 0 0 0 0 0 0 0 0 0 0 0 0 0 0 0 6 107 304 592 854 983 1225
0 0 2 1 11 0 0 0 0 0 1 2 14 1 1 0 0 0 0 0 0 0 0 0 0 0 0 0 0 0 0 0 0 0 0 0 0 0 0 0 45 295 662 1022
0 0 0 0 7 1 0 0 0 0 18 0 0 0 0 0 0 0 0 0 0 0 0 0 0 0 0 0 0 0 0 0 0 0 0 0 0 0 0 0 0 17 258 832
0 0 0 0 5 90 0 0 0 0 21 0 0 0 0 0 0 0 0 0 0 0 0 0 0 0 0 0 0 0 0 0 0 0 0 0 0 0 0 0 0 0 6 243
14 1 0 0 16 49 0 0 0 0 0 0 0 0 0 0 0 0 0 0 0 0 0 0 0 0 0 0 0 0 0 0 0 0 0 0 0 0 0 0 0 0 0 1
22 14 61 26 97 5 0 0 0 0 0 0 0 0 0 0 0 0 0 0 0 0 0 0 0 0 0 0 0 0 0 0 0 0 0 0 0 0 0 0 0 0 0 0
1 0 20 41 15 18 0 0 0 0 0 0 0 0 0 0 0 0 0 0 0 0 0 0 0 0 0 0 0 0 0 0 0 0 0 0 0 0 0 0 0 0 0 0
19 17 0 2 7 0 0 0 0 0 0 0 0 0 0 0 0 0 0 0 0 0 0 0 0 0 0 0 0 0 2 3 3 0 0 0 0 0 0 0 0 0 0 0
12 4 31 2 15 16 6 0 0 0 0 0 0 0 0 0 0 0 0 0 0 0 0 0 0 0 0 0 0 1 0 4 4 2 2 0 0 0 0 1 0 0 0 0

GFSCGP_con_mlcape_099.txt.gz
CAPE
0 0 0 0 0 0 0 0 0 31 345 261 128 86 414 329 82 13 3 5 6 3 6 20 11 0 62 64 0 318 169 305 129 231 643 653 644 419 520 566 642 865 1009 1189
0 0 0 0 0 0 0 0 72 87 88 87 3 129 416 536 225 36 7 0 2 2 3 8 7 0 0 48 0 317 292 351 63 141 708 749 805 779 610 559 773 942 967 1008
0 0 0 0 0 0 0 0 20 132 24 117 42 20 73 311 353 103 27 9 3 3 8 4 1 0 0 45 64 450 275 297 117 241 566 460 227 219 488 208 695 1047 1119 990
0 0 0 0 0 0 0 0 0 130 43 108 105 23 0 182 449 189 58 13 5 12 18 8 0 0 0 22 116 482 413 189 459 1185 358 312 180 4 326 578 826 1200 1131 1037
0 0 0 0 0 0 0 0 55 128 35 41 0 23 2 140 284 324 302 160 60 32 32 0 0 0 34 38 75 274 519 355 274 802 858 280 147 10 602 903 970 1143 1120 1068
0 0 0 0 0 0 0 0 107 128 33 4 2 17 44 0 201 89 355 521 333 197 13 4 0 0 10 0 42 207 549 366 227 812 958 471 266 412 517 667 157 616 852 1005
0 0 0 0 0 0 0 0 0 17 18 7 0 31 164 196 117 0 5 0 209 303 173 29 1 0 0 0 101 194 402 411 315 932 624 724 449 93 403 264 108 455 480 752
0 0 0 0 0 0 0 0 0 19 17 10 39 142 60 56 99 50 6 16 88 49 48 85 79 25 0 15 95 216 243 337 373 1314 829 1276 787 555 532 410 198 581 782 741
1 0 0 0 0 0 0 0 0 0 3 2 228 170 102 4 0 55 1 24 172 33 63 233 98 90 93 32 65 135 196 165 246 1093 861 1075 1378 607 509 86 744 1062 1207 930
0 0 0 0 0 0 0 0 0 0 36 33 328 195 171 223 486 678 626 519 413 168 79 101 99 135 3 285 263 243 414 174 148 512 1069 933 970 1309 1376 737 935 969 888 852
0 0 0 0 0 0 0 0 0 0 1 15 61 86 172 459 259 208 93 131 252 14 12 12 2 0 42 30 70 165 369 659 651 449 1090 1235 1111 1047 910 1501 1361 880 865 681
0 0 0 0 0 0 0 0 0 0 0 118 29 51 289 173 25 9 1 0 55 69 130 46 11 0 1 17 1 18 123 499 601 739 1078 1158 1685 1541 1194 1199 1476 1374 908 552
0 0 4 0 0 0 0 0 0 0 0 40 4 10 320 44 31 46 0 0 2 19 52 72 46 74 23 0 1 0 2 325 237 145 520 895 1588 1845 1399 1152 1516 1634 1135 888
0 0 0 0 0 0 0 0 0 0 0 47 62 123 220 119 160 42 2 0 0 0 0 13 0 0 0 1 9 102 65 332 128 7 78 196 450 969 1520 1571 1897 2019 1906 1563
0 0 0 0 0 0 0 0 0 0 86 26 0 67 182 52 3 0 0 0 0 0 0 0 0 0 0 0 0 0 1 44 31 5 28 120 58 428 376 1081 1634 1912 2376 2018
0 0 0 0 0 0 0 0 0 0 126 106 122 146 132 12 0 0 0 0 0 0 0 0 0 0 0 0 1 0 0 0 0 44 141 296 111 0 1 121 695 1109 1524 1881
0 0 0 0 0 0 0 0 0 211 335 220 44 106 12 4 0 0 0 0 0 0 0 0 0 0 0 0 0 0 0 0 0 0 0 68 147 119 125 197 621 935 1126 1206
0 0 0 0 0 0 0 0 0 56 237 154 127 30 12 0 0 0 0 0 0 0 0 0 0 0 0 0 0 0 0 0 0 0 0 0 0 30 109 95 180 352 389 750
0 0 0 0 0 0 0 0 0 61 93 178 66 1 0 0 0 0 0 0 0 0 0 0 0 0 0 0 0 0 0 0 0 0 0 0 0 0 0 0 2 34 122 425
0 0 0 0 1 0 0 0 0 3 0 119 0 0 0 0 0 0 0 0 0 0 0 0 0 0 0 0 0 0 0 0 0 0 0 0 0 0 0 0 0 0 15 24
0 0 0 0 3 12 0 0 0 0 0 16 0 0 0 0 0 0 0 0 0 0 0 0 0 0 0 0 0 0 0 0 0 0 0 0 0 0 0 0 0 0 0 0
19 0 0 0 0 7 0 0 0 0 0 0 0 0 0 0 0 0 0 0 0 0 0 0 0 0 0 0 0 0 0 0 0 0 0 0 0 0 0 0 0 0 0 0
17 17 18 35 15 0 0 0 0 0 0 0 0 0 0 0 0 0 0 0 0 0 0 0 0 0 0 0 0 0 0 0 0 0 0 0 0 0 0 0 0 0 0 0
1 0 3 33 29 0 0 0 0 0 0 0 0 0 0 0 0 0 0 0 0 0 0 0 0 0 0 0 0 0 0 0 0 0 0 0 0 0 0 0 0 0 0 0
36 13 0 0 2 0 0 0 0 0 0 0 0 0 0 0 0 0 0 0 0 0 0 0 0 0 0 0 0 0 0 0 0 0 0 0 0 0 0 0 0 0 0 0
56 52 16 13 64 26 2 0 0 0 0 0 0 0 0 0 0 0 0 0 0 0 0 0 0 0 0 0 0 0 0 0 0 0 0 0 0 0 0 0 0 0 0 0

GFSCGP_con_mlcape_102.txt.gz
CAPE
0 0 0 0 0 0 0 0 6 241 139 65 10 0 0 1 108 129 3 0 5 29 33 24 194 303 222 107 0 33 195 135 241 563 598 448 88 79 0 258 776 983 994 1088
0 0 0 0 0 0 0 0 8 119 58 61 71 116 145 89 162 118 0 0 2 19 34 23 74 155 4 81 176 158 211 140 80 524 675 755 666 409 314 491 695 852 1019 725
0 0 0 0 0 0 0 0 0 21 16 3 88 17 96 113 134 18 2 0 3 4 16 28 42 81 0 31 227 279 310 102 53 485 660 655 582 571 517 572 686 851 978 939
0 0 0 0 0 0 0 0 0 52 80 43 86 1 0 3 39 65 61 5 0 1 15 30 60 86 88 76 242 284 303 171 172 272 443 526 414 272 445 420 615 906 1075 1085
0 0 0 0 0 0 0 0 0 24 81 112 28 0 0 0 79 166 172 16 1 1 6 20 52 82 113 175 228 295 282 237 345 550 591 392 272 145 625 588 701 1042 1145 1009
0 0 0 0 0 0 0 0 83 64 38 6 0 0 2 0 47 206 248 47 51 33 7 1 10 101 131 206 348 267 269 234 255 778 1030 516 219 112 380 833 781 973 938 1033
0 0 0 0 0 0 0 0 0 5 14 0 0 0 3 24 159 313 336 210 124 119 54 2 1 110 174 181 299 388 310 225 228 457 842 688 335 349 548 651 642 799 998 912
0 0 0 0 0 0 0 0 0 0 0 1 7 0 16 31 169 284 214 271 239 215 217 35 0 69 133 137 218 409 377 256 309 365 804 856 597 289 388 668 524 350 489 662
0 0 0 0 0 0 0 0 0 0 0 0 78 49 99 81 2 130 46 187 179 249 165 48 3 28 146 188 313 294 406 299 320 334 844 773 728 445 436 506 339 267 568 707
0 0 0 0 0 0 0 0 0 0 0 0 66 82 44 38 233 174 19 10 161 71 98 193 144 103 137 114 207 347 532 481 469 469 802 789 927 731 470 385 360 614 824 1038
0 0 0 0 0 0 0 0 0 0 0 5 49 60 282 198 337 239 275 210 147 75 38 34 104 156 109 100 91 132 217 617 572 578 837 995 815 1149 1068 562 834 528 1046 952
0 0 0 0 0 0 0 0 0 0 0 52 73 93 191 113 145 188 172 181 54 76 73 21 0 40 240 24 12 0 14 214 390 552 574 743 690 792 737 684 1282 1146 824 713
0 0 0 0 0 0 0 0 0 0 0 0 0 64 121 75 60 31 112 100 93 38 4 59 46 0 64 56 0 16 2 8 19 176 208 256 369 668 802 788 742 1250 903 658
0 0 0 0 0 0 0 0 0 0 0 0 19 150 166 39 26 25 1 1 0 1 7 0 0 16 25 38 55 32 29 40 5 59 139 70 85 330 346 687 733 798 1232 926
0 0 0 0 0 0 0 0 0 0 0 0 117 144 197 44 1 0 0 0 0 0 0 0 0 0 0 0 34 54 40 49 141 50 45 97 1 155 151 57 327 962 966 1174
0 0 0 0 0 0 0 0 0 0 120 93 191 156 53 0 0 0 0 0 0 0 0 0 0 0 0 0 0 0 0 5 16 49 100 161 152 11 0 22 11 237 880 1117
0 0 0 0 0 0 0 0 51 109 115 93 65 100 0 0 0 0 0 0 0 0 0 0 0 0 0 0 0 0 0 0 0 1 6 32 142 97 69 33 8 153 394 574
0 0 0 0 0 0 0 0 31 297 222 171 121 39 0 0 0 0 0 0 0 0 0 0 0 0 0 0 0 0 0 0 0 0 0 0 0 7 39 58 85 201 312 479
0 0 0 0 0 0 0 0 18 25 215 215 78 0 0 0 0 0 0 0 0 0 0 0 0 0 0 0 0 0 0 0 0 0 0 0 0 0 0 0 0 4 54 102
0 0 0 0 0 0 0 0 0 0 50 50 0 0 0 0 0 0 0 0 0 0 0 0 0 0 0 0 0 0 0 0 0 0 0 0 0 0 0 0 0 0 0 0
0 0 0 0 0 0 0 0 0 0 0 38 0 0 0 0 0 0 0 0 0 0 0 0 0 0 0 0 0 0 0 0 0 0 0 0 0 0 0 0 0 0 0 0
0 0 0 0 0 0 0 0 0 0 0 0 0 0 0 0 0 0 0 0 0 0 0 0 0 0 0 0 0 0 0 0 0 0 0 0 0 0 0 0 0 0 0 0
0 0 0 0 0 0 0 0 0 0 0 0 0 0 0 0 0 0 0 0 0 0 0 0 0 0 0 0 0 0 0 0 0 0 0 0 0 0 0 0 0 0 0 0
0 0 0 0 0 0 0 0 0 0 0 0 0 0 0 0 0 0 0 0 0 0 0 0 0 0 0 0 0 0 0 0 0 0 0 0 0 0 0 0 0 0 0 0
0 0 0 0 0 0 0 0 0 0 0 0 0 0 0 0 0 0 0 0 0 0 0 0 0 0 0 0 0 0 0 0 0 0 0 0 0 0 0 0 0 0 0 0
0 1 0 0 0 0 0 0 0 0 0 0 0 0 0 0 0 0 0 0 0 0 0 0 0 0 0 0 0 0 0 0 0 0 0 0 0 0 0 0 0 0 0 0

GFSCGP_con_mlcape_105.txt.gz
CAPE
0 0 0 0 0 0 0 0 32 163 92 10 10 9 12 34 26 0 22 0 6 11 47 97 155 306 304 294 204 363 250 214 522 527 406 306 161 11 58 422 658 717 750 945
0 0 0 0 0 0 0 0 29 166 107 6 0 1 12 28 49 53 75 0 0 19 93 105 182 280 263 269 248 369 280 253 569 556 420 388 257 119 90 244 640 829 871 755
0 0 0 0 0 0 0 0 2 66 36 45 30 19 10 23 45 86 145 0 0 16 64 131 222 289 261 163 200 291 266 115 262 539 505 428 435 406 195 362 569 716 850 744
0 0 0 0 0 0 0 0 0 73 16 0 4 0 58 46 28 72 102 1 14 7 40 119 242 270 183 123 131 89 147 111 76 433 536 522 484 413 405 460 519 634 896 887
0 0 0 0 0 0 0 0 0 1 34 30 13 1 0 127 19 53 112 2 6 8 36 91 178 188 120 167 181 238 205 150 122 294 352 437 466 293 334 382 424 715 865 946
0 0 0 0 0 0 0 7 19 60 41 3 16 18 0 57 82 0 102 29 2 21 21 61 130 106 77 187 191 245 234 164 234 256 277 308 232 217 494 495 346 628 891 945
0 0 0 0 0 0 0 0 0 19 19 3 0 7 0 12 44 6 68 70 2 3 21 35 73 88 86 160 161 204 214 179 253 388 646 496 312 154 164 511 582 547 839 934
0 0 0 0 0 0 0 0 0 0 0 1 0 0 0 36 23 168 260 121 69 8 14 6 25 92 106 161 215 174 186 165 178 337 490 656 453 285 276 504 537 668 763 851
0 0 0 0 0 0 0 0 0 0 0 0 0 11 47 73 92 298 229 170 182 54 8 4 7 119 82 134 275 434 285 195 182 231 356 664 685 422 258 349 491 302 277 679
0 0 0 0 0 0 0 0 0 0 0 0 1 35 46 149 131 97 212 148 141 140 73 57 43 32 176 202 252 337 542 346 281 354 349 596 783 592 376 313 422 388 327 412
0 0 0 0 0 0 0 0 0 0 0 0 0 13 247 334 356 179 68 77 120 165 112 117 108 75 147 213 241 193 219 364 457 496 492 630 894 843 630 478 372 338 396 482
0 0 0 0 0 0 0 0 0 0 0 0 24 13 203 278 259 263 79 62 60 66 101 128 138 190 150 162 70 49 72 81 210 446 549 542 594 741 733 675 603 731 961 805
0 0 0 0 0 0 0 0 0 0 0 6 4 20 161 223 155 139 107 41 48 38 18 5 29 183 91 108 59 39 3 57 39 129 127 144 238 287 403 389 449 577 664 749
0 0 0 0 0 0 0 0 0 0 0 0 0 39 252 202 152 66 33 9 3 2 11 7 1 19 117 76 2 12 0 4 6 44 0 28 94 75 119 95 300 539 783 760
0 0 0 0 0 0 0 0 0 0 0 0 20 41 265 273 132 5 0 0 0 0 0 0 0 0 26 40 29 61 85 107 60 11 4 0 24 0 30 55 8 79 301 769
0 0 0 0 0 0 0 0 0 0 0 14 144 175 195 132 3 0 0 0 0 0 0 0 0 0 0 0 0 0 0 30 100 56 43 84 29 17 17 0 0 21 98 345
0 0 0 0 0 0 0 0 0 80 140 127 111 221 167 81 20 0 0 0 0 0 0 0 0 0 0 0 0 0 0 0 1 2 15 74 179 144 123 90 25 3 84 241
0 0 0 0 0 0 0 3 244 199 276 241 190 109 15 0 0 0 0 0 0 0 0 0 0 0 0 0 0 0 0 0 0 0 0 0 0 15 64 93 91 83 91 105
0 0 0 0 0 0 0 0 0 36 141 187 98 10 0 0 0 0 0 0 0 0 0 0 0 0 0 0 0 0 0 0 0 0 0 0 0 0 0 0 0 0 0 3
0 0 0 0 0 0 0 0 0 17 38 23 3 0 0 0 0 0 0 0 0 0 0 0 0 0 0 0 0 0 0 0 0 0 0 0 0 0 0 0 0 0 0 0
0 0 0 0 0 0 0 0 0 0 0 12 0 0 0 0 0 0 0 0 0 0 0 0 0 0 0 0 0 0 0 0 0 0 0 0 0 0 0 0 0 0 0 0
0 0 0 0 0 0 0 0 0 0 0 12 0 0 0 0 0 0 0 0 0 0 0 0 0 0 0 0 0 0 0 0 0 0 0 0 0 0 0 0 0 0 0 0
0 0 0 0 0 0 0 0 0 0 0 7 0 0 0 0 0 0 0 0 0 0 0 0 0 0 0 0 0 0 0 0 0 0 0 0 0 0 0 0 0 0 0 0
0 0 0 0 0 0 0 0 0 0 0 0 0 0 0 0 0 0 0 0 0 0 0 0 0 0 0 0 0 0 0 0 0 0 0 0 0 0 0 0 0 0 0 0
0 0 0 0 0 0 0 0 0 0 0 0 0 0 0 0 0 0 0 0 0 0 0 0 0 0 0 0 0 0 0 0 0 0 0 0 0 0 0 0 0 0 0 0
0 0 0 0 0 0 0 0 0 0 0 0 0 0 0 0 0 0 0 0 0 0 0 0 0 0 0 0 0 0 0 0 0 0 0 0 0 0 0 0 0 0 0 0

GFSCGP_con_mlcape_108.txt.gz
CAPE
0 0 0 0 0 0 0 51 99 162 102 67 0 0 41 41 84 52 0 7 19 54 58 92 122 203 253 270 254 214 259 271 355 342 275 184 142 154 151 419 614 692 586 663
0 0 0 0 0 0 0 18 53 183 88 2 0 1 33 69 62 57 62 0 0 40 65 107 155 218 277 290 212 326 235 234 355 368 279 257 178 42 57 245 561 716 727 708
0 0 0 0 0 0 0 0 32 64 62 21 3 13 31 66 46 73 84 0 0 1 61 147 177 219 261 257 186 257 148 152 323 397 312 299 256 226 136 201 538 715 788 735
0 0 0 0 0 0 0 0 20 103 9 1 0 0 9 18 21 46 63 40 0 0 62 122 169 203 235 210 176 236 154 119 299 418 433 308 355 311 258 194 430 578 807 745
0 0 0 0 0 0 0 0 0 8 10 11 9 0 0 25 44 6 19 31 0 6 36 96 131 177 219 192 169 188 247 127 116 351 401 318 336 299 293 309 444 535 733 855
0 0 0 0 0 0 0 0 19 18 10 0 2 1 0 36 22 0 7 20 0 7 24 71 128 195 250 187 147 129 151 131 73 98 293 330 256 213 288 311 293 515 740 830
0 0 0 0 0 0 0 0 2 0 0 0 0 0 0 3 50 43 6 43 18 5 14 50 114 175 187 236 161 121 54 79 121 92 172 194 279 220 255 377 295 360 668 828
0 0 0 0 0 0 0 0 0 0 0 0 0 1 0 3 0 70 12 35 19 0 5 29 130 156 93 201 195 194 156 97 109 194 221 245 191 176 148 201 459 412 544 692
0 0 0 0 0 0 0 0 0 0 0 0 0 0 20 35 8 33 47 63 13 0 12 32 97 102 77 192 282 216 179 142 99 251 443 570 357 313 237 257 381 331 513 650
0 0 0 0 0 0 0 0 0 0 0 0 0 0 5 46 73 164 195 146 80 0 14 42 30 29 121 137 153 337 240 203 185 163 211 361 443 302 244 129 257 262 130 244
0 0 0 0 0 0 0 0 0 0 0 0 0 0 119 80 102 230 252 245 106 26 7 19 63 62 81 71 94 172 239 337 309 261 316 358 481 407 246 296 271 211 150 312
0 0 0 0 0 0 0 0 0 0 0 0 0 0 170 271 296 167 151 203 88 41 67 97 66 83 93 117 130 71 51 95 153 218 426 466 509 547 580 551 545 388 353 462
0 0 0 0 0 0 0 0 0 0 8 17 0 0 215 237 235 173 98 110 49 35 57 128 176 189 167 135 75 29 14 33 110 102 172 260 262 294 318 353 372 318 395 422
0 0 0 0 0 0 0 0 0 0 0 4 0 57 283 204 233 196 198 87 68 48 20 44 96 187 117 62 7 4 11 34 53 5 0 28 61 53 64 21 73 156 409 534
0 0 0 0 0 0 0 0 0 0 0 0 1 48 243 249 150 175 127 138 98 37 12 1 2 14 80 32 10 21 4 8 11 0 4 0 0 75 0 0 0 34 76 336
0 0 0 0 0 0 0 0 0 0 0 1 60 158 315 191 44 84 65 37 21 0 0 0 0 0 0 1 0 0 0 34 131 36 1 37 106 19 18 0 0 0 6 153
0 0 0 0 0 0 0 0 0 37 100 142 22 169 269 141 76 11 0 0 0 0 0 0 0 1 1 0 0 0 1 1 0 0 0 0 43 108 107 78 5 8 23 172
0 0 0 0 0 0 0 39 39 187 216 200 299 346 114 6 0 0 0 0 0 0 0 0 0 0 0 0 0 0 0 0 0 0 0 0 0 0 0 0 0 13 22 32
0 0 0 0 0 0 0 0 0 8 56 173 308 129 0 0 0 0 0 0 0 0 0 0 0 0 0 0 0 0 0 0 0 0 0 0 0 0 0 0 0 0 0 0
0 0 0 0 0 0 0 0 0 0 0 114 80 0 0 0 26 0 0 0 0 0 0 0 0 0 0 0 0 0 0 0 0 0 0 0 0 0 0 0 0 0 0 0
0 0 0 0 0 0 0 0 0 0 0 125 31 7 0 2 0 0 0 0 0 0 0 0 0 0 0 0 0 0 0 0 0 0 0 0 0 0 0 0 0 0 0 0
0 0 0 0 0 0 0 0 0 0 0 43 24 0 10 0 0 0 0 0 0 0 0 0 0 0 0 0 0 0 0 0 0 0 0 0 0 0 0 0 0 0 0 0
0 0 0 0 0 0 0 0 0 0 0 0 9 0 0 0 0 0 0 0 0 0 0 0 0 0 0 0 0 0 0 0 0 0 0 0 0 0 0 0 0 0 0 0
0 0 0 0 0 0 0 0 0 0 0 0 0 0 0 0 0 0 0 0 0 0 0 0 0 0 0 0 0 0 0 0 0 0 0 0 0 0 0 0 0 0 0 0
0 0 0 0 0 0 0 0 0 0 0 0 0 0 0 0 0 0 0 0 0 0 0 0 0 0 0 0 0 0 0 0 0 0 0 0 0 0 0 0 0 0 0 0
0 0 0 0 0 0 0 0 0 0 0 0 0 0 0 0 0 0 0 0 0 0 0 0 0 0 0 0 0 0 0 0 0 0 0 0 0 0 0 0 0 0 0 0

GFSCGP_con_mlcape_111.txt.gz
CAPE
0 0 0 0 0 0 0 0 137 140 150 116 40 5 8 67 81 77 98 72 98 111 158 170 208 241 301 436 522 472 461 636 622 567 580 474 457 571 602 1016 1140 1142 901 1103
0 0 0 0 0 0 288 196 118 212 95 73 13 10 47 62 125 72 99 117 126 141 165 189 192 295 349 419 489 518 360 431 709 704 707 664 479 489 574 788 1066 1265 1252 1156
0 0 0 0 0 0 0 14 106 160 144 52 74 31 72 100 126 151 82 73 92 141 160 224 230 313 362 415 422 434 477 551 683 724 655 577 547 496 294 470 976 1164 1312 1231
0 0 0 0 0 0 0 0 180 135 26 58 0 0 11 124 111 98 94 41 6 57 163 238 260 332 347 409 436 447 553 539 615 725 707 393 489 392 540 479 1002 1144 1374 1323
0 0 0 0 0 0 0 0 173 138 60 16 0 0 1 8 85 50 75 85 12 10 105 169 251 331 334 432 411 402 486 366 543 747 811 534 320 349 702 585 876 1054 1162 979
0 0 0 0 0 0 0 85 142 101 64 0 0 0 19 14 0 63 74 100 90 0 46 139 215 342 363 428 407 367 398 304 377 689 767 689 356 314 683 645 568 697 967 1049
0 0 0 0 0 0 0 0 0 0 0 0 0 0 6 46 59 63 57 106 77 46 33 131 238 332 313 276 396 408 392 462 337 369 615 704 467 455 560 396 720 707 1081 1120
0 0 0 0 0 0 0 0 0 0 0 0 5 0 27 50 42 147 87 34 69 66 53 132 248 341 321 300 298 405 363 451 431 343 393 598 609 632 655 748 904 665 909 603
0 0 0 0 0 0 0 0 0 0 0 0 14 30 48 117 65 152 131 63 36 48 86 123 246 275 268 376 350 414 464 396 375 419 294 503 598 552 512 512 729 749 897 915
0 0 0 0 0 0 0 0 0 0 0 0 0 9 103 134 149 102 183 159 103 71 102 136 293 211 245 266 194 416 437 396 417 552 414 552 894 759 628 612 625 610 657 789
0 0 0 0 0 0 0 0 0 0 0 0 0 8 131 209 301 312 342 223 195 75 120 203 219 155 110 136 116 209 413 510 419 469 523 517 773 816 702 677 651 567 609 636
0 0 0 0 0 0 0 0 0 0 0 0 0 11 309 549 425 531 508 418 223 114 159 167 130 322 240 113 101 132 283 405 540 527 598 531 693 841 734 764 799 648 442 652
0 0 0 0 0 0 0 0 0 0 9 19 4 3 453 592 497 491 393 334 208 177 147 141 37 137 196 127 64 28 181 246 392 472 708 852 594 863 915 990 1018 945 874 776
0 0 0 2 0 0 0 0 0 0 0 28 14 21 282 469 613 398 299 275 181 131 124 144 180 155 198 81 75 48 32 15 43 115 205 317 430 467 634 753 823 855 895 852
0 0 0 0 0 0 0 0 0 0 0 0 21 54 338 565 605 451 293 215 190 160 104 180 212 183 119 84 46 17 46 50 75 68 88 85 228 195 181 219 273 346 611 801
0 0 0 0 0 0 0 0 21 0 0 55 93 132 690 552 476 278 299 135 92 26 32 44 89 99 73 18 5 1 23 82 112 71 56 40 165 31 149 41 68 100 260 545
0 2 0 0 0 0 0 27 83 98 129 240 98 350 646 403 380 182 94 43 9 5 2 2 0 0 1 1 1 0 0 1 6 6 4 9 19 201 260 236 183 136 267 474
0 0 0 0 0 5 0 76 49 272 226 244 394 484 521 261 75 39 17 0 0 1 2 2 1 1 1 2 1 1 0 0 0 0 0 0 0 0 7 24 21 38 156 201
0 0 0 0 0 0 0 0 1 10 130 320 480 374 87 3 0 0 0 0 0 0 2 1 0 0 0 0 0 0 0 0 0 0 0 0 0 0 0 0 0 0 1 0
0 0 0 0 5 0 0 0 0 0 0 229 480 150 29 9 79 17 0 0 0 0 0 0 0 0 0 0 0 0 0 0 0 0 0 0 0 0 0 0 0 0 1 2
0 0 0 0 0 0 0 0 0 0 0 265 313 142 33 120 134 0 0 0 0 0 0 0 0 0 0 0 0 0 0 0 0 0 0 0 0 0 0 0 0 0 0 0
0 0 0 0 0 0 0 0 0 0 0 40 183 128 97 15 0 0 0 0 0 0 0 0 0 0 0 0 0 0 0 0 0 0 0 0 0 0 0 0 0 0 0 0
0 0 0 0 0 0 0 0 0 0 0 0 182 96 5 0 0 0 0 0 0 0 0 0 0 0 0 0 0 0 0 0 0 0 0 0 0 0 0 0 0 0 0 0
0 0 0 0 0 0 0 0 0 0 0 0 27 0 0 0 0 0 0 0 0 0 0 0 0 0 0 0 0 0 0 0 0 0 0 0 0 0 0 0 0 0 0 0
0 0 0 0 0 0 0 0 0 0 0 0 0 0 0 0 0 0 0 0 0 0 0 0 0 0 0 0 0 0 0 0 0 0 0 0 0 0 0 0 0 0 0 0
0 0 0 0 0 0 0 0 0 0 0 0 0 0 0 0 0 0 0 0 0 0 0 0 0 0 0 0 0 0 0 0 0 0 0 0 0 0 0 0 0 0 0 0

GFSCGP_con_mlcape_114.txt.gz
CAPE
0 0 0 0 1 0 0 0 238 205 83 149 81 12 75 48 28 48 42 70 106 130 230 182 141 136 285 397 572 677 712 830 892 864 550 600 636 807 864 1031 1504 1505 1378 1579
0 0 0 0 2 0 2 1 251 213 374 143 101 112 92 75 0 97 59 52 98 116 140 297 238 258 341 545 577 638 732 926 993 913 794 760 685 759 795 1062 1370 1383 1331 1608
0 0 0 0 0 0 187 132 220 184 251 231 113 97 146 66 40 77 78 120 75 97 160 305 316 310 368 584 735 697 794 923 904 758 988 845 1077 1003 878 983 974 1228 1463 1416
0 0 0 0 0 0 0 6 203 364 193 123 249 3 170 90 112 130 62 103 112 96 124 223 328 360 368 508 735 800 855 1123 801 1093 861 803 678 659 631 660 909 1007 1273 1243
0 0 0 0 0 0 0 4 134 216 137 140 105 0 12 177 153 76 126 44 62 81 76 129 239 348 374 482 588 704 897 1161 945 863 759 604 525 556 703 840 1234 1075 1455 1382
0 0 0 0 0 0 0 3 19 25 109 4 37 71 44 181 153 180 133 135 22 58 55 89 142 298 483 460 546 547 783 1028 1028 1189 913 696 663 623 728 853 951 912 868 940
0 0 0 0 0 0 0 13 4 0 0 36 0 0 72 61 89 201 204 159 182 10 32 59 153 311 544 471 543 484 772 945 936 1041 985 938 621 686 539 728 648 601 835 857
0 0 0 0 0 0 0 10 4 6 43 74 69 0 45 97 94 141 210 176 209 151 45 78 194 312 536 530 640 544 806 952 907 871 896 1025 1018 582 487 616 954 862 891 617
0 0 0 0 0 0 0 0 3 9 53 63 86 82 165 197 186 180 214 206 110 235 113 126 208 346 634 580 691 724 830 992 932 837 1012 1004 935 663 487 759 716 928 1299 858
1 0 0 0 0 0 0 0 3 0 32 20 102 72 293 354 303 256 230 236 147 162 165 198 264 413 613 389 813 703 925 1071 940 765 902 690 852 954 741 789 755 1118 1396 1431
0 0 0 0 0 0 0 0 0 10 0 56 73 96 592 713 590 450 388 249 192 162 162 281 375 636 697 758 730 784 977 943 740 607 698 524 738 726 913 849 1035 967 1228 1517
0 1 26 0 0 0 0 0 0 0 8 0 64 402 657 823 792 562 640 494 309 274 266 371 757 816 863 732 356 188 725 811 867 863 942 888 799 898 789 864 1126 1272 1240 1395
9 0 31 25 0 0 0 0 0 0 3 21 11 136 976 964 933 931 920 769 536 374 610 720 480 371 353 476 479 181 179 398 800 971 830 770 680 834 816 968 645 913 1103 1184
0 50 38 21 16 2 0 0 0 4 12 19 58 272 863 973 894 628 699 648 622 621 633 312 304 299 570 427 185 153 239 415 670 907 919 1030 988 1024 894 903 987 934 1222 1099
3 87 60 9 28 12 2 0 0 0 0 25 25 37 421 944 1072 631 504 603 595 544 535 418 192 93 173 148 77 72 106 53 67 212 413 582 904 1037 1224 1276 1158 1134 1258 1050
20 50 83 36 1 86 44 35 11 3 4 25 12 363 1025 1095 1063 929 556 399 363 393 295 245 583 432 458 304 103 64 49 3 46 41 106 207 504 493 531 704 880 872 944 1157
2 42 92 95 28 10 159 248 194 157 205 274 56 693 1101 1046 907 570 365 213 110 80 67 55 68 57 49 58 51 17 18 115 207 184 142 178 155 114 281 315 375 371 489 820
3 8 32 126 55 91 108 86 40 282 403 344 472 716 1112 857 506 299 138 92 18 4 6 4 3 1 2 1 1 0 1 0 31 79 71 97 37 16 23 139 259 375 461 632
55 5 0 30 30 4 8 31 20 43 347 337 710 918 740 534 282 60 2 36 9 3 5 6 5 5 5 4 4 2 5 1 1 1 0 4 0 0 0 0 6 95 279 275
0 0 8 0 60 15 6 0 0 0 178 520 782 722 518 551 534 146 1 0 2 1 1 2 1 0 0 0 0 0 1 0 0 0 0 0 1 0 0 0 2 15 112 123
38 37 11 19 43 18 0 0 0 39 63 21 669 654 473 583 462 59 0 2 0 0 0 0 0 0 0 0 0 0 0 0 0 0 0 0 0 0 0 0 2 1 1 0
76 28 15 3 5 7 0 0 35 3 0 0 367 461 372 149 59 50 13 5 0 0 0 0 0 0 0 0 0 0 0 0 0 0 0 0 0 0 0 0 0 0 0 0
45 68 160 36 47 0 0 0 0 0 2 0 144 364 411 186 95 51 3 13 7 2 1 0 0 0 0 0 0 0 0 0 0 0 0 0 0 0 0 0 0 0 0 0
0 12 89 15 0 0 0 0 0 0 0 76 132 381 311 169 79 5 4 3 2 0 0 0 0 0 0 0 0 0 0 0 0 0 0 0 0 0 0 0 0 0 0 0
0 0 0 8 8 0 0 0 0 0 0 38 193 228 228 151 82 5 5 0 0 0 0 0 0 0 0 0 0 0 0 0 0 0 0 0 0 0 0 0 0 0 0 0
0 0 0 0 7 0 1 0 0 0 0 6 50 132 141 163 76 8 2 0 0 0 0 0 0 0 0 0 0 0 0 0 0 0 0 0 0 0 0 0 0 0 0 0

GFSCGP_con_mlcape_117.txt.gz
CAPE
0 0 0 0 48 39 8 23 161 70 100 19 11 30 0 0 1 21 55 69 83 94 89 56 134 121 120 211 547 860 685 844 852 809 620 759 613 539 430 635 1014 1368 1191 1383
0 0 0 0 67 59 0 24 145 129 56 0 54 106 31 0 0 94 53 52 70 100 110 99 149 125 116 158 387 714 994 948 1010 776 780 821 760 772 787 1088 665 914 1120 1439
0 0 0 0 15 41 0 88 182 67 67 39 60 81 114 2 0 6 79 48 86 107 84 102 167 166 250 216 274 471 1046 990 1254 1040 1298 1147 952 1022 825 1113 1035 1375 1073 1119
0 0 0 0 1 21 27 151 58 183 162 89 192 99 202 127 0 25 68 69 32 98 41 194 163 172 273 249 412 368 816 1181 1082 1110 862 802 760 706 734 771 941 1134 1276 1155
0 0 0 0 0 13 6 0 27 12 274 1 236 124 250 131 0 1 45 78 44 46 96 136 179 230 178 243 357 425 552 1012 934 937 939 717 905 763 545 1006 1480 1253 1394 1440
0 0 0 0 0 21 0 0 93 205 151 117 125 110 264 59 0 2 131 101 97 99 86 113 143 162 269 192 286 365 534 890 1149 1034 897 918 1109 987 939 1120 999 712 1162 1035
0 0 0 0 0 22 0 3 86 76 73 81 97 105 107 227 109 146 128 118 82 83 102 129 94 139 356 142 188 298 569 952 842 931 961 1011 1044 1137 837 1242 992 558 462 723
0 0 0 0 0 2 0 45 141 76 62 101 60 49 229 245 303 261 136 207 97 108 98 102 133 182 124 205 113 227 803 991 1025 683 749 953 1064 889 804 1039 866 606 562 684
0 0 0 0 0 0 1 18 130 108 52 4 67 323 278 197 174 272 352 200 84 91 42 81 116 119 173 277 316 253 862 1081 854 953 887 965 955 887 842 1054 1311 939 1282 706
5 3 1 0 0 0 0 5 68 101 33 33 110 0 289 227 206 209 232 341 236 196 174 80 132 110 395 497 445 465 839 958 795 737 1029 1011 880 858 744 981 987 1172 1398 1280
0 1 1 0 0 0 0 0 10 87 58 10 70 25 461 384 399 245 289 371 340 313 146 267 136 317 252 585 913 773 949 1112 861 562 614 622 543 617 769 776 826 1011 1418 1821
0 6 0 0 0 0 0 0 6 33 30 3 0 1 447 743 536 503 409 579 404 302 209 278 248 209 690 947 934 762 1183 1151 911 605 944 814 705 541 563 556 1004 1037 1227 1480
38 0 5 16 0 0 0 0 0 0 13 29 9 281 64 1009 892 730 581 398 323 213 229 188 245 532 1111 1081 986 961 954 896 1111 1179 1093 1052 940 766 561 591 778 1134 1162 1113
2 35 8 51 20 6 0 0 0 0 0 0 52 793 1045 1122 1188 1265 1082 882 544 471 444 531 992 1122 1168 1016 1026 771 497 503 616 851 1058 977 1039 1018 771 476 741 866 1126 1299
20 15 36 9 24 11 0 0 0 0 0 9 23 220 782 975 1084 989 1060 1070 820 735 992 900 858 948 700 714 736 472 233 120 122 298 652 834 952 1016 1210 1157 1015 802 984 975
158 142 81 0 0 8 10 0 4 1 0 2 5 5 178 859 988 784 777 1011 924 899 775 837 836 314 160 166 241 152 91 83 42 69 265 589 801 973 1049 1353 1346 1146 934 1062
53 61 125 67 16 8 27 70 36 43 45 78 260 348 169 1278 1391 810 740 555 689 495 493 631 590 491 414 422 345 238 169 98 28 38 124 315 443 621 827 858 854 603 743 664
35 64 37 137 59 9 173 15 126 325 299 230 260 637 531 1084 837 674 615 300 116 77 86 85 53 52 106 210 156 46 121 218 160 213 225 217 205 223 280 373 380 500 617 569
44 13 0 9 0 49 75 0 62 170 338 327 564 922 1032 915 651 422 362 311 230 75 3 3 4 5 4 3 3 4 31 79 145 113 144 165 227 239 82 23 0 50 207 214
18 12 25 75 19 89 238 0 0 19 123 197 768 701 672 621 603 443 172 174 62 6 3 3 2 4 2 2 2 1 2 2 1 0 17 48 27 19 0 0 5 86 190 86
52 49 24 28 19 32 5 0 0 48 112 56 849 787 757 689 704 310 154 85 48 8 2 0 0 0 0 0 0 1 0 0 0 0 0 9 5 2 7 9 15 19 10 0
197 149 67 36 47 3 0 25 139 83 75 46 407 645 574 424 386 215 132 69 12 6 1 0 0 0 0 0 0 0 0 0 0 0 1 0 0 0 3 11 8 15 7 1
34 332 337 286 226 7 1 29 5 17 104 131 129 443 604 399 267 156 38 29 2 0 0 0 0 0 0 0 0 0 0 0 0 0 0 2 1 3 1 1 0 1 0 1
22 123 14 179 29 1 0 0 0 0 16 126 213 391 570 353 259 173 112 75 13 0 0 0 0 0 0 0 0 0 0 0 0 0 0 0 0 0 0 0 0 0 0 0
108 95 13 117 262 70 2 0 0 0 0 62 297 342 353 385 208 137 74 34 4 5 1 0 0 0 0 0 0 0 0 0 0 0 0 0 0 0 0 0 0 0 0 0
1 0 0 117 132 50 125 16 0 0 0 2 118 360 411 317 236 128 59 1 1 0 0 0 0 0 0 0 0 0 0 0 0 0 0 0 0 0 0 0 0 0 0 0

GFSCGP_con_mlcape_120.txt.gz
CAPE
0 0 0 0 0 14 23 69 103 64 69 23 41 34 5 171 40 30 46 57 70 55 52 38 59 223 300 209 247 651 402 564 639 535 334 272 486 669 1167 1078 1060 1741 1233 1537
0 0 0 0 0 1 27 208 122 78 54 32 20 26 28 63 50 43 46 63 47 74 48 37 65 133 499 506 125 439 522 590 622 705 493 611 393 553 1014 1277 1090 930 1038 1228
0 0 0 0 0 0 54 178 172 52 22 1 22 27 60 16 5 14 67 91 64 45 34 109 56 42 126 700 517 783 696 839 615 339 373 387 658 449 914 658 700 1192 922 1119
0 0 0 0 0 0 61 231 246 127 15 12 24 32 32 1 0 0 42 84 65 36 52 63 40 84 70 248 809 1063 1218 937 807 666 699 199 261 331 619 896 857 862 1035 1155
0 0 0 0 0 0 124 62 285 118 87 71 21 79 90 23 0 0 0 30 20 15 68 105 87 129 66 156 202 1188 1176 1108 994 561 676 441 758 719 366 758 925 1007 1032 850
0 0 0 0 0 0 24 170 99 10 4 3 51 106 188 119 52 0 0 46 28 37 76 42 118 66 218 161 160 498 979 848 1014 548 623 600 569 506 590 820 682 984 1367 1022
0 0 0 0 0 0 27 0 16 0 9 8 41 171 73 218 117 0 0 15 9 18 79 37 51 142 124 207 347 316 897 888 818 1067 970 823 690 628 682 771 868 878 1055 850
0 0 0 0 0 0 60 2 72 84 67 51 110 19 39 209 105 0 0 28 45 20 15 56 69 133 127 230 428 333 825 792 886 1034 738 695 842 844 880 939 869 935 568 828
0 0 0 0 0 0 31 0 7 61 46 73 35 6 393 160 20 0 1 8 34 89 10 104 170 120 20 147 393 565 884 511 813 782 610 720 976 739 850 1183 772 1492 655 1139
0 0 0 0 0 0 0 4 7 9 53 59 30 39 90 100 51 25 73 128 66 74 135 130 205 140 57 106 124 925 1151 806 863 814 787 739 852 799 861 1052 1269 1019 690 1372
0 0 0 4 0 0 0 0 0 10 17 11 0 12 200 21 17 395 274 159 182 95 112 193 199 185 73 11 146 1202 1424 1069 799 1260 827 742 676 831 667 879 983 1130 1310 1207
1 2 1 0 1 0 0 0 0 0 0 0 6 74 0 0 1 3 454 487 191 118 143 313 230 259 313 389 135 922 968 1119 941 628 837 952 803 858 528 582 850 978 1421 1150
7 0 0 1 3 0 0 0 0 0 0 0 20 101 6 145 461 500 389 509 249 458 268 112 38 277 41 0 128 229 566 496 1035 579 880 612 740 452 706 450 405 1174 1233 1174
0 0 1 25 29 0 0 0 0 0 0 0 0 415 428 220 766 619 627 695 846 619 184 22 25 409 4 0 149 797 480 193 364 758 588 621 860 675 465 662 746 709 882 1354
8 20 68 7 24 2 27 0 0 0 0 0 140 377 542 391 715 780 729 831 732 624 513 199 55 307 12 0 163 1023 830 572 336 256 289 232 319 483 671 698 918 731 859 1027
92 96 115 58 27 0 2 0 0 0 0 0 7 374 40 0 3 200 906 732 681 592 432 901 754 592 75 67 610 695 509 250 191 80 107 169 277 442 564 704 679 762 873 969
179 270 201 189 78 1 20 168 171 17 27 20 253 722 0 0 0 0 632 944 1053 1236 1183 954 660 525 396 350 490 490 341 211 109 67 67 32 102 164 332 693 989 1029 673 872
103 246 27 154 40 0 106 101 63 220 335 552 845 548 5 0 128 555 638 369 411 314 203 214 316 339 446 315 293 296 328 191 94 43 39 19 15 45 166 287 583 749 369 297
6 86 62 25 111 1 14 40 0 0 268 10 507 0 32 414 353 403 345 276 242 75 1 1 3 3 3 13 64 118 208 257 168 103 80 29 27 126 80 29 58 79 126 82
0 93 51 112 33 4 0 0 0 0 65 20 7 123 165 393 179 159 289 158 59 3 2 1 4 3 2 2 2 0 0 4 14 47 58 65 139 74 44 22 12 48 22 0
14 59 65 0 13 0 0 0 0 12 85 44 506 553 19 232 446 283 263 144 9 3 2 0 0 1 2 2 0 0 0 0 0 0 0 17 45 29 7 0 8 12 2 0
5 8 145 4 1 23 1 7 101 119 104 5 238 494 477 670 626 462 298 74 3 1 1 0 0 0 0 0 0 0 0 0 0 0 0 0 0 0 4 21 36 5 0 3
4 0 29 263 169 47 31 34 46 82 132 110 19 549 315 497 420 265 142 19 0 0 0 0 0 0 0 0 0 0 0 0 0 0 0 0 0 0 0 0 0 0 6 1
37 51 248 349 120 12 1 0 0 0 19 28 126 390 511 457 334 179 82 8 0 0 0 0 0 0 0 0 0 0 0 0 0 0 0 0 0 0 0 0 0 0 0 0
183 115 0 356 247 111 10 1 0 0 0 0 41 124 473 462 413 176 113 33 0 0 0 0 0 0 0 0 0 0 0 0 0 0 0 0 0 0 0 0 0 0 0 0
0 0 0 196 380 222 69 32 0 0 0 0 5 90 306 406 317 176 184 98 19 2 2 0 0 0 0 0 0 0 0 0 0 0 0 0 0 0 0 0 0 0 0 0

GFSCGP_con_mlcape_123.txt.gz
CAPE
0 0 0 0 0 0 27 41 67 47 51 19 13 40 54 77 99 24 25 44 27 19 40 49 60 78 102 104 289 278 189 96 673 377 197 329 300 1001 775 926 903 1363 1016 0
0 0 0 0 0 0 21 21 48 61 47 46 28 25 22 53 79 87 50 30 33 15 18 42 105 121 105 78 177 194 253 290 264 291 249 423 558 780 1021 755 1368 911 1180 1046
0 0 0 0 0 0 38 65 37 33 63 18 11 7 5 23 38 40 40 49 31 12 9 62 143 124 87 61 139 315 160 240 146 281 237 395 654 518 802 902 514 1019 1074 895
0 0 0 0 0 0 13 114 21 69 10 0 3 0 8 3 16 23 26 86 87 16 8 46 109 187 90 62 31 242 243 251 272 0 168 265 341 252 537 612 381 645 621 956
0 0 0 0 0 0 66 0 71 86 7 1 6 0 0 11 0 0 0 46 57 13 38 7 48 288 277 120 137 283 196 309 336 271 95 165 250 274 317 565 869 763 813 717
0 0 0 0 0 10 207 174 115 50 0 0 0 7 3 0 4 0 0 13 42 10 18 57 36 193 434 400 542 593 227 225 433 399 369 141 231 479 287 436 712 780 669 486
0 0 0 0 0 37 161 134 21 0 0 0 0 0 0 28 26 15 0 0 18 21 15 17 33 40 57 450 709 767 545 358 630 298 360 354 434 426 385 473 571 563 629 669
0 0 0 0 0 0 8 20 13 0 0 0 2 0 41 98 124 36 0 0 13 52 7 7 74 44 103 151 844 837 607 471 472 420 487 511 508 360 177 418 654 847 624 622
0 0 0 0 0 0 0 42 12 11 13 0 3 14 0 292 300 95 4 0 6 72 21 12 58 15 134 158 473 565 517 348 421 748 806 699 670 568 609 707 917 926 829 769
0 0 0 0 0 0 0 1 6 0 9 0 30 58 83 253 144 113 41 0 50 74 26 42 25 4 71 304 312 632 451 262 340 837 521 521 601 688 857 1009 972 878 799 881
0 0 0 0 0 0 0 0 0 0 2 18 10 6 179 0 127 46 53 50 79 108 74 33 36 115 123 314 536 670 449 393 514 768 580 693 573 537 788 845 669 987 944 1198
0 0 0 0 1 0 0 0 0 0 0 0 0 1 237 117 0 0 2 32 87 169 105 93 161 145 109 414 717 755 581 358 398 1052 555 441 772 914 638 785 812 807 950 1004
0 0 0 0 1 1 0 0 0 0 0 0 0 13 123 234 54 0 15 34 74 231 131 189 197 136 138 195 531 674 787 538 485 1073 823 418 568 764 694 435 891 828 855 786
0 0 0 0 0 0 0 1 0 0 0 0 0 48 69 54 5 0 0 89 249 294 187 173 126 120 90 81 241 469 530 375 338 316 563 406 463 476 571 660 589 631 918 802
10 0 0 14 0 0 0 0 41 0 0 0 95 355 187 211 100 9 5 9 273 300 169 284 52 65 61 11 2 231 201 119 217 202 318 222 21 46 279 380 556 754 771 669
86 90 150 29 43 40 12 135 157 51 339 177 548 482 126 250 22 64 0 0 51 282 120 244 158 31 37 0 0 105 180 121 175 191 350 189 67 0 13 88 215 518 725 898
20 283 98 149 152 77 13 45 85 150 609 666 328 113 3 11 2 0 0 0 160 639 583 357 154 138 46 2 16 206 155 202 202 211 237 184 69 7 2 29 161 198 267 618
14 169 132 70 190 74 50 0 1 3 106 428 243 0 0 7 0 0 12 207 196 144 274 310 297 197 47 73 294 257 224 156 153 156 118 92 97 84 105 128 158 208 185 249
41 1 121 44 96 102 59 0 0 0 16 118 93 189 507 348 79 141 68 42 44 3 2 0 2 9 60 96 250 273 253 201 158 157 112 121 117 43 28 31 40 84 68 85
0 68 86 57 0 17 35 0 0 0 2 358 107 160 220 227 130 104 74 14 2 1 0 1 2 2 15 43 90 57 31 12 126 209 163 190 173 123 35 22 35 24 1 1
8 0 2 83 91 0 0 0 0 0 2 399 74 0 0 0 172 194 68 0 0 1 2 1 0 2 1 1 1 0 2 0 0 28 94 89 65 29 13 9 2 0 0 0
0 1 9 16 17 3 11 37 93 92 34 230 132 145 68 112 279 176 99 7 0 0 0 0 0 1 1 0 0 0 0 0 0 0 2 18 46 65 45 3 2 0 0 0
2 0 18 0 19 68 32 14 59 67 84 133 462 410 356 343 249 174 74 18 0 0 0 0 0 0 0 0 0 0 0 0 0 0 0 0 0 0 0 1 9 1 0 0
21 0 0 86 41 75 19 4 1 16 25 34 543 490 304 210 159 128 39 11 0 0 0 0 0 0 0 0 0 0 0 0 0 0 0 0 0 0 0 0 0 0 0 0
59 20 4 40 106 40 2 0 0 0 0 2 164 417 234 245 161 113 25 0 0 0 0 0 0 0 0 0 0 0 0 0 0 0 0 0 0 0 0 0 0 0 0 0
12 0 3 155 140 127 7 0 0 0 0 0 202 504 522 212 173 103 35 0 0 0 0 0 0 0 0 0 0 0 0 0 0 0 0 0 0 0 0 0 0 0 0 0

GFSCGP_con_mlcape_126.txt.gz
CAPE
0 0 0 0 0 0 0 15 53 37 35 35 6 18 27 35 77 16 10 10 65 52 122 78 26 89 110 124 279 300 152 141 394 512 534 399 478 532 650 804 891 1174 743 413
0 0 0 0 0 0 0 58 109 16 46 25 15 10 16 18 40 42 22 12 39 36 82 73 28 116 142 185 319 245 89 306 326 346 370 507 614 732 670 677 1031 958 540 678
0 0 0 0 0 0 58 96 22 15 60 19 10 5 8 14 25 55 36 34 30 19 35 83 57 102 162 189 222 178 144 264 224 258 212 412 496 702 747 822 898 888 1097 999
0 0 0 0 0 0 0 180 1 2 43 8 1 0 7 13 21 32 14 23 16 17 39 27 77 70 99 157 208 213 189 191 139 111 155 303 239 318 472 606 494 864 942 830
0 0 0 0 0 0 83 78 109 96 45 6 1 1 0 0 7 4 0 7 43 17 25 2 65 70 36 99 179 218 194 186 114 15 125 243 307 268 477 552 407 614 653 875
0 0 0 0 1 0 75 35 47 56 0 19 9 0 0 0 0 0 0 0 20 12 27 73 116 93 6 67 213 160 179 149 197 2 88 179 188 270 268 450 597 467 631 643
0 0 0 0 168 316 29 3 0 14 4 0 0 0 0 4 0 0 0 2 9 8 18 100 146 194 102 0 151 173 219 153 134 241 48 153 149 250 366 225 484 623 628 566
0 0 0 0 1 69 95 85 49 5 0 0 0 0 0 8 24 3 3 8 18 32 24 13 133 217 267 152 223 262 155 192 185 266 251 223 249 363 400 391 423 523 584 526
0 0 0 0 0 25 136 43 14 31 25 2 0 0 10 126 202 128 0 3 17 76 47 35 83 236 328 316 429 320 310 210 319 248 268 268 321 303 232 323 417 551 685 627
0 0 0 0 0 0 0 0 13 5 13 0 4 10 0 33 114 99 0 0 5 51 61 58 47 86 208 424 530 472 393 259 267 341 266 338 327 369 322 389 399 708 696 851
0 0 0 0 0 0 0 0 0 0 0 0 43 6 0 3 50 59 27 0 0 23 49 59 95 106 142 300 707 550 408 329 288 387 446 516 439 586 619 605 534 816 688 855
0 0 0 0 0 0 0 0 0 0 0 0 2 0 177 47 82 73 50 0 0 0 46 59 69 70 167 242 604 510 438 320 248 504 483 401 410 425 464 630 624 549 741 811
0 0 0 0 0 0 0 0 0 0 0 0 0 0 277 134 43 0 0 0 0 26 17 45 49 67 117 319 596 636 489 399 336 645 364 310 468 468 497 484 558 677 556 705
0 0 0 0 0 0 0 21 35 2 0 0 0 0 179 175 0 10 0 6 3 0 2 36 73 103 257 513 588 488 480 380 432 773 603 458 398 632 696 618 449 548 581 620
0 0 0 0 49 94 171 86 103 85 140 0 0 0 95 135 40 3 2 9 31 93 90 90 33 103 169 260 298 265 289 205 212 373 512 513 332 443 464 499 405 637 633 465
0 37 95 65 110 139 72 32 38 157 234 298 12 102 114 32 0 4 3 0 41 134 250 134 106 91 193 251 347 281 129 94 99 124 234 276 120 3 97 252 263 302 443 587
14 41 18 39 67 57 49 10 55 263 164 186 54 0 34 0 0 0 0 2 11 132 234 102 1 45 34 51 223 114 93 89 61 106 161 163 193 72 62 50 34 162 141 160
5 1 6 5 17 9 0 0 0 145 396 3 0 0 21 30 32 55 23 15 0 16 84 10 13 29 3 24 45 39 48 0 8 64 239 253 185 105 44 32 55 5 48 79
0 15 17 0 14 63 6 0 0 6 83 310 219 439 318 215 82 20 9 7 1 0 0 1 9 49 66 76 67 99 88 80 109 124 141 147 137 121 120 100 9 10 47 39
0 0 22 2 0 0 0 0 0 0 11 112 277 271 308 208 13 21 1 0 0 2 1 1 0 53 100 109 114 58 86 78 86 106 137 162 112 77 58 50 35 13 23 0
0 0 0 6 11 1 0 0 0 0 1 185 164 143 30 13 65 52 1 0 0 0 0 1 0 1 2 10 23 7 15 13 42 99 139 122 110 70 49 40 28 7 0 0
0 0 0 0 3 19 10 3 4 5 91 114 0 52 188 232 114 14 0 0 0 0 0 0 0 0 1 1 0 1 0 1 0 22 79 55 21 34 65 18 2 1 0 0
0 0 0 0 0 40 36 68 70 32 262 267 216 250 348 256 138 8 0 0 0 0 0 0 0 0 0 0 0 0 0 0 0 0 0 0 0 0 1 6 1 1 0 0
0 0 0 0 1 8 0 0 0 0 24 395 483 487 309 158 162 43 0 0 0 0 0 0 0 0 0 0 0 0 0 0 0 0 0 0 0 0 0 0 0 0 0 0
14 0 0 1 2 36 0 0 0 0 2 556 708 439 278 176 103 6 0 0 0 0 0 0 0 0 0 0 0 0 0 0 0 0 0 0 0 0 0 0 0 0 0 0
3 7 10 27 60 7 0 0 0 0 0 272 343 311 218 111 107 11 0 0 0 0 0 0 0 0 0 0 0 0 0 0 0 0 0 0 0 0 0 0 0 0 0 0